[[{"header":{"parameterUnit":"m.s-1","parameterCategory":1,"la1":31.0,"la2":29.5877,"lo1":-88.7671,"lo2":-86.6584,"dy":0.0162,"dx":0.0185,"nx":115,"ny":88,"refTime":"2023-05-10T12:00:00:Z","depth":0,"parameterNumber":2,"parameterNumberName":"U-component_of_WINDS"},"data":[0.0,0.0,0.0,0.0,0.0,0.0,0.0,0.0,0.0,0.0,0.0,0.0,0.0,0.0,0.0,0.0,0.0,0.0,0.0,0.0,0.0,0.0,0.0,0.0,0.0,0.0,0.0,0.0,0.0,0.0,0.0,0.0,0.0,0.0,0.0,0.0,0.0,0.0,0.0,0.0,0.0,0.0,0.0,0.0,0.0,0.0,0.0,0.0,0.0,0.0,0.0,0.0,0.0,0.0,0.0,0.0,0.0,0.0,0.0,0.0,0.0,0.0,0.0,0.0,0.0,0.0,0.0,0.0,0.0,0.0,0.0,0.0,0.0,0.0,0.0,0.0,0.0,0.0,0.0,0.0,0.0,0.0,0.0,0.0,0.0,0.0,0.0,0.0,0.0,0.0,0.0,0.0,0.0,0.0,0.0,0.0,0.0,0.0,0.0,0.0,0.0,0.0,0.0,0.0,0.0,0.0,0.0,0.0,0.0,0.0,0.0,0.0,0.0,0.0,0.0,0.0,0.0,0.0,0.0,0.0,0.0,0.0,0.0,0.0,0.0,0.0,0.0,0.0,0.0,0.0,0.0,0.0,0.0,0.0,0.0,0.0,0.0,0.0,0.0,0.0,0.0,0.0,0.0,0.0,0.0,0.0,0.0,0.0,0.0,0.0,0.0,0.0,0.0,0.0,0.0,0.0,0.0,0.0,0.0,0.0,0.0,0.0,0.0,0.0,0.0,0.0,0.0,0.0,0.0,0.0,0.0,0.0,0.0,0.0,0.0,0.0,0.0,0.0,0.0,0.0,0.0,0.0,0.0,0.0,0.0,0.0,0.0,0.0,0.0,0.0,0.0,0.0,0.0,0.0,0.0,0.0,0.0,0.0,0.0,0.0,0.0,0.0,0.0,0.0,0.0,0.0,0.0,0.0,0.0,0.0,0.0,0.0,0.0,0.0,0.0,0.0,0.0,0.0,0.0,0.0,0.0,0.0,0.0,0.0,0.0,0.0,0.0,0.0,0.0,0.0,0.0,0.0,0.0,0.0,0.0,0.0,0.0,0.0,0.0,0.0,0.0,0.0,0.0,0.0,0.0,0.0,0.0,0.0,0.0,0.0,0.0,0.0,0.0,0.0,0.0,0.0,0.0,0.0,0.0,0.0,0.0,0.0,0.0,0.0,0.0,0.0,0.0,0.0,0.0,0.0,0.0,0.0,0.0,0.0,0.0,0.0,0.0,0.0,0.0,0.0,0.0,0.0,0.0,0.0,0.0,0.0,0.0,0.0,0.0,0.0,0.0,0.0,0.0,0.0,0.0,0.0,0.0,0.0,0.0,0.0,0.0,0.0,0.0,0.0,0.0,0.0,0.0,0.0,0.0,0.0,0.0,0.0,0.0,0.0,0.0,0.0,0.0,0.0,0.0,0.0,0.0,0.0,0.0,0.0,0.0,0.0,0.0,0.0,0.0,0.0,0.0,0.0,0.0,0.0,0.0,0.0,0.0,0.0,0.0,0.0,0.0,0.0,0.0,0.0,0.0,0.0,0.0,0.0,0.0,0.0,0.0,0.0,0.0,0.0,0.0,0.0,0.0,0.0,0.0,0.0,0.0,0.0,0.0,0.0,0.0,0.0,0.0,0.0,0.0,0.0,0.0,0.0,0.0,0.0,0.0,0.0,0.0,0.0,0.0,0.0,0.0,0.0,0.0,0.0,0.0,0.0,0.0,0.0,0.0,0.0,0.0,0.0,0.0,0.0,0.0,0.0,0.0,0.0,0.0,0.0,0.0,0.0,0.0,0.0,0.0,0.0,0.0,0.0,0.0,0.0,0.0,0.0,0.0,0.0,0.0,0.0,0.0,0.0,0.0,0.0,0.0,0.0,0.0,0.0,0.0,0.0,0.0,0.0,0.0,0.0,0.0,0.0,0.0,0.0,0.0,0.0,0.0,0.0,0.0,0.0,0.0,0.0,0.0,0.0,0.0,0.0,0.0,0.0,0.0,0.0,0.0,0.0,0.0,0.0,0.0,0.0,0.0,0.0,0.0,0.0,0.0,0.0,0.0,0.0,0.0,0.0,0.0,0.0,0.0,0.0,0.0,0.0,0.0,0.0,0.0,0.0,0.0,0.0,0.0,0.0,0.0,0.0,0.0,0.0,0.0,0.0,0.0,0.0,0.0,0.0,0.0,0.0,0.0,0.0,0.0,0.0,0.0,0.0,0.0,0.0,0.0,0.0,0.0,0.0,0.0,0.0,0.0,0.0,0.0,0.0,0.0,0.0,0.0,0.0,0.0,0.0,0.0,0.0,0.0,0.0,0.0,0.0,0.0,0.0,0.0,0.0,0.0,0.0,0.0,0.0,0.0,0.0,0.0,0.0,0.0,0.0,0.0,0.0,0.0,0.0,0.0,0.0,0.0,0.0,0.0,0.0,0.0,0.0,0.0,0.0,0.0,0.0,0.0,0.0,0.0,0.0,0.0,0.0,0.0,0.0,0.0,0.0,0.0,0.0,0.0,0.0,0.0,0.0,0.0,0.0,0.0,0.0,0.0,0.0,0.0,0.0,0.0,0.0,0.0,0.0,0.0,0.0,0.0,0.0,0.0,0.0,0.0,0.0,0.0,0.0,0.0,0.0,0.0,0.0,0.0,0.0,0.0,0.0,0.0,0.0,0.0,0.0,0.0,0.0,0.0,0.0,0.0,0.0,0.0,0.0,0.0,0.0,0.0,0.0,0.0,0.0,0.0,0.0,0.0,0.0,0.0,0.0,0.0,0.0,0.0,0.0,0.0,0.0,0.0,0.0,0.0,0.0,0.0,0.0,0.0,0.0,0.0,0.0,0.0,0.0,0.0,0.0,0.0,0.0,0.0,0.0,0.0,0.0,0.0,0.0,0.0,0.0,0.0,0.0,0.0,0.0,0.0,0.0,0.0,0.0,0.0,0.0,0.0,0.0,0.0,0.0,0.0,0.0,0.0,0.0,0.0,0.0,0.0,0.0,0.0,0.0,0.0,0.0,0.0,0.0,0.0,0.0,0.0,0.0,0.0,0.0,0.0,0.0,0.0,0.0,0.0,0.0,0.0,0.0,0.0,0.0,0.0,0.0,0.0,0.0,0.0,0.0,0.0,0.0,0.0,0.0,0.0,0.0,0.0,0.0,0.0,0.0,0.0,0.0,0.0,0.0,0.0,0.0,0.0,0.0,0.0,0.0,0.0,0.0,0.0,0.0,0.0,0.0,0.0,0.0,0.0,0.0,0.0,0.0,0.0,0.0,0.0,0.0,0.0,0.0,0.0,0.0,0.0,0.0,0.0,0.0,0.0,0.0,0.0,0.0,0.0,0.0,0.0,0.0,0.0,0.0,0.0,0.0,0.0,0.0,0.0,0.0,0.0,0.0,0.0,0.0,0.0,0.0,0.0,0.0,0.0,0.0,0.0,0.0,0.0,0.0,0.0,0.0,0.0,0.0,0.0,0.0,0.0,0.0,0.0,0.0,0.0,0.0,0.0,0.0,0.0,0.0,0.0,0.0,0.0,0.0,0.0,0.0,0.0,0.0,0.0,0.0,0.0,0.0,0.0,0.0,0.0,0.0,0.0,0.0,0.0,0.0,0.0,0.0,0.0,0.0,0.0,0.0,0.0,0.0,0.0,0.0,0.0,0.0,0.0,0.0,0.0,0.0,0.0,0.0,0.0,0.0,0.0,0.0,0.0,0.0,0.0,0.0,0.0,0.0,0.0,0.0,0.0,0.0,0.0,0.0,0.0,0.0,0.0,0.0,0.0,0.0,0.0,0.0,0.0,0.0,0.0,0.0,0.0,0.0,0.0,0.0,0.0,0.0,0.0,0.0,0.0,0.0,0.0,0.0,0.0,0.0,0.0,0.0,0.0,0.0,0.0,0.0,0.0,0.0,0.0,0.0,0.0,0.0,0.0,0.0,0.0,0.0,0.0,0.0,0.0,0.0,0.0,0.0,0.0,0.0,0.0,0.0,0.0,0.0,0.0,0.0,0.0,0.0,0.0,0.0,0.0,0.0,0.0,0.0,0.0,0.0,0.0,0.0,0.0,0.0,0.0,0.0,0.0,0.0,0.0,0.0,0.0,0.0,0.0,0.0,0.0,0.0,0.0,0.0,0.0,0.0,0.0,0.0,0.0,0.0,0.0,0.0,0.0,0.0,0.0,0.0,0.0,0.0,0.0,0.0,0.0,0.0,0.0,0.0,0.0,0.0,0.0,0.0,0.0,0.0,0.0,0.0,0.0,0.0,0.0,0.0,0.0,0.0,0.0,0.0,1.1816,0.0,0.0,0.0,0.0,0.0,0.0,0.0,0.0,0.0,0.0,0.0,0.0,0.0,0.0,0.0,0.0,0.0,0.0,0.0,0.0,0.0,0.0,0.0,0.0,0.0,0.0,0.0,0.0,0.0,0.0,0.0,0.0,0.0,0.0,0.0,0.0,0.0,0.0,0.0,0.0,0.0,0.0,0.0,0.0,0.0,0.0,0.0,0.0,0.0,0.0,0.0,0.0,0.0,0.0,0.0,0.0,0.0,0.0,0.0,0.0,0.0,0.0,0.0,0.0,0.0,0.0,0.0,0.0,0.0,0.0,0.0,0.0,0.0,0.0,0.0,0.0,0.0,0.0,0.0,0.0,0.0,0.0,0.0,0.0,0.0,0.0,0.0,0.0,0.0,0.0,0.0,0.0,0.0,0.0,0.0,0.0,0.0,0.0,0.0,0.0,0.0,0.0,0.0,0.0,0.0,0.0,0.0,0.0,0.0,0.0,1.1816,1.1816,1.1816,1.1816,1.1816,0.0,0.0,0.0,0.0,0.0,0.0,0.0,0.0,0.0,0.0,0.0,0.0,0.0,0.0,0.0,0.0,0.0,0.0,0.0,0.0,0.0,0.0,0.0,0.0,0.0,0.0,0.0,0.0,0.0,0.0,0.0,0.0,0.0,0.0,0.0,0.0,0.0,0.0,0.0,0.0,0.0,0.0,0.0,0.0,0.0,0.0,0.0,0.0,0.0,0.0,0.0,0.0,0.0,0.0,0.0,0.0,0.0,0.0,0.0,0.0,0.0,0.0,0.0,0.0,0.0,0.0,0.0,0.0,0.0,0.0,0.0,0.0,0.0,0.0,0.0,0.0,0.0,0.0,0.0,0.0,0.0,0.0,0.0,0.0,0.0,0.0,0.0,0.0,0.0,0.0,0.0,0.0,0.0,0.0,0.0,0.0,0.0,0.0,0.0,0.0,0.0,0.0,0.0,0.0,0.0,0.0,0.0,0.0,0.0,0.0,0.0,0.0,1.1774,1.1816,1.1816,0.0,0.0,0.0,0.0,0.0,0.0,0.0,0.0,0.0,0.0,0.0,0.0,0.0,0.0,0.0,0.0,0.0,0.0,0.0,0.0,0.0,0.0,0.0,0.0,0.0,0.0,0.0,0.0,0.0,0.0,0.0,0.0,0.0,0.0,0.0,0.0,0.0,0.0,0.0,0.0,0.0,0.0,0.0,0.0,0.0,0.0,0.0,0.0,0.0,0.0,0.0,0.0,0.0,0.0,0.0,0.0,0.0,0.0,0.0,0.0,0.0,0.0,0.0,0.0,0.0,0.0,0.0,0.0,0.0,0.0,0.0,0.0,0.0,0.0,0.0,0.0,0.0,0.0,0.0,0.0,0.0,0.0,0.0,0.0,0.0,0.0,0.0,0.0,0.0,0.0,0.0,0.0,0.0,0.0,0.0,0.0,0.0,0.0,0.0,0.0,0.0,0.0,0.0,0.0,0.0,0.0,0.0,0.0,0.0,0.0,1.1729,1.1723,1.1757,0.0,1.1816,0.0,0.0,0.0,0.0,0.0,0.0,0.0,0.0,0.0,0.0,0.0,0.0,0.0,0.0,0.0,0.0,0.0,0.0,0.0,0.0,0.0,0.0,0.0,0.0,0.0,0.0,0.0,0.0,0.0,0.0,0.0,0.0,0.0,0.0,0.0,0.0,0.0,0.0,0.0,0.0,0.0,0.0,0.0,0.0,0.0,0.0,0.0,0.0,0.0,0.0,0.0,0.0,0.0,0.0,0.0,0.0,0.0,0.0,0.0,0.0,0.0,0.0,0.0,0.0,0.0,0.0,0.0,0.0,0.0,0.0,0.0,0.0,0.0,0.0,0.0,0.0,0.0,0.0,0.0,0.0,0.0,0.0,0.0,0.0,0.0,0.0,0.0,0.0,0.0,0.0,0.0,0.0,0.0,0.0,0.0,0.0,0.0,0.0,0.0,0.0,0.0,0.0,0.0,0.0,0.0,0.0,0.0,0.0,0.0,0.0,1.1645,1.1645,1.1659,1.1676,0.0,0.0,0.0,0.0,0.0,0.0,0.0,0.0,0.0,0.0,0.0,0.0,0.0,0.0,0.0,0.0,0.0,0.0,0.0,0.0,0.0,0.0,0.0,0.0,0.0,0.0,0.0,0.0,0.0,0.0,0.0,0.0,0.0,0.0,0.0,0.0,0.0,0.0,0.0,0.0,0.0,0.0,0.0,0.0,0.0,0.0,0.0,0.0,0.0,0.0,0.0,0.0,0.0,0.0,0.0,0.0,0.0,0.0,0.0,0.0,0.0,0.0,0.0,0.0,0.0,0.0,0.0,0.0,0.0,0.0,0.0,0.0,0.0,0.0,0.0,0.0,0.0,0.0,0.0,0.0,0.0,0.0,0.0,0.0,0.0,0.0,0.0,0.0,0.0,0.0,0.0,0.0,0.0,0.0,0.0,0.0,0.0,0.0,0.0,0.0,0.0,0.0,0.0,0.0,0.0,0.0,0.0,0.0,0.0,0.0,1.1472,1.1523,1.1562,1.1564,1.156,1.156,0.0,0.0,0.0,0.0,0.0,0.0,0.0,0.0,0.0,0.0,0.0,0.0,0.0,0.0,0.0,0.0,0.0,0.0,0.0,0.0,0.0,0.0,0.0,0.0,0.0,0.0,0.0,0.0,0.0,0.0,0.0,0.0,0.0,0.0,0.0,0.0,0.0,0.0,0.0,0.0,0.0,0.0,0.0,0.0,0.0,0.0,0.0,0.0,0.0,0.0,0.0,0.0,0.0,0.0,0.0,0.0,0.0,0.0,0.0,0.0,0.0,0.0,0.0,0.0,0.0,0.0,0.0,0.0,0.0,0.0,0.0,0.0,0.0,0.0,0.0,0.0,0.0,0.0,0.0,0.0,0.0,0.0,0.0,0.0,0.0,0.0,0.0,0.0,0.0,0.0,0.0,0.0,0.0,0.0,0.0,0.0,0.0,0.0,0.0,0.0,0.0,0.0,0.0,0.0,0.0,0.0,0.0,0.0,1.1128,1.123,1.137,1.1489,1.15,1.15,0.0,0.0,0.0,0.0,0.0,0.0,0.0,0.0,0.0,0.0,0.0,0.0,0.0,0.0,0.0,0.0,0.0,0.0,0.0,0.0,0.0,0.0,0.0,0.0,0.0,0.0,0.0,0.0,0.0,0.0,0.0,0.0,0.0,0.0,0.0,0.0,0.0,0.0,0.0,0.0,0.0,0.0,0.0,0.0,0.0,0.0,0.0,0.0,0.0,0.0,0.0,0.0,0.0,0.0,0.0,0.0,0.0,0.0,0.0,0.0,0.0,0.0,0.0,0.0,0.0,0.0,0.0,0.0,0.0,0.0,0.0,0.0,0.0,0.0,0.0,0.0,0.0,0.0,0.0,0.0,0.0,0.0,0.0,0.0,0.0,0.0,0.0,0.0,0.0,0.0,0.0,0.0,0.0,0.0,0.0,0.0,0.0,0.0,0.0,0.0,0.0,0.0,0.0,0.0,0.0,0.0,0.0,0.0,0.0,1.0843,1.0974,1.1117,1.123,1.1236,1.1242,0.0,0.0,0.0,0.0,0.0,0.0,0.0,0.0,0.0,0.0,0.0,0.0,0.0,0.0,0.0,0.0,0.0,0.0,0.0,0.0,0.0,0.0,0.0,0.0,0.0,0.0,0.0,0.0,0.0,0.0,0.0,0.0,0.0,0.0,0.0,0.0,0.0,0.0,0.0,0.0,0.0,0.0,0.0,0.0,0.0,0.0,0.0,0.0,0.0,0.0,0.0,0.0,0.0,0.0,0.0,0.0,0.0,0.0,0.0,0.0,0.0,0.0,0.0,0.0,0.0,0.0,0.0,0.0,0.0,0.0,0.0,0.0,0.0,0.0,0.0,0.0,0.0,0.0,0.0,0.0,0.0,0.0,0.0,0.0,0.0,0.0,0.0,0.0,0.0,0.0,0.0,0.0,0.0,0.0,0.0,0.0,0.0,0.0,0.0,0.0,0.0,0.0,0.0,0.0,0.0,0.0,0.0,0.0,0.0,1.0676,0.0,1.1151,1.1269,1.1437,1.1514,0.0,0.0,0.0,0.0,0.0,0.0,0.0,0.0,0.0,0.0,0.0,0.0,0.0,0.0,0.0,0.0,0.0,0.0,0.0,0.0,0.0,0.0,0.0,0.0,0.0,0.0,0.0,0.0,0.0,0.0,0.0,0.0,0.0,0.0,0.0,0.0,0.0,0.0,0.0,0.0,0.0,0.0,0.0,0.0,0.0,0.0,0.0,0.0,0.0,0.0,0.0,0.0,0.0,0.0,0.0,0.0,0.0,0.0,0.0,0.0,0.0,0.0,0.0,0.0,0.0,0.0,0.0,0.0,0.0,0.0,0.0,0.0,0.0,0.0,0.0,0.0,0.0,0.0,0.0,0.0,0.0,0.0,0.0,0.0,0.0,0.0,0.0,0.0,0.0,0.0,0.0,0.0,0.0,0.0,0.0,0.0,0.0,0.0,0.0,0.0,0.0,0.0,0.0,0.0,0.0,0.0,0.0,0.0,1.0508,1.0644,1.1206,1.1528,1.1595,1.2095,1.2364,0.0,0.0,0.0,0.0,0.0,0.0,0.0,0.0,0.0,0.0,0.0,0.0,0.0,0.0,0.0,0.0,0.0,0.0,0.0,0.0,0.0,0.0,0.0,0.0,0.0,0.0,0.0,0.0,0.0,0.0,0.0,0.0,0.0,0.0,0.0,0.0,0.0,0.0,0.0,0.0,0.0,0.0,0.0,0.0,0.0,0.0,0.0,0.0,0.0,0.0,0.0,0.0,0.0,0.0,0.0,0.0,0.0,0.0,0.0,0.0,0.0,0.0,0.0,0.0,0.0,0.0,0.0,0.0,0.0,0.0,0.0,0.0,0.0,0.0,0.0,0.0,0.0,0.0,0.0,0.0,0.0,0.0,0.0,0.0,0.0,0.0,0.0,0.0,0.0,0.0,0.0,0.0,0.0,0.0,0.0,0.0,0.0,0.0,0.0,0.0,0.0,0.0,0.0,0.0,0.0,0.0,0.0,0.0,0.0,1.15,1.1678,1.1804,1.1881,1.2069,1.221,0.0,0.0,0.0,0.0,0.0,0.0,0.0,0.0,0.0,0.0,0.0,0.0,0.0,0.0,0.0,0.0,0.0,0.0,0.0,0.0,0.0,0.0,0.0,0.0,0.0,0.0,0.0,0.0,0.0,0.0,0.0,0.0,0.0,0.0,0.0,0.0,0.0,0.0,0.0,0.0,0.0,0.0,0.0,0.0,0.0,0.0,0.0,0.0,0.0,0.0,0.0,0.0,0.0,0.0,0.0,0.0,0.0,0.0,0.0,0.0,0.0,0.0,0.0,0.0,0.0,0.0,0.0,0.0,0.0,0.0,0.0,0.0,0.0,0.0,0.0,0.0,0.0,0.0,0.0,0.0,0.0,0.0,0.0,0.0,0.0,0.0,0.0,0.0,0.0,0.0,0.0,0.0,0.0,0.0,0.0,0.0,0.0,0.0,0.0,0.0,0.0,0.0,0.0,0.0,0.0,0.0,0.0,0.0,0.0,1.2692,1.2347,1.2182,1.2228,1.2475,1.2623,1.2631,0.0,0.0,0.0,0.0,0.0,0.0,0.0,0.0,0.0,0.0,0.0,0.0,0.0,0.0,0.0,0.0,0.0,0.0,0.0,0.0,0.0,0.0,0.0,0.0,0.0,0.0,0.0,0.0,0.0,0.0,0.0,0.0,0.0,0.0,0.0,0.0,0.0,0.0,0.0,0.0,0.0,0.0,0.0,0.0,0.0,0.0,0.0,0.0,0.0,0.0,0.0,0.0,0.0,0.0,0.0,0.0,0.0,0.0,0.0,0.0,0.0,0.0,0.0,0.0,0.0,0.0,0.0,0.0,0.0,0.0,0.0,0.0,0.0,0.0,0.0,0.0,0.0,0.0,0.0,0.0,0.0,0.0,0.0,0.0,0.0,0.0,0.0,0.0,0.0,0.0,0.0,0.0,0.0,0.0,0.0,0.0,0.0,0.0,0.0,0.0,0.0,0.0,0.0,0.0,0.0,0.0,0.0,0.0,1.4091,1.32,1.2732,1.2698,1.3241,1.3527,0.0,0.0,0.0,0.0,0.0,0.0,0.0,0.0,0.0,0.0,0.0,0.0,0.0,0.0,0.0,0.0,0.0,0.0,0.0,0.0,0.0,0.0,0.0,0.0,0.0,0.0,0.0,0.0,0.0,0.0,0.0,0.0,0.0,0.0,0.0,0.0,0.0,0.0,0.0,0.0,0.0,0.0,0.0,0.0,0.0,0.0,0.0,0.0,0.0,0.0,0.0,0.0,0.0,0.0,0.0,0.0,0.0,0.0,0.0,0.0,0.0,0.0,0.0,0.0,0.0,0.0,0.0,0.0,0.0,0.0,0.0,0.0,0.0,0.0,0.0,0.0,0.0,0.0,0.0,0.0,0.0,0.0,0.0,0.0,0.0,0.0,0.0,0.0,0.0,0.0,0.0,0.0,0.0,0.0,0.0,0.0,0.0,0.0,0.0,0.0,0.0,0.0,0.0,0.0,0.0,0.0,0.0,0.0,0.0,1.4091,1.4213,1.4105,1.3744,1.3916,1.3828,0.0,0.0,0.0,0.0,0.0,0.0,0.0,0.0,0.0,0.0,0.0,0.0,0.0,0.0,0.0,0.0,0.0,0.0,0.0,0.0,0.0,0.0,0.0,0.0,0.0,0.0,0.0,0.0,0.0,0.0,0.0,0.0,0.0,0.0,0.0,0.0,0.0,0.0,0.0,0.0,0.0,0.0,0.0,0.0,0.0,0.0,0.0,0.0,0.0,0.0,0.0,0.0,0.0,0.0,0.0,0.0,0.0,0.0,0.0,0.0,0.0,0.0,0.0,0.0,0.0,0.0,0.0,0.0,0.0,0.0,0.0,0.0,0.0,0.0,0.0,0.0,0.0,0.0,0.0,0.0,0.0,0.0,0.0,0.0,0.0,0.0,0.0,0.0,0.0,0.0,0.0,0.0,0.0,0.0,0.0,0.0,0.0,0.0,0.0,0.0,0.0,0.0,0.0,0.0,0.0,0.0,0.0,0.0,1.4207,1.4437,1.4956,1.5095,1.478,1.437,1.4015,0.0,0.0,0.0,0.0,0.0,0.0,0.0,0.0,0.0,0.0,0.0,0.0,0.0,0.0,0.0,0.0,0.0,0.0,0.0,0.0,0.0,0.0,0.0,0.0,0.0,0.0,0.0,0.0,0.0,0.0,0.0,0.0,0.0,0.0,0.0,0.0,0.0,0.0,0.0,0.0,0.0,0.0,0.0,0.0,0.0,0.0,0.0,0.0,0.0,0.0,0.0,0.0,0.0,0.0,0.0,0.0,0.0,0.0,0.0,0.0,0.0,0.0,0.0,0.0,0.0,0.0,0.0,0.0,0.0,0.0,0.0,0.0,0.0,0.0,0.0,0.0,0.0,0.0,0.0,0.0,0.0,0.0,0.0,0.0,0.0,0.0,0.0,0.0,0.0,0.0,0.0,0.0,0.0,0.0,0.0,0.0,0.0,0.0,0.0,0.0,0.0,0.0,0.0,0.0,0.0,0.0,0.0,0.0,1.4447,1.4972,1.5512,1.5804,1.5766,1.4752,1.4157,0.0,0.0,0.0,0.0,0.0,0.0,0.0,0.0,0.0,0.0,0.0,0.0,0.0,0.0,0.0,0.0,0.0,0.0,0.0,0.0,0.0,0.0,0.0,0.0,0.0,0.0,0.0,0.0,0.0,0.0,0.0,0.0,0.0,0.0,0.0,0.0,0.0,0.0,0.0,0.0,0.0,0.0,0.0,0.0,0.0,0.0,0.0,0.0,0.0,0.0,0.0,0.0,0.0,0.0,0.0,0.0,0.0,0.0,0.0,0.0,0.0,0.0,0.0,0.0,0.0,0.0,0.0,0.0,0.0,0.0,0.0,0.0,0.0,0.0,0.0,0.0,0.0,0.0,0.0,0.0,0.0,0.0,0.0,0.0,0.0,0.0,0.0,0.0,0.0,0.0,0.0,0.0,0.0,0.0,0.0,0.0,0.0,0.0,0.0,0.0,0.0,0.0,0.0,0.0,0.0,0.0,0.0,0.0,1.4984,1.5525,1.6057,1.6346,1.6323,1.5289,1.4535,0.0,0.0,0.0,0.0,0.0,0.0,0.0,0.0,0.0,0.0,0.0,0.0,0.0,0.0,0.0,0.0,0.0,0.0,0.0,0.0,0.0,0.0,0.0,0.0,0.0,0.0,0.0,0.0,0.0,0.0,0.0,0.0,0.0,0.0,0.0,0.0,0.0,0.0,0.0,0.0,0.0,0.0,0.0,0.0,0.0,0.0,0.0,0.0,1.7664,0.0,0.0,0.0,0.0,0.0,0.0,0.0,0.0,0.0,0.0,0.0,0.0,0.0,0.0,0.0,0.0,0.0,0.0,0.0,0.0,0.0,0.0,0.0,0.0,0.0,0.0,0.0,0.0,0.0,0.0,0.0,0.0,0.0,0.0,0.0,0.0,0.0,0.0,0.0,0.0,0.0,0.0,0.0,0.0,0.0,0.0,0.0,0.0,0.0,0.0,0.0,0.0,0.0,0.0,0.0,0.0,0.0,0.0,0.0,1.5015,1.5562,1.6076,1.6349,1.6335,1.5336,1.4672,0.0,0.0,0.0,0.0,0.0,0.0,0.0,0.0,0.0,0.0,0.0,0.0,0.0,0.0,0.0,0.0,0.0,0.0,0.0,0.0,0.0,0.0,0.0,0.0,0.0,0.0,0.0,0.0,0.0,0.0,0.0,0.0,0.0,0.0,0.0,0.0,0.0,0.0,0.0,0.0,0.0,0.0,0.0,0.0,0.0,0.0,0.0,0.0,0.0,0.0,0.0,0.0,0.0,0.0,0.0,0.0,0.0,0.0,0.0,0.0,0.0,0.0,0.0,0.0,0.0,0.0,0.0,0.0,0.0,0.0,0.0,0.0,0.0,0.0,0.0,0.0,0.0,0.0,0.0,0.0,0.0,0.0,0.0,0.0,0.0,0.0,0.0,0.0,0.0,0.0,0.0,0.0,0.0,0.0,0.0,0.0,0.0,0.0,0.0,0.0,0.0,0.0,0.0,0.0,0.0,0.0,0.0,1.4283,1.4832,1.5435,1.59,1.6134,1.6121,1.5102,1.4604,1.4765,0.0,0.0,0.0,0.0,0.0,0.0,0.0,0.0,0.0,0.0,0.0,0.0,0.0,0.0,0.0,0.0,0.0,0.0,0.0,0.0,0.0,0.0,0.0,0.0,0.0,0.0,0.0,0.0,0.0,0.0,0.0,0.0,0.0,0.0,0.0,0.0,0.0,0.0,1.7565,1.7437,0.0,0.0,0.0,0.0,0.0,0.0,0.0,0.0,1.7507,0.0,0.0,0.0,0.0,0.0,0.0,0.0,0.0,0.0,0.0,0.0,0.0,0.0,0.0,0.0,0.0,0.0,0.0,0.0,0.0,0.0,0.0,0.0,0.0,0.0,0.0,0.0,0.0,0.0,0.0,0.0,0.0,0.0,0.0,0.0,0.0,0.0,0.0,0.0,0.0,0.0,0.0,0.0,0.0,0.0,0.0,0.0,0.0,0.0,0.0,0.0,0.0,0.0,0.0,0.0,0.0,1.4098,1.4207,1.4747,1.5702,1.581,1.587,1.5833,1.4821,1.4282,1.4276,0.0,0.0,0.0,0.0,0.0,0.0,0.0,0.0,0.0,0.0,0.0,0.0,0.0,0.0,0.0,0.0,0.0,0.0,0.0,0.0,0.0,0.0,0.0,0.0,0.0,0.0,0.0,0.0,0.0,0.0,0.0,0.0,0.0,0.0,0.0,0.0,0.0,0.0,0.0,1.7238,1.7179,0.0,0.0,0.0,0.0,0.0,0.0,0.0,0.0,1.7372,0.0,0.0,0.0,0.0,0.0,0.0,0.0,0.0,0.0,0.0,0.0,0.0,0.0,0.0,0.0,0.0,0.0,0.0,0.0,0.0,0.0,0.0,0.0,0.0,0.0,0.0,0.0,0.0,0.0,0.0,0.0,0.0,0.0,0.0,0.0,0.0,0.0,0.0,0.0,0.0,0.0,0.0,0.0,0.0,0.0,0.0,0.0,0.0,0.0,0.0,0.0,0.0,0.0,0.0,0.0,1.386,1.4112,1.465,1.54,1.5435,1.5435,1.5423,1.4437,1.3895,0.0,0.0,0.0,0.0,0.0,0.0,0.0,0.0,0.0,0.0,0.0,0.0,0.0,0.0,0.0,0.0,0.0,0.0,0.0,0.0,0.0,0.0,0.0,0.0,0.0,0.0,0.0,0.0,0.0,0.0,0.0,0.0,0.0,0.0,0.0,0.0,0.0,0.0,0.0,0.0,1.6892,1.6828,1.6805,0.0,0.0,0.0,0.0,0.0,0.0,1.7069,1.7185,0.0,0.0,0.0,0.0,0.0,0.0,0.0,0.0,0.0,0.0,0.0,0.0,0.0,0.0,0.0,0.0,0.0,0.0,0.0,0.0,0.0,0.0,0.0,0.0,0.0,0.0,0.0,0.0,0.0,0.0,0.0,0.0,0.0,0.0,0.0,0.0,0.0,0.0,0.0,0.0,0.0,0.0,0.0,0.0,0.0,0.0,0.0,0.0,0.0,0.0,0.0,0.0,0.0,0.0,0.0,1.3438,1.3928,1.4427,1.4915,1.496,1.496,1.4926,1.3972,1.3448,0.0,0.0,0.0,0.0,0.0,0.0,0.0,0.0,0.0,0.0,0.0,0.0,0.0,0.0,0.0,0.0,0.0,0.0,0.0,0.0,0.0,0.0,0.0,0.0,0.0,0.0,0.0,0.0,0.0,0.0,0.0,0.0,0.0,0.0,0.0,0.0,0.0,0.0,0.0,0.0,0.0,1.6454,1.6483,1.6523,0.0,0.0,0.0,0.0,1.7128,1.7125,0.0,0.0,0.0,0.0,0.0,0.0,0.0,0.0,0.0,0.0,0.0,0.0,0.0,0.0,0.0,0.0,0.0,0.0,0.0,0.0,0.0,0.0,0.0,0.0,0.0,0.0,0.0,0.0,0.0,0.0,0.0,0.0,0.0,0.0,0.0,0.0,0.0,0.0,0.0,0.0,0.0,0.0,0.0,0.0,0.0,0.0,0.0,0.0,0.0,0.0,0.0,0.0,0.0,0.0,0.0,0.0,1.2995,1.3455,1.3937,1.4444,1.4488,1.4489,1.4466,1.351,1.2984,0.0,0.0,0.0,0.0,0.0,0.0,0.0,0.0,0.0,0.0,0.0,0.0,0.0,0.0,0.0,0.0,0.0,0.0,0.0,0.0,0.0,0.0,0.0,0.0,0.0,0.0,0.0,0.0,0.0,0.0,0.0,0.0,0.0,0.0,0.0,0.0,0.0,0.0,0.0,0.0,0.0,1.6196,1.6087,1.6527,1.6908,0.0,0.0,1.8137,1.8212,1.7873,0.0,0.0,0.0,0.0,0.0,0.0,0.0,0.0,0.0,0.0,0.0,0.0,0.0,0.0,0.0,0.0,0.0,0.0,0.0,0.0,0.0,0.0,0.0,0.0,0.0,0.0,0.0,0.0,0.0,0.0,0.0,0.0,0.0,0.0,0.0,0.0,0.0,0.0,0.0,0.0,0.0,0.0,0.0,0.0,0.0,0.0,0.0,0.0,0.0,0.0,0.0,0.0,0.0,0.0,0.0,1.2478,1.2912,1.3355,1.3704,1.3941,1.3952,1.3952,1.394,1.304,1.2595,0.0,0.0,0.0,0.0,0.0,0.0,0.0,0.0,0.0,0.0,0.0,0.0,0.0,0.0,0.0,0.0,0.0,0.0,0.0,0.0,0.0,0.0,0.0,0.0,0.0,0.0,0.0,0.0,0.0,0.0,0.0,0.0,0.0,0.0,0.0,0.0,0.0,0.0,0.0,0.0,0.0,0.0,1.6181,1.6411,0.0,0.0,0.0,1.8042,1.8106,0.0,0.0,0.0,0.0,0.0,0.0,0.0,0.0,0.0,0.0,0.0,0.0,0.0,0.0,0.0,0.0,0.0,0.0,0.0,0.0,0.0,0.0,0.0,0.0,0.0,0.0,0.0,0.0,0.0,0.0,0.0,0.0,0.0,0.0,0.0,0.0,0.0,0.0,0.0,0.0,0.0,0.0,0.0,0.0,0.0,0.0,0.0,0.0,0.0,0.0,0.0,0.0,0.0,0.0,0.0,0.0,0.0,1.2723,1.3183,1.3442,1.3454,1.3442,1.3455,1.3483,1.2765,0.0,0.0,0.0,0.0,0.0,0.0,0.0,0.0,0.0,0.0,0.0,0.0,0.0,0.0,0.0,0.0,0.0,0.0,0.0,0.0,0.0,0.0,0.0,0.0,0.0,0.0,0.0,1.4497,0.0,0.0,0.0,0.0,0.0,0.0,0.0,0.0,0.0,0.0,0.0,0.0,0.0,0.0,1.5752,1.6171,1.6487,1.6874,0.0,0.0,1.8192,1.8316,1.8377,1.8269,0.0,0.0,0.0,0.0,0.0,0.0,0.0,0.0,0.0,0.0,0.0,0.0,0.0,0.0,0.0,0.0,0.0,0.0,0.0,0.0,0.0,0.0,0.0,0.0,0.0,0.0,0.0,0.0,0.0,0.0,0.0,0.0,0.0,0.0,0.0,0.0,0.0,0.0,0.0,0.0,0.0,0.0,0.0,0.0,0.0,0.0,0.0,0.0,0.0,0.0,0.0,0.0,0.0,0.0,0.0,1.2259,1.2704,1.2968,1.3043,1.3031,1.3094,1.322,1.2795,1.2375,0.0,0.0,0.0,0.0,0.0,0.0,0.0,0.0,0.0,0.0,0.0,0.0,0.0,0.0,0.0,0.0,0.0,0.0,0.0,0.0,0.0,0.0,0.0,0.0,0.0,0.0,0.0,0.0,0.0,0.0,0.0,0.0,0.0,0.0,0.0,0.0,0.0,0.0,0.0,0.0,0.0,1.5842,1.5765,1.6819,1.7682,0.0,0.0,1.9253,1.9459,1.9087,1.8765,1.8796,0.0,0.0,0.0,0.0,0.0,0.0,0.0,0.0,0.0,0.0,0.0,0.0,0.0,0.0,0.0,0.0,0.0,0.0,0.0,0.0,0.0,0.0,0.0,0.0,0.0,0.0,0.0,0.0,0.0,0.0,0.0,0.0,0.0,0.0,0.0,0.0,0.0,0.0,0.0,0.0,0.0,0.0,0.0,0.0,0.0,0.0,0.0,0.0,0.0,0.0,0.0,0.0,0.0,1.2025,1.2258,1.237,1.2458,1.2544,1.2556,1.2618,1.2766,1.2416,1.2194,0.0,0.0,0.0,0.0,0.0,0.0,0.0,0.0,0.0,0.0,0.0,0.0,0.0,0.0,0.0,0.0,0.0,0.0,0.0,0.0,0.0,0.0,0.0,0.0,0.0,0.0,0.0,0.0,1.4028,1.4092,1.4249,0.0,0.0,0.0,0.0,0.0,0.0,0.0,0.0,0.0,0.0,1.5688,1.593,1.6734,0.0,0.0,1.856,1.8964,1.9256,1.9225,1.9058,1.8704,1.8656,0.0,0.0,0.0,0.0,0.0,0.0,0.0,0.0,0.0,0.0,0.0,0.0,0.0,0.0,0.0,0.0,0.0,0.0,0.0,0.0,0.0,0.0,0.0,0.0,0.0,0.0,0.0,0.0,0.0,0.0,0.0,0.0,0.0,0.0,0.0,0.0,0.0,0.0,0.0,0.0,0.0,0.0,0.0,0.0,0.0,0.0,0.0,0.0,0.0,0.0,0.0,0.0,1.178,1.2076,1.1918,1.1952,1.2122,1.2126,1.22,1.2363,1.2196,1.207,0.0,0.0,0.0,0.0,0.0,0.0,0.0,0.0,0.0,0.0,0.0,0.0,0.0,0.0,0.0,0.0,0.0,0.0,0.0,0.0,0.0,0.0,0.0,0.0,0.0,0.0,0.0,0.0,1.3679,1.3745,1.3876,0.0,0.0,0.0,0.0,0.0,0.0,0.0,0.0,0.0,0.0,1.571,1.6171,1.6832,1.7503,1.8122,1.8368,1.8606,1.8922,1.9125,1.9086,1.8723,0.0,0.0,0.0,0.0,0.0,0.0,0.0,0.0,0.0,0.0,0.0,0.0,0.0,0.0,0.0,0.0,0.0,0.0,0.0,0.0,0.0,0.0,0.0,0.0,0.0,0.0,0.0,0.0,0.0,0.0,0.9345,0.0,0.0,0.0,0.0,0.0,0.0,0.0,0.0,0.0,0.0,0.0,0.0,0.0,0.0,0.0,0.0,0.0,0.0,0.0,0.0,0.0,0.0,1.1623,1.1528,1.1389,1.1452,1.1694,1.1715,1.184,1.2079,1.2215,1.2081,1.1633,0.0,0.0,0.0,0.0,0.0,0.0,0.0,0.0,0.0,0.0,0.0,0.0,0.0,0.0,0.0,0.0,0.0,0.0,0.0,0.0,0.0,0.0,0.0,0.0,0.0,0.0,1.3253,1.3404,1.3556,0.0,0.0,0.0,0.0,0.0,0.0,0.0,0.0,0.0,0.0,1.5457,1.6027,1.6414,1.7177,1.7727,1.7958,1.8115,1.8331,1.8663,1.8774,1.8855,0.0,0.0,0.0,0.0,0.0,0.0,0.0,0.0,0.0,0.0,0.0,0.0,0.0,0.0,0.0,0.0,0.0,0.0,0.0,0.0,0.0,0.0,0.0,0.0,0.0,0.0,0.0,0.9757,0.9505,0.0,0.0,0.0,0.0,0.0,0.0,0.0,0.0,0.0,0.0,0.0,1.0756,1.0756,0.0,0.0,0.0,0.0,0.0,0.0,0.0,0.0,0.0,0.0,0.0,0.0,1.115,1.1078,1.0875,1.0896,1.115,1.1175,1.1301,1.1556,1.179,1.177,1.1489,0.0,0.0,0.0,0.0,0.0,0.0,0.0,0.0,0.0,0.0,0.0,0.0,0.0,0.0,0.0,0.0,0.0,0.0,0.0,0.0,0.0,0.0,0.0,0.0,0.0,1.3518,0.0,0.0,0.0,0.0,0.0,0.0,0.0,0.0,0.0,0.0,0.0,1.4755,1.5125,1.5673,1.6062,1.6154,1.6856,1.743,0.0,0.0,0.0,0.0,0.0,0.0,0.0,0.0,0.0,0.0,0.0,0.0,0.0,0.0,2.0196,2.0613,2.0695,2.0761,2.0933,0.0,0.0,0.0,0.0,0.0,0.0,0.0,0.0,0.0,0.0,0.0,0.0,0.0,0.0,0.9524,0.0,0.9322,0.0,0.0,0.0,0.0,0.0,0.0,0.0,0.0,1.0095,1.0107,1.0128,1.0159,1.0172,0.0,1.0185,1.0506,0.0,0.0,0.0,0.0,0.0,0.0,0.0,0.0,1.059,1.0578,1.0334,1.0313,1.0578,1.059,1.0731,1.1023,1.1276,1.1405,1.1369,1.1541,1.1515,0.0,0.0,0.0,0.0,0.0,0.0,0.0,0.0,0.0,0.0,0.0,0.0,0.0,0.0,0.0,0.0,0.0,0.0,0.0,0.0,0.0,0.0,0.0,1.365,0.0,0.0,0.0,0.0,0.0,0.0,0.0,0.0,0.0,1.4987,1.4939,1.5047,1.5421,1.5816,1.6101,1.623,0.0,0.0,0.0,0.0,0.0,0.0,0.0,1.8125,1.8272,1.8464,1.8611,1.8717,1.8983,1.9213,1.9282,0.0,0.0,2.022,2.0315,2.0375,2.0586,2.0635,2.0635,2.0644,2.062,2.061,0.0,0.0,0.0,0.0,0.0,0.0,0.0,0.0,0.8957,0.8937,0.0,0.8811,0.0,0.0,0.0,0.0,0.0,0.9155,0.0,0.0,0.9358,0.9402,0.943,0.9553,0.9611,0.9611,0.9619,0.9756,1.0044,1.0579,0.0,0.0,0.0,0.0,0.0,0.0,0.9973,0.9986,0.9738,0.9712,0.9973,0.9986,1.0141,1.0483,1.0744,1.0998,1.1267,1.1531,1.1656,1.166,1.1619,0.0,0.0,0.0,0.0,0.0,0.0,0.0,0.0,0.0,0.0,0.0,0.0,0.0,0.0,0.0,0.0,0.0,0.0,0.0,0.0,1.3505,0.0,0.0,0.0,0.0,0.0,0.0,0.0,0.0,0.0,0.0,1.5293,1.5312,1.5447,1.5785,0.0,0.0,0.0,0.0,1.7044,1.7167,1.7308,1.7453,1.7638,1.7679,1.773,1.7862,0.0,0.0,1.8566,1.8731,1.8893,1.8932,1.9094,1.9328,1.9921,2.0022,2.0034,2.0235,2.0278,2.0294,2.0309,2.0362,2.0336,0.9026,0.0,0.0,0.0,0.0,0.8917,0.8852,0.873,0.8874,0.886,0.873,0.8724,0.0,0.0,0.0,0.0,0.0,0.0,0.9122,0.9128,0.9271,0.9334,0.9328,0.9511,0.9616,0.9609,0.9609,0.9694,0.9862,1.003,1.0319,1.0722,0.0,0.0,0.0,0.0,0.9577,0.9569,0.94,0.94,0.9569,0.9577,0.9758,1.0136,1.021,1.0411,1.0718,1.0985,1.1129,1.1129,1.1485,0.0,0.0,0.0,0.0,0.0,0.0,0.0,0.0,0.0,0.0,0.0,0.0,0.0,0.0,0.0,0.0,0.0,0.0,0.0,1.352,1.3906,1.4228,0.0,0.0,0.0,0.0,0.0,0.0,0.0,0.0,0.0,1.5782,1.5675,1.5759,0.0,0.0,1.641,1.6541,1.6684,1.6803,1.6833,1.6992,0.0,1.7191,1.7285,1.7344,1.7399,1.792,1.8422,1.8642,1.9166,1.9589,1.9597,1.9799,2.0059,2.0313,1.9946,1.9698,1.9824,1.9869,2.0011,2.0397,2.0508,2.0658,0.845,0.8671,0.8623,0.8527,0.841,0.8419,0.8395,0.8307,0.8395,0.8381,0.8292,0.8298,0.8307,0.8292,0.8307,0.0,0.0,0.0,0.8548,0.8557,0.8775,0.8863,0.8871,0.9134,0.9251,0.9251,0.9245,0.9318,0.9442,0.9442,0.9614,0.9929,0.0,0.0,0.9914,0.9636,0.948,0.9493,0.9425,0.9453,0.9602,0.9564,0.9602,0.9753,0.9758,0.9888,1.0154,1.0411,1.0544,1.0552,1.1065,1.144,0.0,0.0,0.0,0.0,0.0,0.0,0.0,0.0,0.0,0.0,0.0,1.2829,1.2637,0.0,0.0,0.0,1.3074,1.3287,1.3575,1.3955,0.0,0.0,0.0,0.0,0.0,0.0,0.0,1.4946,1.5391,1.5726,1.579,1.5764,1.5924,1.6386,1.6457,1.6468,1.65,0.0,1.6697,1.6697,1.7038,1.7273,1.7273,1.7508,1.7739,1.7781,1.8188,1.859,1.8821,1.9292,1.9619,1.9712,1.9864,2.0085,2.0284,1.9928,1.9738,2.0132,2.0203,2.0351,2.0705,2.074,2.0882,0.7916,0.79,0.7977,0.7886,0.7728,0.7728,0.7722,0.7722,0.7728,0.7722,0.7722,0.7722,0.7722,0.7722,0.7738,0.0,0.7728,0.7722,0.7733,0.7738,0.8064,0.8229,0.8259,0.8574,0.8729,0.8702,0.8696,0.8753,0.8859,0.8867,0.8941,0.9063,0.9476,0.9706,0.9709,0.9587,0.9542,0.9536,0.9615,0.9702,0.9854,0.9736,0.9589,0.9453,0.9411,0.9462,0.9611,0.9831,0.996,0.9973,1.0514,1.0917,1.1074,0.0,0.0,0.0,0.0,0.0,0.0,0.0,0.0,0.0,0.0,0.0,0.0,0.0,0.0,0.0,1.329,0.0,1.3563,1.368,0.0,0.0,0.0,1.428,1.4616,1.465,1.4743,1.504,0.0,0.0,1.5516,1.5685,1.5953,1.6375,1.6427,1.6464,1.6536,1.6723,1.6802,1.6872,1.7353,1.7752,1.7731,1.8101,1.8404,1.8544,1.8708,1.8839,1.9084,1.9276,1.9353,1.9524,1.9593,1.9789,1.9962,2.0034,2.0205,2.0872,2.0936,2.0924,2.0986,2.099,2.1043,0.7162,0.7167,0.7172,0.7469,0.7918,0.7935,0.793,0.7935,0.793,0.793,0.793,0.793,0.793,0.793,0.793,0.7918,0.7913,0.7913,0.7935,0.7952,0.8331,0.8505,0.8522,0.8855,0.892,0.8788,0.8783,0.8722,0.8598,0.8593,0.8608,0.8661,0.8751,0.8907,0.9105,0.9078,0.9078,0.9064,0.9228,0.9381,0.952,0.9483,0.9582,0.977,0.9522,0.948,0.967,0.9589,0.9582,0.9699,1.003,1.0385,1.0769,1.0972,0.0,0.0,0.0,0.0,0.0,0.0,0.0,0.0,0.0,1.2855,1.2744,0.0,1.2786,0.0,1.3044,1.319,1.33,1.3326,0.0,0.0,1.3586,1.3741,1.4127,1.4162,1.4314,1.4684,1.4823,1.5062,1.553,1.5694,1.6044,1.6669,1.6724,1.6771,1.7004,1.7422,1.7727,1.7806,1.7964,1.8085,1.8097,1.8174,1.8359,1.845,1.8806,1.9135,1.9303,1.9773,2.0119,2.0169,2.0279,2.0449,2.0677,2.074,2.0845,2.1182,2.086,2.0606,2.1058,2.1157,2.1298,0.6888,0.6888,0.6888,0.7143,0.7516,0.7516,0.7513,0.7513,0.7513,0.7513,0.7513,0.7509,0.7513,0.7509,0.7509,0.7513,0.7513,0.7509,0.7509,0.7531,0.789,0.8067,0.8085,0.8428,0.8556,0.844,0.844,0.8384,0.828,0.828,0.828,0.8275,0.8184,0.8224,0.8374,0.8759,0.8946,0.8946,0.9196,0.9338,0.9396,0.9396,0.9451,0.9578,0.9411,0.9362,0.9475,0.9494,0.9521,0.9589,0.9888,1.0174,1.0509,1.0596,1.0845,0.0,0.0,0.0,0.0,0.0,0.0,0.0,0.0,0.0,0.0,0.0,1.2566,1.2627,1.2725,1.2825,1.2973,1.3021,1.3118,1.326,1.3288,1.3491,1.3995,1.4101,1.4318,1.4787,1.4981,1.5225,1.5553,1.5684,1.5946,1.648,1.6728,1.6979,1.7316,1.7654,1.7857,1.8012,1.8236,1.851,1.8759,1.887,1.8944,1.9018,1.927,1.9509,1.966,1.9965,2.0246,2.0309,2.0372,2.0485,2.0673,2.0735,2.081,2.0927,2.0728,2.069,2.1183,2.1273,2.142,0.6769,0.6772,0.6788,0.6792,0.6805,0.679,0.6844,0.6891,0.6891,0.6891,0.6891,0.6891,0.6905,0.6891,0.6887,0.6887,0.6905,0.6887,0.6905,0.6927,0.7237,0.7377,0.7395,0.7744,0.7927,0.7904,0.7904,0.7868,0.7863,0.7863,0.7845,0.7836,0.7675,0.761,0.7635,0.8391,0.882,0.8942,0.922,0.9374,0.9349,0.9343,0.9303,0.9237,0.9208,0.9183,0.9183,0.9402,0.9528,0.955,0.9869,1.0109,1.0246,1.0322,1.0506,0.0,1.0934,0.0,0.0,0.0,0.0,0.0,0.0,0.0,0.0,1.2014,1.2076,1.2221,1.2416,1.258,1.2726,1.2909,1.3086,1.3194,1.3263,1.3538,1.4058,1.4233,1.4501,1.4987,1.5312,1.5502,1.5579,1.5644,1.5788,1.6199,1.6613,1.7042,1.752,1.7703,1.7847,1.7943,1.836,1.8893,1.9392,1.9632,1.9722,1.9761,1.9761,1.9837,1.9927,1.9965,2.0016,2.0118,2.0156,2.0195,2.0321,2.0346,2.0397,2.0548,2.0545,2.0668,2.1101,2.1234,2.1302,0.616,0.616,0.616,0.616,0.6154,0.6164,0.6446,0.6904,0.6901,0.6904,0.6904,0.6904,0.6904,0.6904,0.6901,0.6904,0.6904,0.6904,0.6904,0.6904,0.7117,0.7239,0.7254,0.7477,0.7511,0.7359,0.7351,0.7276,0.7104,0.7104,0.7108,0.7104,0.7071,0.7041,0.7072,0.0,0.0,0.0,0.8657,0.8807,0.906,0.9082,0.919,0.943,0.9239,0.0,0.9123,0.907,0.9084,0.9193,0.9504,0.0,0.0,0.0,0.0,0.0,0.0,0.0,0.0,0.0,0.0,0.0,1.0868,1.0998,1.1406,1.1565,1.1669,1.1803,1.2322,1.2729,1.2857,1.338,1.3716,1.3742,1.386,1.4008,1.4228,1.4288,1.4433,1.4737,1.485,1.5063,1.5527,1.5617,1.5888,1.6507,1.6755,1.7068,1.76,1.8062,1.8461,1.874,1.8887,1.9195,1.954,1.9604,1.9707,1.9772,1.9811,1.9811,1.9849,1.9837,1.9837,1.9875,1.9875,1.9927,2.0067,2.008,2.0131,2.0258,2.0271,2.0372,2.0685,2.0747,2.0759,0.5657,0.0,0.5657,0.5636,0.0,0.566,0.5832,0.6127,0.6368,0.6427,0.6369,0.6394,0.6402,0.6421,0.654,0.6602,0.6602,0.6602,0.6602,0.6602,0.6814,0.6911,0.6911,0.7119,0.7149,0.7048,0.7052,0.7001,0.6897,0.6893,0.6893,0.6893,0.6797,0.6755,0.6769,0.6907,0.7359,0.8104,0.8043,0.8149,0.8484,0.8501,0.8662,0.8979,0.8865,0.0,0.0,0.0,0.0,0.0,0.0,0.0,0.0,0.0,0.0,1.0487,1.0658,1.0801,1.0937,1.08,1.0709,1.0687,1.0564,1.068,1.1073,1.148,1.1727,1.1806,1.2325,1.2712,1.2855,1.327,1.358,1.3657,1.3863,1.4115,1.44,1.4572,1.4797,1.5131,1.524,1.5428,1.57,1.5745,1.5939,1.6368,1.6467,1.6662,1.7205,1.7767,1.8273,1.8659,1.889,1.908,1.9264,1.9499,1.9617,1.9695,1.9759,1.9798,1.9811,1.9811,1.9811,1.9811,1.9811,1.9824,1.9875,1.9888,1.9939,1.9978,2.0003,2.0042,2.0194,2.0321,2.041,0.5115,0.5136,0.5133,0.5133,0.5115,0.5115,0.5112,0.5152,0.0,0.0,0.0,0.581,0.5861,0.5858,0.6139,0.6267,0.6259,0.6279,0.6285,0.6319,0.6467,0.6544,0.6544,0.6714,0.6788,0.6788,0.6788,0.6791,0.6788,0.6788,0.6807,0.6777,0.6621,0.6559,0.6585,0.6562,0.6857,0.7467,0.7389,0.7513,0.7841,0.7811,0.7971,0.8317,0.8317,0.8317,0.8333,0.8651,0.8823,0.884,0.9262,0.9488,0.9497,0.9706,0.9887,0.9989,1.0245,1.0435,1.0544,1.0523,1.048,1.0415,1.0487,1.0607,1.0833,1.1394,1.1744,1.173,1.2248,1.2631,1.2743,1.3119,1.3377,1.3502,1.3823,1.4209,1.4567,1.4874,1.5177,1.5545,1.5686,1.5803,1.5783,1.5797,1.5885,1.6009,1.6042,1.6181,1.6637,1.7228,1.7783,1.8205,1.8462,1.8692,1.8921,1.9225,1.9474,1.9513,1.963,1.9734,1.9747,1.976,1.976,1.9798,1.9811,1.9811,1.9811,1.9811,1.9811,1.9811,1.976,1.976,1.9773,1.9914,2.0067,0.4438,0.446,0.4438,0.4438,0.4438,0.4438,0.4438,0.4491,0.5119,0.5378,0.5383,0.5555,0.5632,0.565,0.5918,0.6078,0.6131,0.6125,0.6185,0.628,0.6338,0.6338,0.6338,0.6374,0.6377,0.6393,0.6393,0.6377,0.6374,0.6396,0.6377,0.6393,0.6356,0.6435,0.6555,0.6427,0.6482,0.6754,0.674,0.6924,0.7302,0.7162,0.7253,0.7619,0.764,0.764,0.7635,0.7954,0.8149,0.8166,0.8742,0.9077,0.9109,0.9623,0.9973,1.0036,1.0459,1.0755,1.0748,1.0651,1.0459,1.0206,1.0424,1.0585,1.0572,1.0893,1.1122,1.1166,1.1984,1.2524,1.2599,1.3327,1.3812,1.3889,1.431,1.461,1.4662,1.4944,1.5177,1.5254,1.5386,1.5468,1.5478,1.5493,1.5561,1.5706,1.5778,1.5865,1.6228,1.6811,1.7371,1.7714,1.7934,1.8195,1.8546,1.8894,1.9107,1.9239,1.9356,1.9499,1.9591,1.9604,1.9643,1.9773,1.9773,1.9785,1.9798,1.9811,1.9773,1.976,1.9695,1.9629,1.9604,1.9604,1.9604,0.3537,0.3539,0.3539,0.3539,0.3539,0.3561,0.3539,0.3576,0.386,0.423,0.4671,0.4937,0.5056,0.5098,0.5452,0.5711,0.5823,0.5823,0.5893,0.6044,0.6143,0.6139,0.6103,0.6219,0.628,0.628,0.628,0.628,0.628,0.628,0.628,0.628,0.628,0.6358,0.6425,0.6339,0.6342,0.6434,0.6447,0.6577,0.6857,0.6703,0.6756,0.7003,0.6945,0.6905,0.6921,0.722,0.74,0.7421,0.8084,0.8457,0.8468,0.9097,0.952,0.961,1.0015,1.0292,1.0364,1.0412,1.0417,1.0358,1.0505,1.0593,1.0554,1.0941,1.1166,1.1188,1.185,1.2283,1.2298,1.2988,1.3452,1.3444,1.3971,1.43,1.435,1.4686,1.4941,1.4946,1.5079,1.521,1.5284,1.5284,1.5357,1.5502,1.5604,1.5759,1.5865,1.621,1.668,1.7117,1.7396,1.7661,1.8059,1.8493,1.8762,1.8869,1.904,1.9211,1.9357,1.9383,1.9435,1.9552,1.9591,1.9591,1.9591,1.9591,1.9591,1.9578,1.9474,1.9384,1.9372,1.9279,1.929,0.2553,0.2555,0.2576,0.2553,0.2555,0.2553,0.2553,0.2553,0.2575,0.2907,0.3511,0.412,0.4369,0.4433,0.4876,0.5204,0.5394,0.5436,0.551,0.5699,0.5899,0.5931,0.5846,0.6071,0.6178,0.6148,0.618,0.6199,0.6219,0.6277,0.628,0.628,0.628,0.628,0.628,0.628,0.628,0.6282,0.6284,0.6379,0.6523,0.6413,0.6395,0.6513,0.6419,0.6344,0.6348,0.6585,0.6749,0.6798,0.74,0.7775,0.7841,0.842,0.8856,0.9059,0.9408,0.9734,0.9942,1.018,1.0371,1.053,1.0577,1.0586,1.0618,1.0933,1.1169,1.1232,1.1616,1.1903,1.1973,1.2436,1.2797,1.2836,1.3376,1.3754,1.3815,1.4234,1.4538,1.4567,1.474,1.4941,1.5044,1.5073,1.5161,1.5318,1.5517,1.5629,1.5658,1.572,1.6019,1.6435,1.6835,1.7176,1.7496,1.7991,1.8331,1.8398,1.8614,1.8827,1.8988,1.9067,1.9133,1.9251,1.9316,1.9316,1.9316,1.9316,1.9316,1.929,1.9185,1.9042,1.8927,1.8831,1.8934,0.1526,0.1524,0.155,0.1525,0.1571,0.1548,0.1548,0.1569,0.1547,0.1569,0.1853,0.3099,0.3652,0.3744,0.4178,0.4555,0.4851,0.4868,0.5042,0.5316,0.5563,0.56,0.5543,0.5731,0.579,0.5711,0.5854,0.5931,0.5941,0.618,0.6277,0.628,0.628,0.628,0.628,0.628,0.628,0.628,0.6292,0.632,0.6318,0.6208,0.6197,0.6329,0.6198,0.6116,0.6129,0.6234,0.6334,0.6449,0.6803,0.7077,0.7302,0.7787,0.8144,0.8317,0.8791,0.9285,0.9766,1.0117,1.0298,1.0333,1.0524,1.0604,1.062,1.0654,1.0726,1.0914,1.1192,1.1373,1.1412,1.1856,1.2189,1.2236,1.2736,1.3111,1.3164,1.3655,1.4061,1.407,1.4315,1.4612,1.4686,1.476,1.4878,1.5147,1.5328,1.5449,1.5459,1.5468,1.558,1.5865,1.6271,1.6726,1.705,1.7454,1.773,1.7797,1.8016,1.8288,1.8506,1.864,1.8721,1.8881,1.8987,1.8987,1.9,1.9052,1.9025,1.8921,1.8774,1.856,1.8304,1.8193,1.8381,0.1,0.1,0.0977,0.097,0.1004,0.097,0.0987,0.0987,0.0987,0.0987,0.1076,0.1792,0.2354,0.2803,0.3272,0.37,0.4094,0.4094,0.4263,0.4602,0.4943,0.5055,0.5015,0.5354,0.5453,0.5342,0.5532,0.5609,0.5624,0.5906,0.606,0.608,0.6199,0.628,0.628,0.628,0.628,0.628,0.628,0.6285,0.627,0.6132,0.6067,0.6086,0.6004,0.5927,0.592,0.6073,0.6117,0.6079,0.6406,0.6626,0.6733,0.7122,0.7515,0.7884,0.8522,0.9006,0.9312,0.9795,1.0121,1.023,1.0652,1.0909,1.0886,1.1002,1.1119,1.1144,1.1061,1.0989,1.1043,1.1373,1.1638,1.17,1.212,1.2467,1.2483,1.3026,1.3407,1.3422,1.3692,1.4007,1.427,1.4538,1.4745,1.4917,1.5123,1.5269,1.5284,1.5347,1.5478,1.5672,1.5933,1.621,1.6591,1.6945,1.7159,1.7298,1.749,1.7739,1.7961,1.8057,1.8152,1.8425,1.8452,1.8466,1.845,1.8466,1.8464,1.8398,1.8232,1.797,1.7634,1.757,1.7798,0.0524,0.0501,0.0501,0.052,0.0513,0.0505,0.0502,0.0502,0.0525,0.0502,0.0525,0.0798,0.1186,0.1731,0.2253,0.2757,0.3183,0.3206,0.3401,0.3811,0.4269,0.4415,0.4326,0.4763,0.4895,0.4844,0.5096,0.5279,0.5362,0.5582,0.5767,0.5847,0.6083,0.6199,0.6199,0.6257,0.628,0.628,0.628,0.628,0.6282,0.6152,0.6091,0.6062,0.5945,0.5846,0.5846,0.5974,0.5973,0.5895,0.6166,0.6339,0.6372,0.6646,0.7054,0.7602,0.8319,0.8782,0.8882,0.9483,0.9908,1.0072,1.0601,1.0936,1.0977,1.1166,1.1303,1.1298,1.1102,1.1002,1.0998,1.1247,1.1407,1.1448,1.1855,1.2104,1.2045,1.2508,1.2849,1.2806,1.3025,1.3344,1.37,1.4151,1.4484,1.4523,1.4804,1.5059,1.5088,1.5225,1.54,1.5527,1.5585,1.5793,1.6187,1.6463,1.6641,1.674,1.6906,1.7113,1.7379,1.7434,1.7534,1.7785,1.7813,1.784,1.784,1.784,1.7822,1.7714,1.7595,1.7422,1.7259,1.717,1.7359,0.0024,0.0,0.0,0.0,0.0,0.0,0.0,0.0,0.0,0.0,0.0,0.0308,0.0451,0.0568,0.1189,0.1773,0.2222,0.2269,0.2511,0.2948,0.342,0.3585,0.3491,0.3919,0.4069,0.3992,0.4402,0.4886,0.5385,0.537,0.5418,0.5624,0.5818,0.5925,0.596,0.6157,0.628,0.628,0.628,0.628,0.6277,0.627,0.6276,0.6243,0.6101,0.6001,0.5988,0.5884,0.5896,0.6072,0.6104,0.6183,0.6307,0.6507,0.685,0.7403,0.813,0.8591,0.8664,0.9272,0.9689,0.9782,1.0253,1.0547,1.0626,1.0956,1.1164,1.1134,1.1306,1.1372,1.1383,1.1496,1.1621,1.1644,1.1943,1.2009,1.1782,1.2208,1.2346,1.2274,1.2476,1.2737,1.3035,1.361,1.3941,1.4091,1.4404,1.4701,1.4745,1.4961,1.5171,1.5244,1.5342,1.5532,1.5856,1.6077,1.6142,1.6243,1.641,1.6495,1.668,1.6878,1.7022,1.7134,1.7204,1.7231,1.7231,1.7211,1.7149,1.7086,1.7055,1.6923,1.7095,1.7039,1.7242,0.0,0.0,0.0,0.0,0.0,0.0,0.0,0.0,0.0,0.0,0.0,0.0,0.0143,0.0167,0.0399,0.0857,0.1443,0.1487,0.1658,0.1975,0.2466,0.2658,0.2686,0.3101,0.3265,0.3209,0.3626,0.4132,0.469,0.4808,0.4995,0.5271,0.5541,0.572,0.5879,0.5999,0.6119,0.6277,0.628,0.628,0.628,0.628,0.628,0.6277,0.6245,0.6199,0.6199,0.6144,0.611,0.6044,0.6041,0.6069,0.618,0.6456,0.667,0.6903,0.7482,0.7841,0.7939,0.8709,0.9258,0.9317,1.0032,1.0464,1.0591,1.0973,1.1299,1.1329,1.16,1.1768,1.175,1.1622,1.1522,1.1549,1.172,1.1863,1.1809,1.2059,1.2259,1.2233,1.2362,1.2491,1.2569,1.2974,1.3331,1.3407,1.3875,1.4189,1.4315,1.4597,1.4872,1.4902,1.5034,1.5191,1.5279,1.5633,1.585,1.5947,1.6072,1.6149,1.6296,1.6357,1.6489,1.6634,1.669,1.6796,1.6863,1.6891,1.6787,1.6873,1.6817,1.6915,1.7083,1.7108,1.7336,0.0,0.0,0.0,0.0,0.0,0.0,0.0,0.0,0.0,0.0,0.0,0.0,0.0,0.0,0.0,0.024,0.0731,0.082,0.0993,0.1202,0.1631,0.1851,0.1907,0.2241,0.2381,0.235,0.2744,0.3313,0.3948,0.4107,0.441,0.4818,0.5182,0.5445,0.5635,0.5852,0.6054,0.6174,0.6238,0.628,0.628,0.628,0.628,0.628,0.628,0.628,0.628,0.628,0.6236,0.6122,0.6086,0.6117,0.6187,0.6434,0.6595,0.665,0.7057,0.7342,0.7446,0.8194,0.87,0.876,0.9553,1.0105,1.0137,1.0719,1.1093,1.126,1.1577,1.1818,1.1864,1.1704,1.1622,1.1693,1.1815,1.1855,1.1791,1.2019,1.2135,1.2144,1.2264,1.2297,1.224,1.2687,1.2901,1.2875,1.3407,1.3765,1.375,1.4121,1.4478,1.4508,1.4695,1.4799,1.4887,1.5123,1.543,1.5566,1.579,1.5857,1.5994,1.6022,1.607,1.6171,1.6286,1.6418,1.651,1.6562,1.6676,1.683,1.689,1.6966,1.7118,1.7243,1.7497,0.0,0.0,0.0,0.0,0.0,0.0,0.0,0.0,0.0,0.0,0.0,0.0,0.0,0.0,0.0,0.0,0.0122,0.0337,0.052,0.0718,0.0993,0.112,0.1148,0.1369,0.1502,0.1496,0.1844,0.2501,0.3319,0.3351,0.3628,0.4262,0.4719,0.4976,0.5103,0.5689,0.5967,0.5973,0.6126,0.6271,0.628,0.628,0.628,0.628,0.628,0.628,0.628,0.628,0.6293,0.6286,0.6263,0.6273,0.63,0.6467,0.66,0.662,0.6969,0.7165,0.7234,0.7746,0.8086,0.8223,0.8837,0.9303,0.943,1.003,1.0537,1.0743,1.1111,1.1446,1.1651,1.1822,1.1991,1.2229,1.2198,1.2145,1.2009,1.2013,1.2056,1.1995,1.2112,1.2214,1.2294,1.2576,1.2771,1.2696,1.3068,1.3424,1.3281,1.3709,1.3999,1.4105,1.4387,1.4638,1.4613,1.464,1.4899,1.515,1.5429,1.5625,1.592,1.6029,1.6153,1.6252,1.6407,1.6548,1.6713,1.6768,1.6888,1.7015,1.7022,1.7145,1.7352,1.7534,1.7648,0.0,0.0,0.0,0.0,0.0,0.0,0.0,0.0,0.0,0.0,0.0,0.0,0.0,0.0,0.0,0.0,0.0,0.0099,0.0,0.0,0.0489,0.0623,0.0663,0.0836,0.1009,0.1165,0.1315,0.1798,0.2438,0.2556,0.2925,0.3597,0.4017,0.4371,0.4759,0.5267,0.5557,0.567,0.5993,0.6126,0.6054,0.6203,0.628,0.628,0.628,0.628,0.628,0.628,0.628,0.628,0.628,0.628,0.63,0.6358,0.6412,0.6412,0.6641,0.6795,0.6834,0.7219,0.7546,0.7733,0.8174,0.8499,0.8713,0.9297,0.9752,0.9997,1.0462,1.0906,1.126,1.1614,1.1873,1.2077,1.2206,1.2271,1.2189,1.2187,1.2121,1.1974,1.2046,1.2044,1.1988,1.2269,1.2451,1.2392,1.2814,1.3092,1.3112,1.3509,1.3969,1.4034,1.4322,1.4465,1.4418,1.4499,1.4785,1.5096,1.5369,1.5631,1.5893,1.6102,1.6227,1.6391,1.6544,1.6707,1.6871,1.7014,1.7152,1.7245,1.7291,1.7484,1.7748,1.7842,1.7881,-0.0151,-0.0151,-0.005,0.0,0.0,0.0,0.0,0.0,0.0,0.0,0.0,0.0,0.0,0.0,0.0,0.0,0.0,0.0,0.0,0.0,0.0143,0.0259,0.028,0.0366,0.0587,0.0786,0.083,0.1166,0.175,0.1884,0.225,0.2883,0.3362,0.3759,0.4195,0.4777,0.515,0.5235,0.5644,0.5869,0.5862,0.6062,0.6199,0.6215,0.6224,0.6253,0.6287,0.628,0.628,0.628,0.628,0.628,0.628,0.63,0.628,0.6315,0.6412,0.649,0.6528,0.6814,0.7026,0.7219,0.7546,0.7848,0.8116,0.8575,0.8956,0.9387,0.986,1.0331,1.0738,1.1223,1.1539,1.1756,1.2102,1.2268,1.2305,1.2305,1.2238,1.2107,1.2132,1.2085,1.204,1.2161,1.2266,1.2272,1.2574,1.2801,1.2875,1.3211,1.3492,1.3733,1.3876,1.4016,1.4172,1.4395,1.4675,1.5037,1.5389,1.5697,1.599,1.6169,1.6311,1.6571,1.6767,1.7032,1.721,1.735,1.7465,1.7519,1.7552,1.7744,1.792,1.7939,1.7969,-0.0429,-0.0353,-0.0126,0.0,0.0,0.0,0.0,0.0,0.0,0.0,0.0,0.0,0.0,0.0,0.0,0.0,0.0,0.0,0.0,0.0,0.0,0.0,0.0,0.0,0.0207,0.0363,0.0406,0.0652,0.1105,0.1258,0.1615,0.2171,0.2747,0.3174,0.347,0.4262,0.4625,0.4599,0.5194,0.552,0.5539,0.585,0.5988,0.6052,0.6127,0.6181,0.627,0.6308,0.6317,0.6303,0.628,0.628,0.628,0.628,0.628,0.628,0.6319,0.6319,0.6354,0.6505,0.6637,0.6718,0.7007,0.7257,0.7522,0.7868,0.8308,0.8813,0.9273,0.9695,1.0143,1.0725,1.1149,1.1484,1.1991,1.2268,1.2305,1.2305,1.2278,1.2285,1.2298,1.2285,1.2236,1.2426,1.2365,1.2286,1.2494,1.2557,1.2567,1.2834,1.3002,1.3253,1.3548,1.3673,1.3862,1.4153,1.4424,1.468,1.5152,1.5656,1.6036,1.6267,1.6526,1.6774,1.6904,1.7221,1.7463,1.7538,1.7643,1.7719,1.7813,1.7971,1.8008,1.8008,1.8008,-0.0783,-0.0404,-0.0328,-0.0177,0.0,0.0,0.0,0.0,0.0,0.0,0.0,0.0,0.0,0.0,0.0,0.0,0.0,0.0,0.0,0.0,0.0,0.0,0.0,0.0,0.0,0.0,0.0,0.0252,0.055,0.0678,0.0944,0.1391,0.193,0.2304,0.2625,0.3442,0.3824,0.3865,0.4582,0.4949,0.4972,0.5424,0.5714,0.5767,0.605,0.6234,0.6288,0.6394,0.6402,0.6306,0.628,0.628,0.628,0.628,0.628,0.628,0.628,0.628,0.63,0.6354,0.6451,0.6583,0.6698,0.683,0.7038,0.7292,0.7638,0.8074,0.8475,0.9013,0.9676,1.0312,1.0962,1.1725,1.2095,1.2286,1.2305,1.2305,1.2305,1.2305,1.2305,1.2305,1.2323,1.2353,1.2356,1.2312,1.2424,1.2591,1.2539,1.2721,1.3014,1.3174,1.3405,1.3462,1.3612,1.3899,1.4145,1.4316,1.4832,1.5523,1.5988,1.6442,1.6743,1.705,1.6906,1.7086,1.7381,1.7571,1.7716,1.7784,1.7879,1.794,1.7991,1.8008,1.8008,-0.1287,-0.0859,-0.053,-0.0328,-0.0151,-0.0025,0.0,0.0,0.0,0.0,0.0,0.0,0.0,0.0,0.0,0.0,0.0,0.0,0.0,0.0,0.0,0.0,0.0,0.0,0.0,0.0,0.0,0.0,0.0233,0.0344,0.0546,0.0839,0.1283,0.1638,0.1905,0.2578,0.3013,0.3155,0.3849,0.4302,0.434,0.492,0.5339,0.5527,0.5849,0.6045,0.6248,0.647,0.6522,0.6392,0.6318,0.628,0.628,0.628,0.628,0.628,0.628,0.628,0.628,0.628,0.6354,0.6451,0.647,0.6583,0.6753,0.6891,0.7099,0.7522,0.7902,0.8437,0.9084,0.9911,1.0825,1.1552,1.2003,1.2206,1.2286,1.2305,1.2305,1.2305,1.2305,1.2305,1.2305,1.2305,1.2305,1.2316,1.237,1.2443,1.2478,1.279,1.2955,1.3035,1.3108,1.3165,1.3226,1.3465,1.3673,1.3875,1.425,1.5018,1.563,1.6184,1.6429,1.662,1.6725,1.689,1.7132,1.7373,1.7545,1.7647,1.7777,1.7889,1.794,1.7923,1.794,-0.1943,-0.1566,-0.0859,-0.048,-0.0353,-0.0151,0.0,0.0,0.0,0.0,0.0,0.0,0.0,0.0,0.0,0.0,0.0,0.0,0.0,0.0,0.0,0.0,0.0,0.0,0.0,0.0,0.0,0.0,0.0,0.0258,0.0325,0.0486,0.0844,0.1084,0.1356,0.1849,0.2159,0.2463,0.306,0.3546,0.382,0.4331,0.4807,0.5212,0.5634,0.5958,0.6325,0.659,0.6664,0.6549,0.6422,0.6362,0.6341,0.6328,0.6311,0.6304,0.6297,0.628,0.628,0.628,0.628,0.6315,0.6315,0.6354,0.6525,0.6602,0.6756,0.7123,0.7522,0.8016,0.8746,0.976,1.07,1.1372,1.1781,1.2058,1.2249,1.2305,1.2305,1.2305,1.2305,1.2305,1.2305,1.2305,1.2305,1.2305,1.2342,1.236,1.2397,1.2526,1.2618,1.2643,1.2735,1.282,1.2904,1.3007,1.3171,1.3368,1.3713,1.4292,1.4919,1.54,1.5709,1.5938,1.6053,1.635,1.6708,1.6959,1.7174,1.7407,1.7503,1.7691,1.7854,1.782,1.7803,-0.2748,-0.1866,-0.1489,-0.0985,-0.0455,-0.0328,-0.0202,0.0,0.0,0.0,0.0,0.0,0.0,0.0,0.0,0.0,0.0,0.0,0.0,0.0,0.0,0.0,0.0,0.0,0.0,0.0,0.0,0.0,0.0,0.0,0.0,0.0,0.0399,0.056,0.0714,0.1126,0.1435,0.1711,0.2223,0.2718,0.3162,0.3719,0.4221,0.4683,0.548,0.6182,0.658,0.6789,0.6843,0.6782,0.6674,0.66,0.658,0.6501,0.6454,0.643,0.6348,0.6294,0.6287,0.6307,0.628,0.6313,0.6317,0.6319,0.6335,0.6374,0.649,0.6756,0.7119,0.7806,0.8899,0.9898,1.0663,1.126,1.1725,1.2083,1.2243,1.2305,1.2305,1.2305,1.2305,1.2305,1.2305,1.2305,1.2305,1.2305,1.2305,1.2305,1.2323,1.236,1.2378,1.2434,1.247,1.2581,1.2618,1.2709,1.2856,1.2991,1.3284,1.3539,1.4165,1.4579,1.4848,1.5133,1.5391,1.5727,1.6123,1.635,1.6533,1.6855,1.7193,1.7348,1.7478,1.7529,1.7632,-0.3602,-0.2696,-0.2043,-0.1464,-0.096,-0.0556,-0.0328,-0.0177,-0.005,0.0,0.0,0.0,0.0,0.0,0.0,0.0,0.0,0.0,0.0,0.0,0.0,0.0,0.0,0.0,0.0,0.0,0.0,0.0,0.0,0.0,0.0,0.0,0.0,0.0308,0.0376,0.0634,0.0864,0.1109,0.1463,0.1912,0.2409,0.2948,0.376,0.4498,0.5505,0.6282,0.6574,0.6874,0.6969,0.6964,0.6924,0.6809,0.6715,0.6627,0.6607,0.6563,0.6542,0.6488,0.6488,0.6484,0.646,0.6382,0.6399,0.6354,0.632,0.628,0.6338,0.6505,0.6907,0.7595,0.8875,0.9728,1.0457,1.113,1.1607,1.1972,1.2212,1.2305,1.2305,1.2305,1.2305,1.2305,1.2305,1.2305,1.2305,1.2305,1.2305,1.2305,1.2305,1.2323,1.2323,1.2342,1.2323,1.2342,1.236,1.2452,1.2599,1.2728,1.2874,1.3065,1.3393,1.3713,1.3967,1.4338,1.4732,1.5089,1.5453,1.5665,1.5982,1.6412,1.6743,1.6916,1.7089,1.721,1.7331,-0.4508,-0.3654,-0.2671,-0.2018,-0.1591,-0.0909,-0.053,-0.0353,-0.0151,0.0,0.0,0.0,0.0,0.0,0.0,0.0,0.0,0.0,0.0,0.0,0.0,0.0,0.0,0.0,0.0,0.0,0.0,0.0,0.0,0.0,0.0,0.0,0.0,0.0,0.0288,0.0335,0.0477,0.071,0.0936,0.1301,0.1807,0.2326,0.3225,0.4567,0.5483,0.6124,0.6454,0.6817,0.7107,0.7117,0.7117,0.6982,0.6823,0.6739,0.6736,0.6711,0.6692,0.6675,0.6665,0.6682,0.6617,0.6529,0.6525,0.6477,0.6396,0.6348,0.6354,0.6509,0.6844,0.7514,0.8585,0.9482,1.025,1.0962,1.1465,1.1855,1.2187,1.2305,1.2305,1.2305,1.2305,1.2305,1.2305,1.2305,1.2305,1.2305,1.2305,1.2305,1.2305,1.2305,1.2305,1.2305,1.2305,1.2305,1.2323,1.2323,1.2452,1.2507,1.2618,1.2691,1.2808,1.2966,1.3306,1.3749,1.4147,1.4489,1.4776,1.5026,1.5417,1.5938,1.6184,1.6272,1.6525,1.6873,1.6994,-0.5188,-0.4212,-0.3604,-0.2798,-0.1968,-0.154,-0.101,-0.0455,-0.0353,-0.0202,0.0,0.0,0.0,0.0,0.0,0.0,0.0,0.0,0.0,0.0,0.0,0.0,0.0,0.0,0.0,0.0,0.0,0.0,0.0,0.0,0.0,0.0,0.0,0.0,0.0,0.0073,0.0218,0.0409,0.0548,0.0878,0.1465,0.214,0.3078,0.4575,0.5434,0.5975,0.6432,0.683,0.7117,0.7117,0.7117,0.7065,0.7009,0.6918,0.6874,0.685,0.6776,0.6759,0.6753,0.6725,0.6698,0.6664,0.6661,0.6675,0.661,0.6549,0.6511,0.6684,0.7079,0.7761,0.8604,0.9435,1.0218,1.0925,1.1446,1.1848,1.2176,1.2305,1.2305,1.2305,1.2305,1.2305,1.2305,1.2305,1.2305,1.2305,1.2305,1.2305,1.2305,1.2305,1.2305,1.2305,1.2305,1.2305,1.2305,1.2305,1.2342,1.236,1.2415,1.2415,1.247,1.2415,1.2666,1.3167,1.3521,1.3829,1.4111,1.4382,1.4776,1.524,1.5417,1.5559,1.5912,1.6263,1.6577,-0.5942,-0.5142,-0.4359,-0.3553,-0.2798,-0.2094,-0.1439,-0.0833,-0.0505,-0.0252,0.0,0.0,0.0,0.0,0.0,0.0,0.0,0.0,0.0,0.0,0.0,0.0,0.0,0.0,0.0,0.0,0.0,0.0,0.0,0.0,0.0,0.0,0.0,0.0,0.0,0.0,0.0,0.0,0.0,0.0508,0.1207,0.2018,0.3325,0.4371,0.5355,0.5961,0.6393,0.6852,0.7095,0.7117,0.7117,0.7117,0.7075,0.7041,0.6991,0.6974,0.6938,0.6901,0.6904,0.6904,0.6884,0.6827,0.6799,0.6773,0.6712,0.6675,0.6716,0.7002,0.7299,0.7954,0.8796,0.9488,1.0223,1.0943,1.1484,1.1899,1.2182,1.2281,1.2351,1.2365,1.2351,1.2351,1.2305,1.2305,1.2305,1.2305,1.2305,1.2305,1.2305,1.2305,1.2305,1.2305,1.2305,1.2305,1.2305,1.2305,1.2305,1.2305,1.2305,1.2305,1.2305,1.2323,1.2378,1.2654,1.2955,1.3247,1.351,1.3811,1.4191,1.4533,1.4713,1.4945,1.5319,1.5656,1.5965,-0.6631,-0.605,-0.5143,-0.4392,-0.3718,-0.2778,-0.2017,-0.1379,-0.0818,-0.0408,-0.0102,0.0,0.0,0.0,0.0,0.0,0.0,0.0,0.0,0.0,0.0,0.0,0.0,0.0,0.0,0.0,0.0,0.0,0.0,0.0,0.0,0.0,0.0,0.0,0.0,0.0,0.0,0.0,0.0,0.0,0.1125,0.2271,0.3465,0.4419,0.5386,0.6077,0.6454,0.6868,0.7076,0.7117,0.7117,0.7117,0.7117,0.7117,0.7117,0.7117,0.7117,0.7117,0.7107,0.7097,0.7011,0.6933,0.6951,0.688,0.6831,0.6832,0.6899,0.7312,0.7646,0.8125,0.8959,0.9681,1.0374,1.1069,1.1626,1.201,1.2345,1.2529,1.2612,1.2579,1.2485,1.2418,1.2392,1.2305,1.2305,1.2305,1.2305,1.2305,1.2305,1.2305,1.2305,1.2305,1.2305,1.2305,1.2305,1.2305,1.2305,1.2305,1.2305,1.2305,1.2305,1.2305,1.2378,1.2434,1.2507,1.2801,1.301,1.3236,1.3575,1.3866,1.4054,1.4317,1.4713,1.5044,1.5364,-0.7135,-0.652,-0.6133,-0.5462,-0.456,-0.3878,-0.304,-0.2034,-0.1425,-0.0865,-0.0311,0.0,0.0,0.0,0.0,0.0,0.0,0.0,0.0,0.0,0.0,0.0,0.0,0.0,0.0,0.0,0.0,0.0,0.0,0.0,0.0,0.0,0.0,0.0,0.0,0.0,0.0,0.0,0.0,0.0,0.1453,0.2547,0.3604,0.4585,0.5448,0.6159,0.6587,0.6956,0.7119,0.7117,0.7117,0.7117,0.7117,0.7117,0.7117,0.7117,0.7117,0.7117,0.7117,0.7117,0.7114,0.7048,0.7073,0.7055,0.7006,0.6943,0.7024,0.7355,0.7729,0.8315,0.9122,0.9978,1.075,1.1393,1.1944,1.2387,1.2733,1.2795,1.2879,1.2913,1.2852,1.2632,1.2505,1.2392,1.2305,1.2305,1.2311,1.2311,1.2305,1.2305,1.2305,1.2305,1.2305,1.2305,1.2305,1.2305,1.2305,1.2305,1.2305,1.2305,1.2305,1.2305,1.2305,1.2342,1.2378,1.2434,1.268,1.29,1.3065,1.3247,1.3484,1.3775,1.4101,1.4436,1.483,-0.784,-0.74,-0.68,-0.612,-0.5367,-0.4519,-0.3459,-0.2423,-0.1624,-0.0955,-0.0422,0.0,0.0,0.0,0.0,0.0,0.0,0.0,0.0,0.0,0.0,0.0,0.0,0.0,0.0,0.0,0.0,0.0,0.0,0.0,0.0,0.0,0.0,0.0,0.0,0.0,0.0,0.0,0.0,0.0,0.2049,0.3035,0.4071,0.5059,0.5865,0.6415,0.6804,0.7096,0.7198,0.7151,0.7117,0.7117,0.7117,0.7117,0.7117,0.7117,0.7117,0.7117,0.7117,0.7117,0.7117,0.7117,0.7117,0.711,0.7078,0.706,0.7205,0.7658,0.7829,0.8346,0.9116,0.9824,1.0547,1.1284,1.2085,1.2535,1.2895,1.3074,1.3146,1.3186,1.3206,1.3006,1.2793,1.2699,1.2572,1.2406,1.2405,1.2378,1.2345,1.2305,1.2305,1.2305,1.2305,1.2305,1.2305,1.2305,1.2305,1.2305,1.2311,1.2311,1.2305,1.2305,1.2397,1.2358,1.235,1.2399,1.2479,1.2599,1.2808,1.2874,1.2948,1.3313,1.3684,1.4119,1.4633,-0.8461,-0.8225,-0.7499,-0.6837,-0.6219,-0.5221,-0.4151,-0.3023,-0.2079,-0.1292,-0.0643,0.0,0.0,0.0,0.0,0.0,0.0,0.0,0.0,0.0,0.0,0.0,0.0,0.0,0.0,0.0,0.0,0.0,0.0,0.0,0.0,0.0,0.0,0.0,0.0,0.0,0.0,0.0,0.0783,0.1513,0.2392,0.3399,0.4443,0.5384,0.616,0.6756,0.7083,0.7326,0.7334,0.7238,0.7192,0.7181,0.7131,0.7117,0.7117,0.7117,0.7117,0.7117,0.7117,0.7117,0.7117,0.7117,0.7117,0.7117,0.7117,0.7117,0.725,0.7705,0.7936,0.8408,0.9096,0.975,1.0543,1.1335,1.2083,1.253,1.2963,1.3265,1.35,1.3594,1.3581,1.3433,1.3247,1.31,1.2899,1.2606,1.2518,1.2497,1.2438,1.2405,1.2345,1.2358,1.2326,1.232,1.2331,1.2325,1.2318,1.2358,1.2383,1.2417,1.2477,1.2563,1.2688,1.2583,1.2478,1.2611,1.2822,1.2687,1.2544,1.2599,1.2691,1.2936,1.3284,1.3797,1.4487,-0.8851,-0.8817,-0.8378,-0.7765,-0.7033,-0.6435,-0.543,-0.4112,-0.3035,-0.1988,-0.1009,0.0,0.0,0.0,0.0,0.0,0.0,0.0,0.0,0.0,0.0,0.0,0.0,0.0,0.0,0.0,0.0,0.0,0.0,0.0,0.0,0.0,0.0,0.0,0.0,0.0,0.0,0.0404,0.096,0.1666,0.2546,0.3528,0.4576,0.5526,0.6249,0.6831,0.734,0.7509,0.7516,0.7389,0.7356,0.729,0.7222,0.7198,0.7198,0.7164,0.7158,0.7148,0.7105,0.7117,0.7117,0.7117,0.7117,0.7117,0.7117,0.7117,0.7275,0.7547,0.7826,0.8394,0.9183,0.9986,1.0527,1.1266,1.1943,1.2645,1.3116,1.3591,1.3838,1.3974,1.3928,1.374,1.3667,1.3514,1.322,1.2927,1.287,1.2842,1.2703,1.2624,1.2472,1.2418,1.238,1.2366,1.2346,1.2393,1.2552,1.2623,1.2661,1.2721,1.2769,1.2862,1.2929,1.2971,1.2899,1.3026,1.306,1.2876,1.2653,1.2409,1.2493,1.2923,1.3462,1.407,1.4676,-0.8909,-0.8902,-0.8738,-0.8195,-0.7382,-0.6626,-0.5622,-0.4423,-0.322,-0.1955,-0.0776,-0.0382,-0.0136,0.0,0.0,0.0,0.0,0.0,0.0,0.0,0.0,0.0,0.0,0.0,0.0,0.0,0.0,0.0,0.0,0.0,0.0,0.0,0.0,0.0,0.0,0.0,0.0,0.0682,0.1212,0.1892,0.2927,0.3956,0.501,0.6027,0.6636,0.7159,0.7576,0.7691,0.7648,0.7553,0.7519,0.7461,0.7384,0.7374,0.7334,0.7295,0.7282,0.7222,0.7122,0.7109,0.7117,0.7117,0.7117,0.7117,0.7117,0.7117,0.7231,0.7477,0.7657,0.8138,0.8807,0.9419,1.0026,1.0933,1.1779,1.2555,1.3115,1.3546,1.387,1.3886,1.3992,1.3995,1.3927,1.3887,1.356,1.3253,1.3212,1.3163,1.3018,1.2904,1.2752,1.2692,1.2685,1.2726,1.2726,1.2779,1.2839,1.2883,1.2908,1.2997,1.3045,1.3052,1.3126,1.32,1.326,1.3273,1.32,1.3013,1.2859,1.2752,1.2862,1.315,1.3725,1.4313,1.4906,-0.8909,-0.8909,-0.8909,-0.8491,-0.7798,-0.7018,-0.604,-0.4953,-0.3779,-0.2241,-0.07,-0.0499,-0.0248,0.0,0.0,0.0,0.0,0.0,0.0,0.0,0.0,0.0,0.0,0.0,0.0,0.0,0.0,0.0,0.0,0.0,0.0,0.0,0.0,0.0,0.0,0.0,0.0,0.0808,0.1387,0.2143,0.3179,0.4234,0.5286,0.6262,0.6877,0.7369,0.7699,0.7854,0.778,0.7712,0.7658,0.7634,0.7611,0.7584,0.7539,0.7502,0.7447,0.7377,0.7276,0.7136,0.7127,0.7117,0.7117,0.7117,0.7117,0.7121,0.7209,0.7323,0.7459,0.7768,0.8438,0.9052,0.9733,1.0619,1.1478,1.2229,1.2747,1.32,1.3525,1.3758,1.3843,1.3927,1.3971,1.3931,1.3888,1.3587,1.346,1.3413,1.3327,1.3213,1.3093,1.3053,1.3073,1.3126,1.318,1.3113,1.3053,1.3092,1.3152,1.326,1.332,1.3333,1.3447,1.3594,1.3607,1.35,1.3474,1.3474,1.334,1.3167,1.3305,1.3448,1.3848,1.4423,1.5064,-0.8909,-0.8909,-0.8909,-0.874,-0.8374,-0.7826,-0.699,-0.5984,-0.4784,-0.3165,-0.1346,-0.0755,-0.0308,0.0,0.0,0.0,0.0,0.0,0.0,0.0,0.0,0.0,0.0,0.0,0.0,0.0,0.0,0.0,0.0,0.0,0.0,0.0,0.0,0.0,0.0,0.0,0.0,0.0808,0.1337,0.2169,0.3179,0.4259,0.5311,0.6262,0.6914,0.7415,0.7824,0.7938,0.7895,0.7814,0.7787,0.7743,0.7665,0.7668,0.7638,0.7604,0.7594,0.758,0.7556,0.7279,0.7192,0.7192,0.7225,0.7192,0.7125,0.7134,0.7127,0.7245,0.7345,0.7654,0.8223,0.8793,0.9471,1.0185,1.1025,1.1779,1.2272,1.2726,1.3024,1.344,1.361,1.3716,1.38,1.3906,1.4033,1.3929,1.3742,1.3641,1.358,1.3554,1.3467,1.3453,1.3467,1.346,1.3474,1.334,1.328,1.332,1.3414,1.3547,1.3674,1.3741,1.3854,1.3981,1.3921,1.3788,1.3922,1.4049,1.3781,1.3527,1.3594,1.3764,1.4116,1.4607,1.5315,-0.8909,-0.8909,-0.8909,-0.8854,-0.8657,-0.7909,-0.7213,-0.6348,-0.4868,-0.3304,-0.199,-0.1262,-0.0701,-0.0364,0.0,0.0,0.0,0.0,0.0,0.0,0.0,0.0,0.0,0.0,0.0,0.0,0.0,0.0,0.0,0.0,0.0,0.0,0.0,0.0,0.0,0.0,0.0,0.0808,0.1363,0.2118,0.3179,0.4259,0.5311,0.6337,0.6914,0.7437,0.7939,0.7988,0.7951,0.7929,0.7915,0.7888,0.7844,0.7837,0.7804,0.777,0.7736,0.7689,0.7628,0.7459,0.7435,0.7421,0.7391,0.737,0.7319,0.7295,0.7222,0.7161,0.7253,0.7491,0.7764,0.823,0.8841,0.9541,1.0316,1.1111,1.1671,1.2079,1.2464,1.2988,1.3313,1.3483,1.361,1.38,1.3976,1.4067,1.3881,1.3903,1.3874,1.3908,1.3874,1.3874,1.3889,1.3834,1.3774,1.3647,1.3627,1.3708,1.3795,1.3915,1.4008,1.4021,1.4028,1.4035,1.4083,1.4109,1.4109,1.4096,1.4021,1.3917,1.4022,1.4144,1.4436,1.5025,1.5788,-0.8909,-0.8909,-0.8909,-0.8909,-0.8799,-0.8186,-0.7438,-0.6376,-0.4868,-0.3501,-0.2438,-0.1738,-0.1065,-0.0533,-0.0224,-0.0056,0.0,0.0,0.0,0.0,0.0,0.0,0.0,0.0,0.0,0.0,0.0,0.0,0.0,0.0,0.0,0.0,0.0,0.0,0.0,0.0,0.0252,0.0783,0.1363,0.2118,0.3177,0.4234,0.5311,0.6237,0.6914,0.7441,0.7839,0.7988,0.7988,0.7988,0.7988,0.7988,0.7988,0.7975,0.7962,0.7891,0.7858,0.7817,0.776,0.7739,0.7726,0.7729,0.7675,0.7556,0.7495,0.7455,0.7407,0.7327,0.7269,0.7405,0.763,0.8065,0.8534,0.9251,0.9782,1.0565,1.0975,1.1386,1.1801,1.2344,1.2796,1.3052,1.3419,1.3695,1.3891,1.3976,1.4033,1.4067,1.4088,1.4088,1.4088,1.4096,1.4083,1.4016,1.3975,1.3975,1.3988,1.4089,1.4109,1.4109,1.4103,1.4062,1.4096,1.4109,1.4109,1.4109,1.4109,1.4089,1.4056,1.4245,1.4504,1.4643,1.4824,1.5427,1.6149,-0.8909,-0.8909,-0.8909,-0.8909,-0.8854,-0.8543,-0.7651,-0.629,-0.512,-0.3918,-0.2773,-0.2186,-0.1402,-0.0589,-0.042,-0.0224,0.0,0.0,0.0,0.0,0.0,0.0,0.0,0.0,0.0,0.0,0.0,0.0,0.0,0.0,0.0,0.0,0.0,0.0,0.0,0.0,0.0,0.0783,0.1363,0.217,0.3179,0.4234,0.5311,0.6212,0.6914,0.7441,0.7814,0.7988,0.7988,0.7988,0.7988,0.7988,0.7988,0.7988,0.7988,0.7985,0.8,0.7979,0.7938,0.7921,0.7928,0.7902,0.778,0.7665,0.7611,0.76,0.756,0.7533,0.7495,0.7646,0.7857,0.8185,0.8536,0.9015,0.9429,0.9906,1.0262,1.0656,1.105,1.1527,1.1995,1.239,1.2966,1.3328,1.361,1.3779,1.3843,1.3955,1.3997,1.4082,1.4082,1.4109,1.4103,1.4103,1.4109,1.4109,1.4109,1.4109,1.4109,1.4109,1.4109,1.4116,1.4109,1.4109,1.4109,1.4109,1.4109,1.4124,1.4159,1.4419,1.4699,1.495,1.5061,1.5699,1.6432,-0.8909,-0.8909,-0.8909,-0.8909,-0.8881,-0.8626,-0.7903,-0.6904,-0.6096,-0.5118,-0.392,-0.2884,-0.1934,-0.1037,-0.0589,-0.028,0.0,0.0,0.0,0.0,0.0,0.0,0.0,0.0,0.0,0.0,0.0,0.0,0.0,0.0,0.0,0.0,0.0,0.0,0.0,0.0,0.0,0.0808,0.1337,0.2195,0.3179,0.4234,0.5311,0.6237,0.6911,0.7437,0.7839,0.7988,0.7988,0.7988,0.7988,0.7988,0.7988,0.7988,0.7988,0.7988,0.7985,0.7985,0.7988,0.7988,0.7988,0.7988,0.7912,0.7862,0.7794,0.7743,0.7712,0.7689,0.7665,0.775,0.7845,0.8124,0.8367,0.8664,0.9053,0.9409,0.9723,0.996,1.0373,1.0907,1.1352,1.1904,1.2478,1.2924,1.32,1.3434,1.3646,1.3773,1.3927,1.4018,1.4082,1.4088,1.4109,1.4109,1.4109,1.4109,1.4109,1.4109,1.4115,1.4142,1.4148,1.4148,1.4129,1.4136,1.4168,1.4156,1.4109,1.4124,1.4166,1.4461,1.4734,1.5027,1.5402,1.6072,1.6751,-0.8909,-0.8909,-0.8909,-0.8909,-0.8881,-0.874,-0.8263,-0.7623,-0.6821,-0.5764,-0.4592,-0.3639,-0.2633,-0.1682,-0.1065,-0.0589,0.0,0.0,0.0,0.0,0.0,0.0,0.0,0.0,0.0,0.0,0.0,0.0,0.0,0.0,0.0,0.0,0.0,0.0,0.0,0.0,0.0,0.0808,0.1413,0.2195,0.3177,0.4234,0.5311,0.6237,0.6886,0.7437,0.7892,0.7988,0.7988,0.7988,0.7988,0.7988,0.7988,0.7988,0.7988,0.7988,0.7988,0.7988,0.7988,0.7988,0.7988,0.7988,0.7988,0.7938,0.7918,0.7875,0.7837,0.7804,0.778,0.7787,0.7876,0.7959,0.8112,0.8282,0.8615,0.8969,0.9137,0.9301,0.9781,1.0316,1.0858,1.1424,1.1948,1.242,1.2811,1.3067,1.3364,1.3639,1.3815,1.3976,1.406,1.4109,1.4109,1.4109,1.4116,1.415,1.4163,1.4188,1.4269,1.4282,1.4262,1.4349,1.4471,1.4404,1.4282,1.4249,1.4215,1.4136,1.4194,1.4517,1.4915,1.5325,1.5829,1.6498,1.7168,-0.8909,-0.8909,-0.8909,-0.8909,-0.8909,-0.8881,-0.8712,-0.8374,-0.7324,-0.6126,-0.5069,-0.4309,-0.3305,-0.2214,-0.1486,-0.0869,-0.042,0.0,0.0,0.0,0.0,0.0,0.0,0.0,0.0,0.0,0.0,0.0,0.0,0.0,0.0,0.0,0.0,0.0,0.0,0.0,0.0,0.0682,0.1287,0.2018,0.3102,0.4183,0.5236,0.6187,0.6836,0.7388,0.7817,0.7967,0.7988,0.7988,0.7988,0.7988,0.7988,0.7988,0.7988,0.7988,0.7988,0.7988,0.7988,0.7988,0.7988,0.7988,0.7988,0.7978,0.7955,0.7966,0.7929,0.7922,0.7898,0.7895,0.794,0.8007,0.8126,0.8212,0.8429,0.8664,0.8774,0.8957,0.9279,0.9811,1.0261,1.0833,1.1381,1.1861,1.2455,1.2722,1.3151,1.3492,1.3801,1.4028,1.4098,1.4155,1.4123,1.415,1.4215,1.4242,1.4257,1.4289,1.4436,1.4516,1.4556,1.4705,1.4859,1.4725,1.4571,1.4436,1.4362,1.4317,1.4399,1.4726,1.5168,1.5665,1.6247,1.6895,1.7548,-0.8909,-0.8909,-0.8909,-0.8909,-0.8909,-0.8909,-0.8768,-0.846,-0.7934,-0.7043,-0.5903,-0.4841,-0.3751,-0.2689,-0.1794,-0.1093,-0.0504,0.0,0.0,0.0,0.0,0.0,0.0,0.0,0.0,0.0,0.0,0.0,0.0,0.0,0.0,0.0,0.0,0.0,0.0,0.0,0.0,0.0583,0.1064,0.1795,0.2774,0.3731,0.4684,0.5687,0.6464,0.7141,0.7568,0.7917,0.7963,0.7988,0.7988,0.7988,0.7988,0.7988,0.7988,0.7988,0.7988,0.7988,0.7988,0.7988,0.7988,0.7988,0.7988,0.7988,0.7985,0.7988,0.7988,0.7988,0.7988,0.7988,0.8013,0.8056,0.8124,0.8195,0.8269,0.8353,0.8443,0.8647,0.8879,0.9261,0.9688,1.02,1.0763,1.1337,1.1978,1.258,1.3153,1.3601,1.3989,1.4244,1.4258,1.4299,1.4162,1.419,1.4309,1.4429,1.4484,1.4618,1.4792,1.4845,1.4885,1.5006,1.5126,1.4992,1.4852,1.473,1.4629,1.4536,1.4679,1.5012,1.5347,1.581,1.6508,1.718,1.787,-0.8909,-0.8909,-0.8909,-0.8909,-0.8909,-0.8909,-0.8795,-0.8629,-0.8349,-0.7737,-0.6768,-0.5624,-0.4479,-0.3388,-0.2381,-0.1458,-0.0841,-0.0364,0.0,0.0,0.0,0.0,0.0,0.0,0.0,0.0,0.0,0.0,0.0,0.0,0.0,0.0,0.0,0.0,0.0,0.0,0.0129,0.0435,0.0818,0.1478,0.238,0.3355,0.4485,0.5486,0.6237,0.6892,0.7419,0.7768,0.7867,0.7963,0.7988,0.7988,0.7988,0.7988,0.7988,0.7988,0.7988,0.7988,0.7988,0.7988,0.7988,0.7988,0.7988,0.7988,0.7988,0.7988,0.7988,0.7988,0.7988,0.7988,0.7988,0.8035,0.8035,0.8092,0.811,0.8167,0.8276,0.8423,0.8529,0.864,0.9072,0.9535,1.0033,1.0457,1.1146,1.2041,1.2694,1.3504,1.393,1.4475,1.4492,1.4548,1.4501,1.4504,1.4671,1.4752,1.4778,1.4932,1.5142,1.524,1.5297,1.5331,1.5344,1.5224,1.5124,1.5044,1.4943,1.483,1.5021,1.5362,1.5626,1.594,1.6679,1.7376,1.7982,-0.8909,-0.8909,-0.8909,-0.8909,-0.8909,-0.8909,-0.8909,-0.8854,-0.8626,-0.8211,-0.7604,-0.6487,-0.5483,-0.4395,-0.3361,-0.2353,-0.1457,-0.0785,-0.0392,-0.014,0.0,0.0,0.0,0.0,0.0,0.0,0.0,0.0,0.0,0.0,0.0,0.0,0.0,0.0,0.0,0.0,0.0132,0.0314,0.065,0.1033,0.1969,0.3033,0.416,0.5158,0.6009,0.6689,0.7216,0.7618,0.7743,0.7892,0.7988,0.7988,0.7988,0.7988,0.7988,0.7988,0.7988,0.7988,0.7988,0.7988,0.7988,0.7988,0.7988,0.7988,0.7988,0.7988,0.7988,0.7988,0.7988,0.7988,0.7988,0.7988,0.7988,0.7988,0.8013,0.8013,0.8131,0.8226,0.8238,0.8208,0.8583,0.9037,0.946,0.9869,1.0594,1.1466,1.228,1.3055,1.3802,1.4461,1.4819,1.4969,1.5074,1.5084,1.5073,1.5046,1.5066,1.5231,1.5411,1.5568,1.5675,1.5601,1.5565,1.5475,1.5404,1.5344,1.5237,1.5117,1.5372,1.5609,1.5796,1.606,1.6678,1.7368,1.7967,-0.8909,-0.8909,-0.8909,-0.8909,-0.8909,-0.8909,-0.8909,-0.8854,-0.8626,-0.8401,-0.8097,-0.7321,-0.6181,-0.4789,-0.3867,-0.2914,-0.1934,-0.1206,-0.0673,-0.0364,-0.014,0.0,0.0,0.0,0.0,0.0,0.0,0.0,0.0,0.0,0.0,0.0,0.0,0.0,0.0,0.0,0.0,0.0,0.0398,0.0765,0.1411,0.2395,0.3335,0.4307,0.5233,0.6087,0.6817,0.7369,0.7693,0.7914,0.7988,0.7988,0.7988,0.7988,0.7988,0.7988,0.7988,0.7988,0.7988,0.7988,0.7988,0.7988,0.7988,0.7988,0.7988,0.7988,0.7988,0.7988,0.7988,0.7988,0.7988,0.7988,0.7988,0.7988,0.8013,0.8013,0.8059,0.8109,0.8124,0.8192,0.8403,0.8896,0.9425,0.9962,1.0658,1.1538,1.244,1.3229,1.4126,1.4658,1.5089,1.5321,1.5528,1.5491,1.5371,1.5324,1.5357,1.5545,1.5641,1.5708,1.5755,1.5781,1.5721,1.5641,1.5661,1.5648,1.5551,1.5384,1.5512,1.5711,1.5859,1.6169,1.6747,1.7317,1.7904]},{"header":{"parameterUnit":"m.s-1","parameterCategory":1,"la1":31.0,"la2":29.5877,"lo1":-88.7671,"lo2":-86.6584,"dy":0.0162,"dx":0.0185,"nx":115,"ny":88,"refTime":"2023-05-10T12:00:00:Z","depth":0,"parameterNumber":3,"parameterNumberName":"V-component_of_WINDS"},"data":[0.0,0.0,0.0,0.0,0.0,0.0,0.0,0.0,0.0,0.0,0.0,0.0,0.0,0.0,0.0,0.0,0.0,0.0,0.0,0.0,0.0,0.0,0.0,0.0,0.0,0.0,0.0,0.0,0.0,0.0,0.0,0.0,0.0,0.0,0.0,0.0,0.0,0.0,0.0,0.0,0.0,0.0,0.0,0.0,0.0,0.0,0.0,0.0,0.0,0.0,0.0,0.0,0.0,0.0,0.0,0.0,0.0,0.0,0.0,0.0,0.0,0.0,0.0,0.0,0.0,0.0,0.0,0.0,0.0,0.0,0.0,0.0,0.0,0.0,0.0,0.0,0.0,0.0,0.0,0.0,0.0,0.0,0.0,0.0,0.0,0.0,0.0,0.0,0.0,0.0,0.0,0.0,0.0,0.0,0.0,0.0,0.0,0.0,0.0,0.0,0.0,0.0,0.0,0.0,0.0,0.0,0.0,0.0,0.0,0.0,0.0,0.0,0.0,0.0,0.0,0.0,0.0,0.0,0.0,0.0,0.0,0.0,0.0,0.0,0.0,0.0,0.0,0.0,0.0,0.0,0.0,0.0,0.0,0.0,0.0,0.0,0.0,0.0,0.0,0.0,0.0,0.0,0.0,0.0,0.0,0.0,0.0,0.0,0.0,0.0,0.0,0.0,0.0,0.0,0.0,0.0,0.0,0.0,0.0,0.0,0.0,0.0,0.0,0.0,0.0,0.0,0.0,0.0,0.0,0.0,0.0,0.0,0.0,0.0,0.0,0.0,0.0,0.0,0.0,0.0,0.0,0.0,0.0,0.0,0.0,0.0,0.0,0.0,0.0,0.0,0.0,0.0,0.0,0.0,0.0,0.0,0.0,0.0,0.0,0.0,0.0,0.0,0.0,0.0,0.0,0.0,0.0,0.0,0.0,0.0,0.0,0.0,0.0,0.0,0.0,0.0,0.0,0.0,0.0,0.0,0.0,0.0,0.0,0.0,0.0,0.0,0.0,0.0,0.0,0.0,0.0,0.0,0.0,0.0,0.0,0.0,0.0,0.0,0.0,0.0,0.0,0.0,0.0,0.0,0.0,0.0,0.0,0.0,0.0,0.0,0.0,0.0,0.0,0.0,0.0,0.0,0.0,0.0,0.0,0.0,0.0,0.0,0.0,0.0,0.0,0.0,0.0,0.0,0.0,0.0,0.0,0.0,0.0,0.0,0.0,0.0,0.0,0.0,0.0,0.0,0.0,0.0,0.0,0.0,0.0,0.0,0.0,0.0,0.0,0.0,0.0,0.0,0.0,0.0,0.0,0.0,0.0,0.0,0.0,0.0,0.0,0.0,0.0,0.0,0.0,0.0,0.0,0.0,0.0,0.0,0.0,0.0,0.0,0.0,0.0,0.0,0.0,0.0,0.0,0.0,0.0,0.0,0.0,0.0,0.0,0.0,0.0,0.0,0.0,0.0,0.0,0.0,0.0,0.0,0.0,0.0,0.0,0.0,0.0,0.0,0.0,0.0,0.0,0.0,0.0,0.0,0.0,0.0,0.0,0.0,0.0,0.0,0.0,0.0,0.0,0.0,0.0,0.0,0.0,0.0,0.0,0.0,0.0,0.0,0.0,0.0,0.0,0.0,0.0,0.0,0.0,0.0,0.0,0.0,0.0,0.0,0.0,0.0,0.0,0.0,0.0,0.0,0.0,0.0,0.0,0.0,0.0,0.0,0.0,0.0,0.0,0.0,0.0,0.0,0.0,0.0,0.0,0.0,0.0,0.0,0.0,0.0,0.0,0.0,0.0,0.0,0.0,0.0,0.0,0.0,0.0,0.0,0.0,0.0,0.0,0.0,0.0,0.0,0.0,0.0,0.0,0.0,0.0,0.0,0.0,0.0,0.0,0.0,0.0,0.0,0.0,0.0,0.0,0.0,0.0,0.0,0.0,0.0,0.0,0.0,0.0,0.0,0.0,0.0,0.0,0.0,0.0,0.0,0.0,0.0,0.0,0.0,0.0,0.0,0.0,0.0,0.0,0.0,0.0,0.0,0.0,0.0,0.0,0.0,0.0,0.0,0.0,0.0,0.0,0.0,0.0,0.0,0.0,0.0,0.0,0.0,0.0,0.0,0.0,0.0,0.0,0.0,0.0,0.0,0.0,0.0,0.0,0.0,0.0,0.0,0.0,0.0,0.0,0.0,0.0,0.0,0.0,0.0,0.0,0.0,0.0,0.0,0.0,0.0,0.0,0.0,0.0,0.0,0.0,0.0,0.0,0.0,0.0,0.0,0.0,0.0,0.0,0.0,0.0,0.0,0.0,0.0,0.0,0.0,0.0,0.0,0.0,0.0,0.0,0.0,0.0,0.0,0.0,0.0,0.0,0.0,0.0,0.0,0.0,0.0,0.0,0.0,0.0,0.0,0.0,0.0,0.0,0.0,0.0,0.0,0.0,0.0,0.0,0.0,0.0,0.0,0.0,0.0,0.0,0.0,0.0,0.0,0.0,0.0,0.0,0.0,0.0,0.0,0.0,0.0,0.0,0.0,0.0,0.0,0.0,0.0,0.0,0.0,0.0,0.0,0.0,0.0,0.0,0.0,0.0,0.0,0.0,0.0,0.0,0.0,0.0,0.0,0.0,0.0,0.0,0.0,0.0,0.0,0.0,0.0,0.0,0.0,0.0,0.0,0.0,0.0,0.0,0.0,0.0,0.0,0.0,0.0,0.0,0.0,0.0,0.0,0.0,0.0,0.0,0.0,0.0,0.0,0.0,0.0,0.0,0.0,0.0,0.0,0.0,0.0,0.0,0.0,0.0,0.0,0.0,0.0,0.0,0.0,0.0,0.0,0.0,0.0,0.0,0.0,0.0,0.0,0.0,0.0,0.0,0.0,0.0,0.0,0.0,0.0,0.0,0.0,0.0,0.0,0.0,0.0,0.0,0.0,0.0,0.0,0.0,0.0,0.0,0.0,0.0,0.0,0.0,0.0,0.0,0.0,0.0,0.0,0.0,0.0,0.0,0.0,0.0,0.0,0.0,0.0,0.0,0.0,0.0,0.0,0.0,0.0,0.0,0.0,0.0,0.0,0.0,0.0,0.0,0.0,0.0,0.0,0.0,0.0,0.0,0.0,0.0,0.0,0.0,0.0,0.0,0.0,0.0,0.0,0.0,0.0,0.0,0.0,0.0,0.0,0.0,0.0,0.0,0.0,0.0,0.0,0.0,0.0,0.0,0.0,0.0,0.0,0.0,0.0,0.0,0.0,0.0,0.0,0.0,0.0,0.0,0.0,0.0,0.0,0.0,0.0,0.0,0.0,0.0,0.0,0.0,0.0,0.0,0.0,0.0,0.0,0.0,0.0,0.0,0.0,0.0,0.0,0.0,0.0,0.0,0.0,0.0,0.0,0.0,0.0,0.0,0.0,0.0,0.0,0.0,0.0,0.0,0.0,0.0,0.0,0.0,0.0,0.0,0.0,0.0,0.0,0.0,0.0,0.0,0.0,0.0,0.0,0.0,0.0,0.0,0.0,0.0,0.0,0.0,0.0,0.0,0.0,0.0,0.0,0.0,0.0,0.0,0.0,0.0,0.0,0.0,0.0,0.0,0.0,0.0,0.0,0.0,0.0,0.0,0.0,0.0,0.0,0.0,0.0,0.0,0.0,0.0,0.0,0.0,0.0,0.0,0.0,0.0,0.0,0.0,0.0,0.0,0.0,0.0,0.0,0.0,0.0,0.0,0.0,0.0,0.0,0.0,0.0,0.0,0.0,0.0,0.0,0.0,0.0,0.0,0.0,0.0,0.0,0.0,0.0,0.0,0.0,0.0,0.0,0.0,0.0,0.0,0.0,0.0,0.0,0.0,0.0,0.0,0.0,0.0,0.0,0.0,0.0,0.0,0.0,0.0,0.0,0.0,0.0,0.0,0.0,0.0,0.0,0.0,0.0,0.0,0.0,0.0,0.0,0.0,0.0,0.0,0.0,0.0,0.0,0.0,0.0,0.0,0.0,0.0,0.0,0.0,0.0,0.0,0.0,0.0,0.0,0.0,0.0,0.0,0.0,0.0,0.0,0.0,0.0,0.0,0.0,0.0,0.0,0.0,0.0,0.0,0.0,0.0,0.0,0.0,0.0,0.0,0.0,0.0,0.0,0.0,0.0,0.0,0.0,0.0,0.0,0.0,0.0,0.0,0.0,0.0,0.0,0.0,0.0,0.0,0.0,0.0,0.0,0.0,0.0,0.0,0.0,0.0,0.0,0.0,0.0,0.0,0.0,0.0,0.0,0.0,0.0,0.9893,0.0,0.0,0.0,0.0,0.0,0.0,0.0,0.0,0.0,0.0,0.0,0.0,0.0,0.0,0.0,0.0,0.0,0.0,0.0,0.0,0.0,0.0,0.0,0.0,0.0,0.0,0.0,0.0,0.0,0.0,0.0,0.0,0.0,0.0,0.0,0.0,0.0,0.0,0.0,0.0,0.0,0.0,0.0,0.0,0.0,0.0,0.0,0.0,0.0,0.0,0.0,0.0,0.0,0.0,0.0,0.0,0.0,0.0,0.0,0.0,0.0,0.0,0.0,0.0,0.0,0.0,0.0,0.0,0.0,0.0,0.0,0.0,0.0,0.0,0.0,0.0,0.0,0.0,0.0,0.0,0.0,0.0,0.0,0.0,0.0,0.0,0.0,0.0,0.0,0.0,0.0,0.0,0.0,0.0,0.0,0.0,0.0,0.0,0.0,0.0,0.0,0.0,0.0,0.0,0.0,0.0,0.0,0.0,0.0,0.0,0.9893,0.9893,0.9893,0.9893,0.9893,0.0,0.0,0.0,0.0,0.0,0.0,0.0,0.0,0.0,0.0,0.0,0.0,0.0,0.0,0.0,0.0,0.0,0.0,0.0,0.0,0.0,0.0,0.0,0.0,0.0,0.0,0.0,0.0,0.0,0.0,0.0,0.0,0.0,0.0,0.0,0.0,0.0,0.0,0.0,0.0,0.0,0.0,0.0,0.0,0.0,0.0,0.0,0.0,0.0,0.0,0.0,0.0,0.0,0.0,0.0,0.0,0.0,0.0,0.0,0.0,0.0,0.0,0.0,0.0,0.0,0.0,0.0,0.0,0.0,0.0,0.0,0.0,0.0,0.0,0.0,0.0,0.0,0.0,0.0,0.0,0.0,0.0,0.0,0.0,0.0,0.0,0.0,0.0,0.0,0.0,0.0,0.0,0.0,0.0,0.0,0.0,0.0,0.0,0.0,0.0,0.0,0.0,0.0,0.0,0.0,0.0,0.0,0.0,0.0,0.0,0.0,0.0,0.9912,0.9893,0.9893,0.0,0.0,0.0,0.0,0.0,0.0,0.0,0.0,0.0,0.0,0.0,0.0,0.0,0.0,0.0,0.0,0.0,0.0,0.0,0.0,0.0,0.0,0.0,0.0,0.0,0.0,0.0,0.0,0.0,0.0,0.0,0.0,0.0,0.0,0.0,0.0,0.0,0.0,0.0,0.0,0.0,0.0,0.0,0.0,0.0,0.0,0.0,0.0,0.0,0.0,0.0,0.0,0.0,0.0,0.0,0.0,0.0,0.0,0.0,0.0,0.0,0.0,0.0,0.0,0.0,0.0,0.0,0.0,0.0,0.0,0.0,0.0,0.0,0.0,0.0,0.0,0.0,0.0,0.0,0.0,0.0,0.0,0.0,0.0,0.0,0.0,0.0,0.0,0.0,0.0,0.0,0.0,0.0,0.0,0.0,0.0,0.0,0.0,0.0,0.0,0.0,0.0,0.0,0.0,0.0,0.0,0.0,0.0,0.0,0.0,0.9995,1.0002,0.9931,0.0,0.9893,0.0,0.0,0.0,0.0,0.0,0.0,0.0,0.0,0.0,0.0,0.0,0.0,0.0,0.0,0.0,0.0,0.0,0.0,0.0,0.0,0.0,0.0,0.0,0.0,0.0,0.0,0.0,0.0,0.0,0.0,0.0,0.0,0.0,0.0,0.0,0.0,0.0,0.0,0.0,0.0,0.0,0.0,0.0,0.0,0.0,0.0,0.0,0.0,0.0,0.0,0.0,0.0,0.0,0.0,0.0,0.0,0.0,0.0,0.0,0.0,0.0,0.0,0.0,0.0,0.0,0.0,0.0,0.0,0.0,0.0,0.0,0.0,0.0,0.0,0.0,0.0,0.0,0.0,0.0,0.0,0.0,0.0,0.0,0.0,0.0,0.0,0.0,0.0,0.0,0.0,0.0,0.0,0.0,0.0,0.0,0.0,0.0,0.0,0.0,0.0,0.0,0.0,0.0,0.0,0.0,0.0,0.0,0.0,0.0,0.0,1.0123,1.0123,1.0046,1.0027,0.0,0.0,0.0,0.0,0.0,0.0,0.0,0.0,0.0,0.0,0.0,0.0,0.0,0.0,0.0,0.0,0.0,0.0,0.0,0.0,0.0,0.0,0.0,0.0,0.0,0.0,0.0,0.0,0.0,0.0,0.0,0.0,0.0,0.0,0.0,0.0,0.0,0.0,0.0,0.0,0.0,0.0,0.0,0.0,0.0,0.0,0.0,0.0,0.0,0.0,0.0,0.0,0.0,0.0,0.0,0.0,0.0,0.0,0.0,0.0,0.0,0.0,0.0,0.0,0.0,0.0,0.0,0.0,0.0,0.0,0.0,0.0,0.0,0.0,0.0,0.0,0.0,0.0,0.0,0.0,0.0,0.0,0.0,0.0,0.0,0.0,0.0,0.0,0.0,0.0,0.0,0.0,0.0,0.0,0.0,0.0,0.0,0.0,0.0,0.0,0.0,0.0,0.0,0.0,0.0,0.0,0.0,0.0,0.0,0.0,1.0318,1.0262,1.0218,1.0186,1.016,1.016,0.0,0.0,0.0,0.0,0.0,0.0,0.0,0.0,0.0,0.0,0.0,0.0,0.0,0.0,0.0,0.0,0.0,0.0,0.0,0.0,0.0,0.0,0.0,0.0,0.0,0.0,0.0,0.0,0.0,0.0,0.0,0.0,0.0,0.0,0.0,0.0,0.0,0.0,0.0,0.0,0.0,0.0,0.0,0.0,0.0,0.0,0.0,0.0,0.0,0.0,0.0,0.0,0.0,0.0,0.0,0.0,0.0,0.0,0.0,0.0,0.0,0.0,0.0,0.0,0.0,0.0,0.0,0.0,0.0,0.0,0.0,0.0,0.0,0.0,0.0,0.0,0.0,0.0,0.0,0.0,0.0,0.0,0.0,0.0,0.0,0.0,0.0,0.0,0.0,0.0,0.0,0.0,0.0,0.0,0.0,0.0,0.0,0.0,0.0,0.0,0.0,0.0,0.0,0.0,0.0,0.0,0.0,0.0,1.0688,1.0553,1.043,1.0299,1.0287,1.0287,0.0,0.0,0.0,0.0,0.0,0.0,0.0,0.0,0.0,0.0,0.0,0.0,0.0,0.0,0.0,0.0,0.0,0.0,0.0,0.0,0.0,0.0,0.0,0.0,0.0,0.0,0.0,0.0,0.0,0.0,0.0,0.0,0.0,0.0,0.0,0.0,0.0,0.0,0.0,0.0,0.0,0.0,0.0,0.0,0.0,0.0,0.0,0.0,0.0,0.0,0.0,0.0,0.0,0.0,0.0,0.0,0.0,0.0,0.0,0.0,0.0,0.0,0.0,0.0,0.0,0.0,0.0,0.0,0.0,0.0,0.0,0.0,0.0,0.0,0.0,0.0,0.0,0.0,0.0,0.0,0.0,0.0,0.0,0.0,0.0,0.0,0.0,0.0,0.0,0.0,0.0,0.0,0.0,0.0,0.0,0.0,0.0,0.0,0.0,0.0,0.0,0.0,0.0,0.0,0.0,0.0,0.0,0.0,0.0,1.095,1.0819,1.07,1.0553,1.0547,1.054,0.0,0.0,0.0,0.0,0.0,0.0,0.0,0.0,0.0,0.0,0.0,0.0,0.0,0.0,0.0,0.0,0.0,0.0,0.0,0.0,0.0,0.0,0.0,0.0,0.0,0.0,0.0,0.0,0.0,0.0,0.0,0.0,0.0,0.0,0.0,0.0,0.0,0.0,0.0,0.0,0.0,0.0,0.0,0.0,0.0,0.0,0.0,0.0,0.0,0.0,0.0,0.0,0.0,0.0,0.0,0.0,0.0,0.0,0.0,0.0,0.0,0.0,0.0,0.0,0.0,0.0,0.0,0.0,0.0,0.0,0.0,0.0,0.0,0.0,0.0,0.0,0.0,0.0,0.0,0.0,0.0,0.0,0.0,0.0,0.0,0.0,0.0,0.0,0.0,0.0,0.0,0.0,0.0,0.0,0.0,0.0,0.0,0.0,0.0,0.0,0.0,0.0,0.0,0.0,0.0,0.0,0.0,0.0,0.0,1.114,0.0,1.1249,1.1159,1.135,1.1439,0.0,0.0,0.0,0.0,0.0,0.0,0.0,0.0,0.0,0.0,0.0,0.0,0.0,0.0,0.0,0.0,0.0,0.0,0.0,0.0,0.0,0.0,0.0,0.0,0.0,0.0,0.0,0.0,0.0,0.0,0.0,0.0,0.0,0.0,0.0,0.0,0.0,0.0,0.0,0.0,0.0,0.0,0.0,0.0,0.0,0.0,0.0,0.0,0.0,0.0,0.0,0.0,0.0,0.0,0.0,0.0,0.0,0.0,0.0,0.0,0.0,0.0,0.0,0.0,0.0,0.0,0.0,0.0,0.0,0.0,0.0,0.0,0.0,0.0,0.0,0.0,0.0,0.0,0.0,0.0,0.0,0.0,0.0,0.0,0.0,0.0,0.0,0.0,0.0,0.0,0.0,0.0,0.0,0.0,0.0,0.0,0.0,0.0,0.0,0.0,0.0,0.0,0.0,0.0,0.0,0.0,0.0,0.0,1.1405,1.1278,1.1822,1.2108,1.2126,1.2648,1.2958,0.0,0.0,0.0,0.0,0.0,0.0,0.0,0.0,0.0,0.0,0.0,0.0,0.0,0.0,0.0,0.0,0.0,0.0,0.0,0.0,0.0,0.0,0.0,0.0,0.0,0.0,0.0,0.0,0.0,0.0,0.0,0.0,0.0,0.0,0.0,0.0,0.0,0.0,0.0,0.0,0.0,0.0,0.0,0.0,0.0,0.0,0.0,0.0,0.0,0.0,0.0,0.0,0.0,0.0,0.0,0.0,0.0,0.0,0.0,0.0,0.0,0.0,0.0,0.0,0.0,0.0,0.0,0.0,0.0,0.0,0.0,0.0,0.0,0.0,0.0,0.0,0.0,0.0,0.0,0.0,0.0,0.0,0.0,0.0,0.0,0.0,0.0,0.0,0.0,0.0,0.0,0.0,0.0,0.0,0.0,0.0,0.0,0.0,0.0,0.0,0.0,0.0,0.0,0.0,0.0,0.0,0.0,0.0,0.0,1.28,1.2955,1.3052,1.3008,1.3127,1.3209,0.0,0.0,0.0,0.0,0.0,0.0,0.0,0.0,0.0,0.0,0.0,0.0,0.0,0.0,0.0,0.0,0.0,0.0,0.0,0.0,0.0,0.0,0.0,0.0,0.0,0.0,0.0,0.0,0.0,0.0,0.0,0.0,0.0,0.0,0.0,0.0,0.0,0.0,0.0,0.0,0.0,0.0,0.0,0.0,0.0,0.0,0.0,0.0,0.0,0.0,0.0,0.0,0.0,0.0,0.0,0.0,0.0,0.0,0.0,0.0,0.0,0.0,0.0,0.0,0.0,0.0,0.0,0.0,0.0,0.0,0.0,0.0,0.0,0.0,0.0,0.0,0.0,0.0,0.0,0.0,0.0,0.0,0.0,0.0,0.0,0.0,0.0,0.0,0.0,0.0,0.0,0.0,0.0,0.0,0.0,0.0,0.0,0.0,0.0,0.0,0.0,0.0,0.0,0.0,0.0,0.0,0.0,0.0,0.0,1.4665,1.4188,1.3891,1.3851,1.4024,1.4127,1.412,0.0,0.0,0.0,0.0,0.0,0.0,0.0,0.0,0.0,0.0,0.0,0.0,0.0,0.0,0.0,0.0,0.0,0.0,0.0,0.0,0.0,0.0,0.0,0.0,0.0,0.0,0.0,0.0,0.0,0.0,0.0,0.0,0.0,0.0,0.0,0.0,0.0,0.0,0.0,0.0,0.0,0.0,0.0,0.0,0.0,0.0,0.0,0.0,0.0,0.0,0.0,0.0,0.0,0.0,0.0,0.0,0.0,0.0,0.0,0.0,0.0,0.0,0.0,0.0,0.0,0.0,0.0,0.0,0.0,0.0,0.0,0.0,0.0,0.0,0.0,0.0,0.0,0.0,0.0,0.0,0.0,0.0,0.0,0.0,0.0,0.0,0.0,0.0,0.0,0.0,0.0,0.0,0.0,0.0,0.0,0.0,0.0,0.0,0.0,0.0,0.0,0.0,0.0,0.0,0.0,0.0,0.0,0.0,1.6681,1.5439,1.476,1.4737,1.5249,1.5544,0.0,0.0,0.0,0.0,0.0,0.0,0.0,0.0,0.0,0.0,0.0,0.0,0.0,0.0,0.0,0.0,0.0,0.0,0.0,0.0,0.0,0.0,0.0,0.0,0.0,0.0,0.0,0.0,0.0,0.0,0.0,0.0,0.0,0.0,0.0,0.0,0.0,0.0,0.0,0.0,0.0,0.0,0.0,0.0,0.0,0.0,0.0,0.0,0.0,0.0,0.0,0.0,0.0,0.0,0.0,0.0,0.0,0.0,0.0,0.0,0.0,0.0,0.0,0.0,0.0,0.0,0.0,0.0,0.0,0.0,0.0,0.0,0.0,0.0,0.0,0.0,0.0,0.0,0.0,0.0,0.0,0.0,0.0,0.0,0.0,0.0,0.0,0.0,0.0,0.0,0.0,0.0,0.0,0.0,0.0,0.0,0.0,0.0,0.0,0.0,0.0,0.0,0.0,0.0,0.0,0.0,0.0,0.0,0.0,1.6681,1.6808,1.6643,1.6181,1.624,1.6084,0.0,0.0,0.0,0.0,0.0,0.0,0.0,0.0,0.0,0.0,0.0,0.0,0.0,0.0,0.0,0.0,0.0,0.0,0.0,0.0,0.0,0.0,0.0,0.0,0.0,0.0,0.0,0.0,0.0,0.0,0.0,0.0,0.0,0.0,0.0,0.0,0.0,0.0,0.0,0.0,0.0,0.0,0.0,0.0,0.0,0.0,0.0,0.0,0.0,0.0,0.0,0.0,0.0,0.0,0.0,0.0,0.0,0.0,0.0,0.0,0.0,0.0,0.0,0.0,0.0,0.0,0.0,0.0,0.0,0.0,0.0,0.0,0.0,0.0,0.0,0.0,0.0,0.0,0.0,0.0,0.0,0.0,0.0,0.0,0.0,0.0,0.0,0.0,0.0,0.0,0.0,0.0,0.0,0.0,0.0,0.0,0.0,0.0,0.0,0.0,0.0,0.0,0.0,0.0,0.0,0.0,0.0,0.0,1.6838,1.713,1.7765,1.7929,1.7556,1.6956,1.6464,0.0,0.0,0.0,0.0,0.0,0.0,0.0,0.0,0.0,0.0,0.0,0.0,0.0,0.0,0.0,0.0,0.0,0.0,0.0,0.0,0.0,0.0,0.0,0.0,0.0,0.0,0.0,0.0,0.0,0.0,0.0,0.0,0.0,0.0,0.0,0.0,0.0,0.0,0.0,0.0,0.0,0.0,0.0,0.0,0.0,0.0,0.0,0.0,0.0,0.0,0.0,0.0,0.0,0.0,0.0,0.0,0.0,0.0,0.0,0.0,0.0,0.0,0.0,0.0,0.0,0.0,0.0,0.0,0.0,0.0,0.0,0.0,0.0,0.0,0.0,0.0,0.0,0.0,0.0,0.0,0.0,0.0,0.0,0.0,0.0,0.0,0.0,0.0,0.0,0.0,0.0,0.0,0.0,0.0,0.0,0.0,0.0,0.0,0.0,0.0,0.0,0.0,0.0,0.0,0.0,0.0,0.0,0.0,1.7122,1.7803,1.8446,1.8813,1.8768,1.7503,1.6778,0.0,0.0,0.0,0.0,0.0,0.0,0.0,0.0,0.0,0.0,0.0,0.0,0.0,0.0,0.0,0.0,0.0,0.0,0.0,0.0,0.0,0.0,0.0,0.0,0.0,0.0,0.0,0.0,0.0,0.0,0.0,0.0,0.0,0.0,0.0,0.0,0.0,0.0,0.0,0.0,0.0,0.0,0.0,0.0,0.0,0.0,0.0,0.0,0.0,0.0,0.0,0.0,0.0,0.0,0.0,0.0,0.0,0.0,0.0,0.0,0.0,0.0,0.0,0.0,0.0,0.0,0.0,0.0,0.0,0.0,0.0,0.0,0.0,0.0,0.0,0.0,0.0,0.0,0.0,0.0,0.0,0.0,0.0,0.0,0.0,0.0,0.0,0.0,0.0,0.0,0.0,0.0,0.0,0.0,0.0,0.0,0.0,0.0,0.0,0.0,0.0,0.0,0.0,0.0,0.0,0.0,0.0,0.0,1.7818,1.8461,1.9136,1.948,1.9474,1.82,1.7226,0.0,0.0,0.0,0.0,0.0,0.0,0.0,0.0,0.0,0.0,0.0,0.0,0.0,0.0,0.0,0.0,0.0,0.0,0.0,0.0,0.0,0.0,0.0,0.0,0.0,0.0,0.0,0.0,0.0,0.0,0.0,0.0,0.0,0.0,0.0,0.0,0.0,0.0,0.0,0.0,0.0,0.0,0.0,0.0,0.0,0.0,0.0,0.0,1.0496,0.0,0.0,0.0,0.0,0.0,0.0,0.0,0.0,0.0,0.0,0.0,0.0,0.0,0.0,0.0,0.0,0.0,0.0,0.0,0.0,0.0,0.0,0.0,0.0,0.0,0.0,0.0,0.0,0.0,0.0,0.0,0.0,0.0,0.0,0.0,0.0,0.0,0.0,0.0,0.0,0.0,0.0,0.0,0.0,0.0,0.0,0.0,0.0,0.0,0.0,0.0,0.0,0.0,0.0,0.0,0.0,0.0,0.0,0.0,1.8174,1.8837,1.9502,1.9833,1.9794,1.8542,1.7621,0.0,0.0,0.0,0.0,0.0,0.0,0.0,0.0,0.0,0.0,0.0,0.0,0.0,0.0,0.0,0.0,0.0,0.0,0.0,0.0,0.0,0.0,0.0,0.0,0.0,0.0,0.0,0.0,0.0,0.0,0.0,0.0,0.0,0.0,0.0,0.0,0.0,0.0,0.0,0.0,0.0,0.0,0.0,0.0,0.0,0.0,0.0,0.0,0.0,0.0,0.0,0.0,0.0,0.0,0.0,0.0,0.0,0.0,0.0,0.0,0.0,0.0,0.0,0.0,0.0,0.0,0.0,0.0,0.0,0.0,0.0,0.0,0.0,0.0,0.0,0.0,0.0,0.0,0.0,0.0,0.0,0.0,0.0,0.0,0.0,0.0,0.0,0.0,0.0,0.0,0.0,0.0,0.0,0.0,0.0,0.0,0.0,0.0,0.0,0.0,0.0,0.0,0.0,0.0,0.0,0.0,0.0,1.7737,1.8399,1.9167,1.9745,2.0058,2.0019,1.8733,1.7955,1.7772,0.0,0.0,0.0,0.0,0.0,0.0,0.0,0.0,0.0,0.0,0.0,0.0,0.0,0.0,0.0,0.0,0.0,0.0,0.0,0.0,0.0,0.0,0.0,0.0,0.0,0.0,0.0,0.0,0.0,0.0,0.0,0.0,0.0,0.0,0.0,0.0,0.0,0.0,1.0698,1.0869,0.0,0.0,0.0,0.0,0.0,0.0,0.0,0.0,1.0755,0.0,0.0,0.0,0.0,0.0,0.0,0.0,0.0,0.0,0.0,0.0,0.0,0.0,0.0,0.0,0.0,0.0,0.0,0.0,0.0,0.0,0.0,0.0,0.0,0.0,0.0,0.0,0.0,0.0,0.0,0.0,0.0,0.0,0.0,0.0,0.0,0.0,0.0,0.0,0.0,0.0,0.0,0.0,0.0,0.0,0.0,0.0,0.0,0.0,0.0,0.0,0.0,0.0,0.0,0.0,0.0,1.7984,1.8123,1.8791,2.0052,2.0191,2.0244,2.0198,1.8906,1.8138,1.8068,0.0,0.0,0.0,0.0,0.0,0.0,0.0,0.0,0.0,0.0,0.0,0.0,0.0,0.0,0.0,0.0,0.0,0.0,0.0,0.0,0.0,0.0,0.0,0.0,0.0,0.0,0.0,0.0,0.0,0.0,0.0,0.0,0.0,0.0,0.0,0.0,0.0,0.0,0.0,1.1288,1.1343,0.0,0.0,0.0,0.0,0.0,0.0,0.0,0.0,1.1081,0.0,0.0,0.0,0.0,0.0,0.0,0.0,0.0,0.0,0.0,0.0,0.0,0.0,0.0,0.0,0.0,0.0,0.0,0.0,0.0,0.0,0.0,0.0,0.0,0.0,0.0,0.0,0.0,0.0,0.0,0.0,0.0,0.0,0.0,0.0,0.0,0.0,0.0,0.0,0.0,0.0,0.0,0.0,0.0,0.0,0.0,0.0,0.0,0.0,0.0,0.0,0.0,0.0,0.0,0.0,1.8414,1.8835,1.953,2.053,2.0553,2.0553,2.0537,1.9202,1.846,0.0,0.0,0.0,0.0,0.0,0.0,0.0,0.0,0.0,0.0,0.0,0.0,0.0,0.0,0.0,0.0,0.0,0.0,0.0,0.0,0.0,0.0,0.0,0.0,0.0,0.0,0.0,0.0,0.0,0.0,0.0,0.0,0.0,0.0,0.0,0.0,0.0,0.0,0.0,0.0,1.1732,1.1824,1.1822,0.0,0.0,0.0,0.0,0.0,0.0,1.1473,1.1334,0.0,0.0,0.0,0.0,0.0,0.0,0.0,0.0,0.0,0.0,0.0,0.0,0.0,0.0,0.0,0.0,0.0,0.0,0.0,0.0,0.0,0.0,0.0,0.0,0.0,0.0,0.0,0.0,0.0,0.0,0.0,0.0,0.0,0.0,0.0,0.0,0.0,0.0,0.0,0.0,0.0,0.0,0.0,0.0,0.0,0.0,0.0,0.0,0.0,0.0,0.0,0.0,0.0,0.0,0.0,1.8796,1.9526,2.0226,2.0861,2.0901,2.0901,2.0877,1.9543,1.8788,0.0,0.0,0.0,0.0,0.0,0.0,0.0,0.0,0.0,0.0,0.0,0.0,0.0,0.0,0.0,0.0,0.0,0.0,0.0,0.0,0.0,0.0,0.0,0.0,0.0,0.0,0.0,0.0,0.0,0.0,0.0,0.0,0.0,0.0,0.0,0.0,0.0,0.0,0.0,0.0,0.0,1.2273,1.2267,1.2409,0.0,0.0,0.0,0.0,1.2245,1.1977,0.0,0.0,0.0,0.0,0.0,0.0,0.0,0.0,0.0,0.0,0.0,0.0,0.0,0.0,0.0,0.0,0.0,0.0,0.0,0.0,0.0,0.0,0.0,0.0,0.0,0.0,0.0,0.0,0.0,0.0,0.0,0.0,0.0,0.0,0.0,0.0,0.0,0.0,0.0,0.0,0.0,0.0,0.0,0.0,0.0,0.0,0.0,0.0,0.0,0.0,0.0,0.0,0.0,0.0,0.0,0.0,1.9152,1.9855,2.0566,2.119,2.1254,2.123,2.1222,1.9888,1.9136,0.0,0.0,0.0,0.0,0.0,0.0,0.0,0.0,0.0,0.0,0.0,0.0,0.0,0.0,0.0,0.0,0.0,0.0,0.0,0.0,0.0,0.0,0.0,0.0,0.0,0.0,0.0,0.0,0.0,0.0,0.0,0.0,0.0,0.0,0.0,0.0,0.0,0.0,0.0,0.0,0.0,1.2611,1.2782,1.3264,1.357,0.0,0.0,1.387,1.377,1.318,0.0,0.0,0.0,0.0,0.0,0.0,0.0,0.0,0.0,0.0,0.0,0.0,0.0,0.0,0.0,0.0,0.0,0.0,0.0,0.0,0.0,0.0,0.0,0.0,0.0,0.0,0.0,0.0,0.0,0.0,0.0,0.0,0.0,0.0,0.0,0.0,0.0,0.0,0.0,0.0,0.0,0.0,0.0,0.0,0.0,0.0,0.0,0.0,0.0,0.0,0.0,0.0,0.0,0.0,0.0,1.9307,2.005,2.0763,2.1305,2.157,2.1587,2.1587,2.1595,2.0176,1.9417,0.0,0.0,0.0,0.0,0.0,0.0,0.0,0.0,0.0,0.0,0.0,0.0,0.0,0.0,0.0,0.0,0.0,0.0,0.0,0.0,0.0,0.0,0.0,0.0,0.0,0.0,0.0,0.0,0.0,0.0,0.0,0.0,0.0,0.0,0.0,0.0,0.0,0.0,0.0,0.0,0.0,0.0,1.3683,1.4016,0.0,0.0,0.0,1.4497,1.4354,0.0,0.0,0.0,0.0,0.0,0.0,0.0,0.0,0.0,0.0,0.0,0.0,0.0,0.0,0.0,0.0,0.0,0.0,0.0,0.0,0.0,0.0,0.0,0.0,0.0,0.0,0.0,0.0,0.0,0.0,0.0,0.0,0.0,0.0,0.0,0.0,0.0,0.0,0.0,0.0,0.0,0.0,0.0,0.0,0.0,0.0,0.0,0.0,0.0,0.0,0.0,0.0,0.0,0.0,0.0,0.0,0.0,2.0814,2.154,2.1908,2.1901,2.1908,2.1877,2.1814,2.0628,0.0,0.0,0.0,0.0,0.0,0.0,0.0,0.0,0.0,0.0,0.0,0.0,0.0,0.0,0.0,0.0,0.0,0.0,0.0,0.0,0.0,0.0,0.0,0.0,0.0,0.0,0.0,1.456,0.0,0.0,0.0,0.0,0.0,0.0,0.0,0.0,0.0,0.0,0.0,0.0,0.0,0.0,1.4029,1.4528,1.4877,1.5177,0.0,0.0,1.5299,1.5149,1.4766,1.4305,0.0,0.0,0.0,0.0,0.0,0.0,0.0,0.0,0.0,0.0,0.0,0.0,0.0,0.0,0.0,0.0,0.0,0.0,0.0,0.0,0.0,0.0,0.0,0.0,0.0,0.0,0.0,0.0,0.0,0.0,0.0,0.0,0.0,0.0,0.0,0.0,0.0,0.0,0.0,0.0,0.0,0.0,0.0,0.0,0.0,0.0,0.0,0.0,0.0,0.0,0.0,0.0,0.0,0.0,0.0,2.1181,2.1894,2.2237,2.217,2.2178,2.2118,2.1974,2.1295,2.0545,0.0,0.0,0.0,0.0,0.0,0.0,0.0,0.0,0.0,0.0,0.0,0.0,0.0,0.0,0.0,0.0,0.0,0.0,0.0,0.0,0.0,0.0,0.0,0.0,0.0,0.0,0.0,0.0,0.0,0.0,0.0,0.0,0.0,0.0,0.0,0.0,0.0,0.0,0.0,0.0,0.0,1.4886,1.5108,1.6013,1.6579,0.0,0.0,1.6792,1.6583,1.5963,1.5434,1.5272,0.0,0.0,0.0,0.0,0.0,0.0,0.0,0.0,0.0,0.0,0.0,0.0,0.0,0.0,0.0,0.0,0.0,0.0,0.0,0.0,0.0,0.0,0.0,0.0,0.0,0.0,0.0,0.0,0.0,0.0,0.0,0.0,0.0,0.0,0.0,0.0,0.0,0.0,0.0,0.0,0.0,0.0,0.0,0.0,0.0,0.0,0.0,0.0,0.0,0.0,0.0,0.0,0.0,2.1583,2.2057,2.2374,2.2504,2.2457,2.245,2.2415,2.2308,2.1586,2.1015,0.0,0.0,0.0,0.0,0.0,0.0,0.0,0.0,0.0,0.0,0.0,0.0,0.0,0.0,0.0,0.0,0.0,0.0,0.0,0.0,0.0,0.0,0.0,0.0,0.0,0.0,0.0,0.0,1.5093,1.498,1.4803,0.0,0.0,0.0,0.0,0.0,0.0,0.0,0.0,0.0,0.0,1.5468,1.6,1.6716,0.0,0.0,1.7441,1.7321,1.7055,1.6675,1.6241,1.5782,1.5259,0.0,0.0,0.0,0.0,0.0,0.0,0.0,0.0,0.0,0.0,0.0,0.0,0.0,0.0,0.0,0.0,0.0,0.0,0.0,0.0,0.0,0.0,0.0,0.0,0.0,0.0,0.0,0.0,0.0,0.0,0.0,0.0,0.0,0.0,0.0,0.0,0.0,0.0,0.0,0.0,0.0,0.0,0.0,0.0,0.0,0.0,0.0,0.0,0.0,0.0,0.0,0.0,2.2184,2.2712,2.2773,2.2777,2.2709,2.2685,2.2646,2.2535,2.2002,2.158,0.0,0.0,0.0,0.0,0.0,0.0,0.0,0.0,0.0,0.0,0.0,0.0,0.0,0.0,0.0,0.0,0.0,0.0,0.0,0.0,0.0,0.0,0.0,0.0,0.0,0.0,0.0,0.0,1.541,1.5299,1.5127,0.0,0.0,0.0,0.0,0.0,0.0,0.0,0.0,0.0,0.0,1.6162,1.6911,1.7468,1.785,1.8062,1.7952,1.7733,1.7396,1.7201,1.6923,1.6419,0.0,0.0,0.0,0.0,0.0,0.0,0.0,0.0,0.0,0.0,0.0,0.0,0.0,0.0,0.0,0.0,0.0,0.0,0.0,0.0,0.0,0.0,0.0,0.0,0.0,0.0,0.0,0.0,0.0,0.0,2.1238,0.0,0.0,0.0,0.0,0.0,0.0,0.0,0.0,0.0,0.0,0.0,0.0,0.0,0.0,0.0,0.0,0.0,0.0,0.0,0.0,0.0,0.0,2.2903,2.2995,2.3064,2.3033,2.2889,2.29,2.2836,2.2688,2.2615,2.2221,2.1509,0.0,0.0,0.0,0.0,0.0,0.0,0.0,0.0,0.0,0.0,0.0,0.0,0.0,0.0,0.0,0.0,0.0,0.0,0.0,0.0,0.0,0.0,0.0,0.0,0.0,0.0,1.5829,1.5624,1.5492,0.0,0.0,0.0,0.0,0.0,0.0,0.0,0.0,0.0,0.0,1.6431,1.7074,1.7835,1.8379,1.8558,1.8334,1.8234,1.8073,1.773,1.7584,1.7468,0.0,0.0,0.0,0.0,0.0,0.0,0.0,0.0,0.0,0.0,0.0,0.0,0.0,0.0,0.0,0.0,0.0,0.0,0.0,0.0,0.0,0.0,0.0,0.0,0.0,0.0,0.0,2.2848,2.2911,0.0,0.0,0.0,0.0,0.0,0.0,0.0,0.0,0.0,0.0,0.0,2.3366,2.3366,0.0,0.0,0.0,0.0,0.0,0.0,0.0,0.0,0.0,0.0,0.0,0.0,2.318,2.3193,2.3289,2.3301,2.318,2.3168,2.3107,2.2959,2.2861,2.2431,2.1608,0.0,0.0,0.0,0.0,0.0,0.0,0.0,0.0,0.0,0.0,0.0,0.0,0.0,0.0,0.0,0.0,0.0,0.0,0.0,0.0,0.0,0.0,0.0,0.0,0.0,1.6899,0.0,0.0,0.0,0.0,0.0,0.0,0.0,0.0,0.0,0.0,0.0,1.591,1.6816,1.7426,1.7917,1.8279,1.87,1.8917,0.0,0.0,0.0,0.0,0.0,0.0,0.0,0.0,0.0,0.0,0.0,0.0,0.0,0.0,1.5867,1.5322,1.5244,1.5153,1.4914,0.0,0.0,0.0,0.0,0.0,0.0,0.0,0.0,0.0,0.0,0.0,0.0,0.0,0.0,2.3873,0.0,2.3932,0.0,0.0,0.0,0.0,0.0,0.0,0.0,0.0,2.3638,2.3632,2.3645,2.361,2.3605,0.0,2.3599,2.3458,0.0,0.0,0.0,0.0,0.0,0.0,0.0,0.0,2.3441,2.3447,2.3555,2.3543,2.3447,2.3441,2.3377,2.3241,2.3119,2.275,2.2134,2.2023,2.1771,0.0,0.0,0.0,0.0,0.0,0.0,0.0,0.0,0.0,0.0,0.0,0.0,0.0,0.0,0.0,0.0,0.0,0.0,0.0,0.0,0.0,0.0,0.0,1.7911,0.0,0.0,0.0,0.0,0.0,0.0,0.0,0.0,0.0,1.6572,1.6537,1.6859,1.7701,1.8134,1.8482,1.8836,0.0,0.0,0.0,0.0,0.0,0.0,0.0,1.8224,1.8133,1.7909,1.77,1.7588,1.73,1.7073,1.6966,0.0,0.0,1.5869,1.5747,1.5669,1.539,1.5357,1.5357,1.5345,1.5345,1.539,0.0,0.0,0.0,0.0,0.0,0.0,0.0,0.0,2.4238,2.4266,0.0,2.4333,0.0,0.0,0.0,0.0,0.0,2.4164,0.0,0.0,2.4065,2.3985,2.4016,2.3946,2.3902,2.3902,2.392,2.3885,2.3808,2.3553,0.0,0.0,0.0,0.0,0.0,0.0,2.3711,2.3705,2.3766,2.3776,2.3711,2.3705,2.3639,2.3511,2.3372,2.3253,2.3102,2.2971,2.2908,2.2884,2.2026,0.0,0.0,0.0,0.0,0.0,0.0,0.0,0.0,0.0,0.0,0.0,0.0,0.0,0.0,0.0,0.0,0.0,0.0,0.0,0.0,1.8868,0.0,0.0,0.0,0.0,0.0,0.0,0.0,0.0,0.0,0.0,1.7554,1.746,1.7731,1.8522,0.0,0.0,0.0,0.0,1.9265,1.9129,1.9055,1.8922,1.875,1.8711,1.8663,1.8537,0.0,0.0,1.7831,1.7659,1.7599,1.75,1.7439,1.7062,1.6458,1.6304,1.6133,1.5881,1.5825,1.5837,1.5849,1.5909,1.5942,2.7831,0.0,0.0,0.0,0.0,2.6035,2.6078,2.6139,2.6049,2.6054,2.6139,2.6121,0.0,0.0,0.0,0.0,0.0,0.0,2.5984,2.6003,2.5911,2.5909,2.5891,2.5824,2.5806,2.5787,2.5787,2.5756,2.5692,2.5627,2.4836,2.3425,0.0,0.0,0.0,0.0,2.3852,2.3834,2.3902,2.3902,2.3834,2.3852,2.3779,2.3663,2.3588,2.3522,2.3383,2.3259,2.3169,2.3169,2.2754,0.0,0.0,0.0,0.0,0.0,0.0,0.0,0.0,0.0,0.0,0.0,0.0,0.0,0.0,0.0,0.0,0.0,0.0,0.0,1.981,2.0304,2.0533,0.0,0.0,0.0,0.0,0.0,0.0,0.0,0.0,0.0,1.9338,1.8743,1.8595,0.0,0.0,1.9427,1.9648,1.9578,1.9501,1.945,1.9311,0.0,1.9134,1.905,1.8969,1.8946,1.9154,1.9244,1.8949,1.9145,1.9356,1.9321,1.9141,1.8869,1.8451,1.7453,1.6694,1.636,1.6306,1.6441,1.6832,1.6943,1.7067,3.0086,2.8924,2.7877,2.7252,2.6981,2.6958,2.6986,2.7013,2.6986,2.699,2.7018,2.7036,2.7013,2.7018,2.7013,0.0,0.0,0.0,2.6958,2.6935,2.6906,2.6877,2.6854,2.6765,2.6725,2.6725,2.6707,2.6682,2.6617,2.6617,2.6015,2.4847,0.0,0.0,2.4811,2.49,2.498,2.4975,2.5001,2.4991,2.4934,2.4593,2.4221,2.3802,2.3779,2.3725,2.3634,2.3522,2.3441,2.3459,2.3199,2.3039,0.0,0.0,0.0,0.0,0.0,0.0,0.0,0.0,0.0,0.0,0.0,1.9684,1.9413,0.0,0.0,0.0,2.0061,2.0412,2.0854,2.1235,0.0,0.0,0.0,0.0,0.0,0.0,0.0,1.9992,2.0194,2.0356,2.0256,1.973,1.9424,1.9702,1.9744,1.9735,1.9708,0.0,1.9593,1.9593,1.9686,1.974,1.974,1.9898,2.0006,1.9943,2.0155,2.0265,2.0051,2.0196,2.0316,2.0279,2.0104,1.991,1.9652,1.8808,1.8008,1.7597,1.7485,1.7613,1.7979,1.8029,1.8133,3.2427,3.2209,2.977,2.8317,2.7631,2.7631,2.7612,2.7612,2.7631,2.7612,2.7612,2.7612,2.7612,2.7612,2.7608,0.0,2.7631,2.7612,2.765,2.7608,2.7555,2.7506,2.7497,2.7401,2.727,2.7237,2.7219,2.7139,2.7063,2.704,2.7016,2.7037,2.6853,2.6667,2.6541,2.6565,2.6623,2.6604,2.6597,2.6565,2.6488,2.574,2.4939,2.4153,2.4044,2.3982,2.3902,2.377,2.3716,2.3711,2.3476,2.3312,2.3217,0.0,0.0,0.0,0.0,0.0,0.0,0.0,0.0,0.0,0.0,0.0,0.0,0.0,0.0,0.0,2.1451,0.0,2.1811,2.176,0.0,0.0,0.0,2.1371,2.1167,2.1143,2.1055,2.0844,0.0,0.0,2.0614,2.051,2.0327,2.0064,1.9972,1.984,1.9729,1.9776,1.976,1.9777,2.0162,2.0489,2.0533,2.0961,2.1242,2.1145,2.1262,2.1224,2.1056,2.1013,2.089,2.0891,2.0692,2.0559,2.0336,2.032,2.0095,1.94,1.91,1.9027,1.9104,1.9128,1.9156,3.2641,3.258,3.1939,3.1489,3.1178,3.1174,3.1155,3.1174,3.1155,3.1155,3.1155,3.1155,3.1155,3.1155,3.1155,3.1178,3.1159,3.1159,3.1174,3.1169,3.1091,3.1064,3.1059,3.0945,3.054,2.9968,2.995,2.9622,2.9027,2.9008,2.9003,2.9008,2.8961,2.8197,2.6775,2.6743,2.6743,2.6748,2.6754,2.6722,2.6652,2.6457,2.6193,2.5873,2.5299,2.4939,2.4866,2.4226,2.3829,2.3782,2.3665,2.3533,2.336,2.3265,0.0,0.0,0.0,0.0,0.0,0.0,0.0,0.0,0.0,2.1851,2.1689,0.0,2.1733,0.0,2.2034,2.2061,2.1972,2.1933,0.0,0.0,2.1796,2.1699,2.1496,2.1473,2.1372,2.1143,2.1022,2.114,2.1598,2.1576,2.1609,2.1872,2.1262,2.0573,1.9998,2.0694,2.1126,2.0803,2.1079,2.1386,2.1401,2.1516,2.1615,2.146,2.1849,2.2133,2.1987,2.2275,2.2516,2.2498,2.2399,2.2243,2.2005,2.1999,2.1846,2.1437,2.0432,1.9683,2.0115,2.0209,2.0344,3.3857,3.3857,3.3857,3.3784,3.3643,3.2882,3.2542,3.2542,3.2542,3.2542,3.2542,3.2523,3.2542,3.2523,3.2523,3.2542,3.2542,3.2523,3.2523,3.2538,3.2473,3.243,3.2425,3.2297,3.2001,3.1567,3.1567,3.1359,3.0902,3.0902,3.0902,3.0883,3.0544,2.9845,2.8787,2.8264,2.8,2.8,2.7939,2.7707,2.7336,2.7336,2.7111,2.6631,2.6213,2.5941,2.5899,2.5393,2.509,2.5022,2.459,2.4262,2.4097,2.3696,2.3324,0.0,0.0,0.0,0.0,0.0,0.0,0.0,0.0,0.0,0.0,0.0,2.2467,2.2432,2.2377,2.2297,2.2189,2.2161,2.2104,2.2041,2.1979,2.2015,2.2208,2.2187,2.2234,2.2394,2.2289,2.2335,2.2656,2.2661,2.2668,2.2839,2.2658,2.2028,2.096,2.1416,2.1905,2.1753,2.2024,2.238,2.258,2.2589,2.2527,2.249,2.2737,2.2944,2.2867,2.3094,2.329,2.3209,2.3127,2.3027,2.2859,2.2802,2.276,2.2466,2.1795,2.1262,2.1299,2.1319,2.142,3.5652,3.5671,3.5648,3.5668,3.5526,3.4036,3.3268,3.3039,3.3039,3.3039,3.3039,3.3039,3.3016,3.3039,3.302,3.302,3.3016,3.302,3.3016,3.3031,3.2985,3.2934,3.293,3.2809,3.2705,3.261,3.261,3.2539,3.2439,3.2439,3.2444,3.2406,3.1741,3.1396,3.1349,3.0386,2.9776,2.9535,2.9409,2.9011,2.83,2.8282,2.7904,2.7164,2.7029,2.6955,2.6955,2.6735,2.6628,2.6599,2.5794,2.5259,2.5162,2.439,2.3842,0.0,2.3649,0.0,0.0,0.0,0.0,0.0,0.0,0.0,0.0,2.2745,2.2712,2.2656,2.2661,2.2638,2.2579,2.2587,2.2552,2.2512,2.2404,2.2558,2.3111,2.3141,2.332,2.3868,2.3777,2.3701,2.379,2.3748,2.3629,2.3681,2.406,2.3782,2.2424,2.238,2.2664,2.2812,2.3005,2.3253,2.3577,2.3632,2.3556,2.355,2.3524,2.3588,2.3486,2.3531,2.3539,2.34,2.3341,2.3282,2.3172,2.315,2.3105,2.2971,2.2843,2.2679,2.2357,2.223,2.2301,3.7565,3.7565,3.7565,3.7565,3.7526,3.7208,3.6208,3.481,3.4791,3.481,3.481,3.481,3.481,3.481,3.4791,3.481,3.481,3.481,3.481,3.481,3.4787,3.4802,3.4779,3.4712,3.4324,3.3718,3.368,3.3336,3.2634,3.2634,3.2653,3.2634,3.2481,3.2428,3.2401,0.0,0.0,0.0,2.9641,2.9494,2.9234,2.9247,2.9091,2.8808,2.8172,0.0,2.782,2.7158,2.6762,2.6745,2.6471,0.0,0.0,0.0,0.0,0.0,0.0,0.0,0.0,0.0,0.0,0.0,2.3744,2.3253,2.3034,2.2976,2.2902,2.2855,2.3266,2.3536,2.3466,2.3891,2.415,2.4135,2.4068,2.405,2.4125,2.4135,2.4139,2.4138,2.4115,2.4282,2.4728,2.4811,2.4939,2.5237,2.5495,2.5334,2.4703,2.4271,2.4141,2.4148,2.3958,2.3863,2.3809,2.3782,2.3722,2.3642,2.3584,2.3584,2.3577,2.3588,2.3588,2.353,2.3556,2.3512,2.3444,2.3407,2.3389,2.3253,2.3216,2.3127,2.2848,2.2765,2.2754,3.8137,0.0,3.8137,3.814,0.0,3.8157,3.7617,3.6739,3.6698,3.6449,3.6003,3.5582,3.5402,3.5399,3.5397,3.5405,3.5405,3.5405,3.5405,3.5405,3.5365,3.5346,3.5346,3.5285,3.504,3.4642,3.4661,3.4412,3.3995,3.3976,3.3976,3.3976,3.3597,3.3386,3.3363,3.2936,3.1956,3.0444,3.0015,2.9764,2.965,2.9645,2.9598,2.9483,2.911,0.0,0.0,0.0,0.0,0.0,0.0,0.0,0.0,0.0,0.0,2.6244,2.6175,2.6116,2.6081,2.5715,2.5499,2.5487,2.5115,2.4598,2.3951,2.417,2.4312,2.4273,2.4452,2.4518,2.4465,2.4665,2.4785,2.4765,2.4628,2.4665,2.4974,2.4987,2.5059,2.5338,2.5363,2.5455,2.5747,2.5788,2.5852,2.6068,2.6099,2.5998,2.5689,2.5256,2.4892,2.4677,2.4452,2.4229,2.4083,2.3893,2.3771,2.3707,2.3653,2.3595,2.3584,2.3584,2.3584,2.3584,2.3584,2.3573,2.3556,2.3545,2.3527,2.3469,2.3447,2.3414,2.3257,2.3172,2.3094,3.8687,3.8684,3.8665,3.8665,3.8687,3.8687,3.8667,3.8642,0.0,0.0,0.0,3.6296,3.5991,3.5971,3.5964,3.5883,3.5725,3.5722,3.5641,3.5497,3.543,3.5416,3.5416,3.5364,3.533,3.533,3.533,3.535,3.533,3.533,3.5327,3.5273,3.4666,3.434,3.4275,3.3464,3.2607,3.1711,3.0705,3.0132,3.0048,2.9935,2.9812,2.9738,2.9738,2.9738,2.9733,2.9622,2.9551,2.9546,2.8719,2.8254,2.823,2.7456,2.6934,2.6896,2.6821,2.6747,2.6768,2.6629,2.6478,2.6314,2.6454,2.609,2.5064,2.5479,2.577,2.5777,2.5643,2.5544,2.5488,2.5472,2.5426,2.536,2.5164,2.5307,2.5845,2.5828,2.5991,2.6522,2.653,2.6529,2.6495,2.6487,2.6502,2.6382,2.6339,2.6277,2.599,2.5602,2.522,2.4942,2.4752,2.4554,2.4354,2.4114,2.3888,2.3856,2.376,2.3674,2.3638,2.3627,2.3627,2.3595,2.3584,2.3584,2.3584,2.3584,2.3584,2.3584,2.3627,2.3627,2.3616,2.3523,2.3418,4.0519,4.0517,4.0519,4.0519,4.0519,4.0519,4.0519,4.0396,3.8883,3.8118,3.7999,3.7876,3.7825,3.7803,3.7762,3.7321,3.6639,3.66,3.6234,3.5503,3.5493,3.5493,3.5493,3.5467,3.5486,3.5463,3.5463,3.5486,3.5467,3.5483,3.5486,3.5463,3.5371,3.5257,3.5156,3.4365,3.3838,3.3665,3.2053,3.1154,3.1087,3.0418,2.9995,2.9864,2.9878,2.9878,2.9859,2.9816,2.9764,2.9759,2.9453,2.929,2.928,2.8971,2.8811,2.8789,2.8638,2.8528,2.851,2.7837,2.7115,2.6501,2.7024,2.7045,2.6168,2.6057,2.6045,2.6068,2.6412,2.6593,2.6601,2.6877,2.7071,2.7075,2.6877,2.6804,2.6865,2.6753,2.669,2.6825,2.675,2.6657,2.6674,2.6666,2.6649,2.6564,2.6521,2.6469,2.6225,2.5855,2.5482,2.5269,2.5113,2.49,2.464,2.4374,2.4183,2.4078,2.4009,2.3893,2.3792,2.3782,2.375,2.3616,2.3616,2.3631,2.362,2.3584,2.3616,2.3627,2.3707,2.3786,2.3782,2.3807,2.3807,4.0941,4.0961,4.0961,4.0961,4.0961,4.0959,4.0961,4.0879,4.0088,3.9422,3.892,3.8473,3.8241,3.8236,3.8187,3.7932,3.7559,3.7559,3.7074,3.6238,3.6221,3.5964,3.5515,3.5494,3.5503,3.5503,3.5503,3.5503,3.5503,3.5503,3.5503,3.5503,3.5503,3.549,3.5418,3.5056,3.4857,3.4821,3.3069,3.2147,3.2088,3.1282,3.0791,3.0716,3.0308,3.0057,3.0053,3.0003,2.9959,2.9974,2.9782,2.9678,2.9654,2.9468,2.9354,2.9304,2.9189,2.9113,2.9067,2.8655,2.8237,2.7843,2.8142,2.8193,2.7811,2.7598,2.7507,2.7519,2.7624,2.767,2.7663,2.7734,2.7773,2.7755,2.7494,2.7324,2.7276,2.7119,2.7024,2.6998,2.6925,2.685,2.6809,2.6809,2.6767,2.6683,2.6623,2.6555,2.6469,2.6259,2.5963,2.5677,2.5489,2.5282,2.4999,2.468,2.4451,2.4369,2.4261,2.4125,2.3984,2.3962,2.392,2.385,2.3818,2.3818,2.3818,2.3818,2.3818,2.3829,2.3888,2.3937,2.3896,2.4021,2.4062,4.1014,4.1034,4.1013,4.1014,4.1034,4.1014,4.1014,4.1014,4.0993,4.0619,3.9885,3.9198,3.8916,3.8908,3.8836,3.8714,3.853,3.8525,3.8001,3.7163,3.7112,3.6672,3.5894,3.5797,3.572,3.5546,3.5501,3.5498,3.5494,3.5484,3.5503,3.5503,3.5503,3.5503,3.5503,3.5503,3.5503,3.5404,3.4113,3.3301,3.3074,3.2239,3.1785,3.1661,3.0943,3.0499,3.0519,3.0249,3.0132,3.0121,2.9959,2.9864,2.9847,2.9668,2.9541,2.9459,2.939,2.9304,2.9235,2.9152,2.9085,2.9028,2.9011,2.8987,2.8975,2.8858,2.8767,2.8743,2.8526,2.8429,2.8378,2.8221,2.8081,2.8085,2.781,2.7625,2.7594,2.738,2.7198,2.7182,2.7112,2.7024,2.6966,2.695,2.69,2.6767,2.6674,2.6632,2.6615,2.6555,2.6399,2.6142,2.5862,2.5614,2.5397,2.5048,2.4801,2.4751,2.4589,2.4426,2.4276,2.4214,2.4162,2.4094,2.4067,2.4041,2.4067,2.4067,2.4067,2.4062,2.4146,2.4209,2.4225,2.4349,2.4343,4.1124,4.1085,4.1162,4.1104,4.1122,4.1104,4.1104,4.1083,4.1084,4.1064,4.0895,4.08,4.0715,4.0746,4.0606,4.0172,3.9508,3.9466,3.8952,3.8127,3.8072,3.7613,3.6812,3.6704,3.6299,3.5679,3.5576,3.5563,3.5502,3.5501,3.5484,3.5503,3.5503,3.5503,3.5503,3.5503,3.5503,3.5503,3.5343,3.4842,3.3988,3.3194,3.2739,3.2654,3.1884,3.1462,3.1439,3.0642,3.0202,3.0178,3.014,3.0057,2.9983,2.9841,2.9745,2.9677,2.956,2.945,2.9294,2.9175,2.9132,2.9078,2.9113,2.9084,2.9078,2.9024,2.8977,2.8949,2.8779,2.8687,2.8651,2.8491,2.8371,2.8351,2.8109,2.7957,2.7911,2.7652,2.7448,2.7465,2.7316,2.7159,2.7119,2.7078,2.7014,2.6909,2.6784,2.6691,2.6708,2.6657,2.6615,2.6469,2.6198,2.591,2.5698,2.5425,2.5233,2.5211,2.5054,2.4856,2.467,2.4569,2.4508,2.4385,2.4302,2.4302,2.4292,2.4276,2.4297,2.4354,2.4467,2.463,2.4821,2.4926,2.4812,4.2644,4.2625,4.2645,4.2333,4.1843,4.1336,4.1101,4.1101,4.1101,4.1101,4.1099,4.1055,4.1065,4.1057,4.1002,4.075,4.0438,4.0438,3.9929,3.9066,3.9024,3.8557,3.7774,3.7648,3.718,3.6427,3.6339,3.6051,3.5633,3.5528,3.5502,3.5499,3.5498,3.5503,3.5503,3.5503,3.5503,3.5503,3.5503,3.5304,3.489,3.4121,3.3657,3.3554,3.2795,3.2372,3.2334,3.1987,3.1561,3.1091,3.0965,3.0679,3.0136,3.0026,2.993,2.9815,2.9659,2.9516,2.9421,2.9758,2.9978,2.9921,3.0291,3.049,3.0477,3.0436,3.0393,3.0259,2.9436,2.8815,2.8816,2.8687,2.8581,2.8555,2.838,2.825,2.8243,2.7975,2.7795,2.7788,2.7612,2.7453,2.734,2.7198,2.7086,2.7015,2.69,2.6817,2.6809,2.675,2.6674,2.6606,2.6451,2.6259,2.6043,2.5814,2.5649,2.5555,2.5448,2.5275,2.5094,2.5025,2.4956,2.4731,2.471,2.47,2.4736,2.47,2.4726,2.4751,2.4922,2.5135,2.5301,2.5416,2.5448,4.3708,4.3708,4.3708,4.3337,4.2712,4.2087,4.1813,4.1813,4.1813,4.1833,4.1813,4.1809,4.1819,4.1741,4.1267,4.104,4.1009,4.1027,4.0659,4.0034,3.9988,3.952,3.8724,3.8614,3.8144,3.7422,3.729,3.6831,3.6009,3.562,3.5531,3.5538,3.5518,3.5498,3.5498,3.5488,3.5503,3.5503,3.5503,3.5503,3.5404,3.4891,3.4545,3.4491,3.3718,3.326,3.326,3.3038,3.2622,3.2001,3.191,3.1597,3.0972,3.0855,3.0784,3.0633,3.0446,3.0316,3.0287,3.0718,3.0953,3.0941,3.1342,3.1537,3.1543,3.1477,3.1428,3.1305,3.0296,2.9624,2.9563,2.9491,2.9429,2.9392,2.9251,2.9086,2.8856,2.8595,2.8358,2.8141,2.7933,2.7782,2.763,2.7402,2.7205,2.7206,2.7054,2.6958,2.6942,2.6842,2.6742,2.6691,2.6657,2.6512,2.6319,2.6124,2.5965,2.5901,2.5816,2.5703,2.5524,2.5486,2.5394,2.5195,2.5175,2.5156,2.5156,2.5156,2.5217,2.5269,2.5423,2.5707,2.6075,2.6157,2.6477,4.3711,4.375,4.3711,4.3711,4.3633,4.3535,4.3535,4.3398,4.3496,4.3535,4.3457,4.3475,4.3552,4.3375,4.1917,4.1134,4.1112,4.1148,4.1056,4.087,4.0892,4.0466,3.9651,3.9572,3.9125,3.8387,3.8263,3.7751,3.6855,3.6067,3.5586,3.5633,3.5602,3.5525,3.5499,3.5485,3.5503,3.5503,3.5503,3.5503,3.5484,3.5446,3.5365,3.5292,3.4603,3.4144,3.4068,3.3372,3.2913,3.2862,3.2836,3.2761,3.2638,3.2619,3.2489,3.2387,3.2233,3.2133,3.2053,3.2004,3.1942,3.1934,3.1909,3.1751,3.1931,3.1819,3.1746,3.155,3.1489,3.1299,3.1274,3.1004,3.0978,3.099,3.096,3.0536,2.9911,2.9656,2.9175,2.8654,2.8396,2.8194,2.7993,2.7674,2.7509,2.7432,2.7269,2.7111,2.7086,2.699,2.6917,2.6876,2.6775,2.6666,2.652,2.6364,2.6278,2.6216,2.6134,2.6081,2.5963,2.5835,2.5717,2.5642,2.5596,2.5577,2.5577,2.5637,2.5726,2.5815,2.5952,2.6248,2.6996,2.7169,2.7526,4.5371,4.5293,4.4766,4.4531,4.4473,4.3945,4.3711,4.3711,4.3711,4.3711,4.3711,4.3711,4.3711,4.3652,4.3045,4.2452,4.1967,4.1927,4.1627,4.1124,4.1059,4.089,4.0634,4.0526,4.0082,3.9401,3.9227,3.8706,3.7855,3.7466,3.7008,3.6496,3.6397,3.6112,3.5612,3.5493,3.5492,3.5484,3.5503,3.5503,3.5503,3.5503,3.5503,3.5484,3.5192,3.5042,3.5042,3.4734,3.4324,3.374,3.3721,3.3458,3.2941,3.2828,3.2785,3.2737,3.257,3.2505,3.2521,3.2789,3.2963,3.2966,3.3266,3.3379,3.34,3.3276,3.3167,3.3136,3.3043,3.3004,3.2782,3.2039,3.139,3.1359,3.1295,3.1158,3.0865,3.0663,3.0437,3.0089,2.9571,2.89,2.844,2.8021,2.7831,2.7795,2.7564,2.7404,2.7316,2.7166,2.7039,2.7023,2.6949,2.6884,2.6834,2.6606,2.6478,2.6442,2.6389,2.632,2.6206,2.6145,2.6039,2.6016,2.5979,2.6144,2.6217,2.6292,2.6382,2.6743,2.6848,2.7201,2.8015,2.8159,2.8569,4.6289,4.6211,4.5664,4.543,4.5351,4.4805,4.4531,4.4551,4.4531,4.4551,4.4531,4.4531,4.4551,4.4531,4.4551,4.4062,4.3255,4.2941,4.2332,4.1565,4.1511,4.1365,4.1108,4.1052,4.0751,4.0224,3.9867,3.9353,3.8784,3.8473,3.7967,3.7386,3.7318,3.6846,3.6086,3.5933,3.582,3.5582,3.5491,3.5503,3.5503,3.5503,3.5503,3.5503,3.5503,3.5503,3.5503,3.5503,3.5253,3.4718,3.4625,3.4362,3.3794,3.3688,3.3637,3.3626,3.3563,3.3462,3.3499,3.3806,3.4022,3.4027,3.43,3.4528,3.4498,3.4322,3.4203,3.4148,3.4042,3.3959,3.3736,3.2881,3.2205,3.218,3.2135,3.1974,3.1748,3.1621,3.1409,3.1028,3.0498,2.9872,2.9368,2.9092,2.8848,2.8582,2.8228,2.799,2.7692,2.7417,2.723,2.7214,2.7136,2.7079,2.7031,2.69,2.6793,2.6759,2.6673,2.6587,2.6619,2.6534,2.6482,2.6421,2.6511,2.6727,2.6877,2.696,2.7279,2.7734,2.7903,2.8131,2.8701,2.9127,2.952,4.6289,4.6289,4.6289,4.6211,4.6172,4.6094,4.6211,4.6094,4.6133,4.6016,4.5957,4.6133,4.5996,4.6152,4.5996,4.5703,4.4883,4.4159,4.3317,4.2474,4.2332,4.1899,4.1253,4.1129,4.1086,4.093,4.0231,3.9824,3.9686,3.9036,3.856,3.8338,3.8265,3.7799,3.6895,3.6829,3.6389,3.5814,3.5649,3.5565,3.5503,3.5503,3.5503,3.5503,3.5503,3.5503,3.5503,3.5503,3.5462,3.5423,3.5407,3.5465,3.5282,3.5212,3.5286,3.5183,3.5235,3.5216,3.5162,3.5033,3.4936,3.4924,3.4874,3.4793,3.4739,3.455,3.4399,3.4335,3.4197,3.4086,3.4017,3.3793,3.3629,3.3772,3.3513,3.32,3.2771,3.2562,3.2191,3.1505,3.1146,3.1106,3.1011,3.0645,3.0225,2.9684,2.9308,2.8953,2.8481,2.8147,2.7698,2.7645,2.7785,2.7896,2.7556,2.721,2.7158,2.7086,2.6995,2.6928,2.7163,2.7212,2.7252,2.7216,2.7442,2.7676,2.7919,2.8045,2.8315,2.8671,2.8826,2.9071,2.9606,3.0065,3.0338,4.6289,4.6289,4.6289,4.6289,4.6289,4.6289,4.6289,4.6289,4.6289,4.6289,4.6289,4.6289,4.6289,4.6289,4.6289,4.6152,4.5879,4.5547,4.4707,4.3418,4.2712,4.232,4.1928,4.1398,4.1101,4.1077,4.0838,4.0683,4.0591,4.0349,3.9952,3.9387,3.9248,3.8738,3.7905,3.7779,3.7323,3.6575,3.6424,3.6125,3.5582,3.5517,3.5503,3.5503,3.5503,3.5503,3.5503,3.5503,3.5503,3.5503,3.5503,3.5503,3.55,3.549,3.546,3.546,3.5398,3.5369,3.5361,3.5285,3.5216,3.5155,3.5056,3.4978,3.4946,3.4775,3.465,3.458,3.4422,3.4263,3.4148,3.403,3.394,3.3868,3.3822,3.3715,3.3433,3.3371,3.3021,3.2347,3.2112,3.1841,3.1382,3.1147,3.1012,3.072,3.0419,3.0109,2.9887,2.9473,2.9453,2.9422,2.9283,2.8973,2.88,2.8649,2.8591,2.8317,2.8014,2.7734,2.7878,2.796,2.8001,2.8177,2.8404,2.8648,2.8892,2.9102,2.9338,2.9533,2.9687,3.0094,3.0664,3.0903,3.097,4.6289,4.6289,4.6289,4.6289,4.6289,4.6289,4.6289,4.6289,4.6289,4.6289,4.6289,4.6289,4.6289,4.6289,4.6289,4.6289,4.6289,4.6289,4.5703,4.4648,4.3769,4.3222,4.2811,4.199,4.1382,4.1145,4.1105,4.1116,4.1115,4.109,4.0797,4.0287,4.0192,3.9725,3.8895,3.873,3.8308,3.7547,3.7349,3.7058,3.6624,3.6472,3.6311,3.605,3.5989,3.5806,3.5542,3.5503,3.5503,3.5503,3.5503,3.5503,3.5503,3.55,3.5503,3.5477,3.546,3.5446,3.5439,3.5365,3.5324,3.5285,3.5216,3.513,3.5069,3.496,3.4864,3.473,3.4599,3.4461,3.4316,3.4161,3.4055,3.396,3.388,3.382,3.3807,3.3807,3.3623,3.3151,3.2996,3.2702,3.2364,3.2152,3.1903,3.1712,3.1467,3.1144,3.0986,3.0611,3.0573,3.0487,3.0186,3.0057,3.0178,3.0137,3.0088,2.9712,2.9289,2.8948,2.8809,2.8799,2.883,2.9177,2.9448,2.9724,2.9959,3.0014,3.0173,3.0345,3.0439,3.0734,3.1038,3.1072,3.1123,4.6306,4.6288,4.6289,4.6289,4.6289,4.6289,4.6289,4.6289,4.6289,4.6289,4.6289,4.6289,4.6289,4.6289,4.6289,4.6289,4.6289,4.6289,4.625,4.5918,4.5273,4.4492,4.3535,4.2773,4.2148,4.1561,4.1346,4.1245,4.1333,4.1172,4.1101,4.0997,4.0884,4.0618,3.9908,3.9713,3.926,3.8496,3.8321,3.8217,3.8056,3.8009,3.7672,3.6909,3.6857,3.6571,3.6021,3.5776,3.5596,3.5519,3.5503,3.5503,3.5503,3.5503,3.5503,3.5503,3.5497,3.5497,3.547,3.5423,3.5379,3.5383,3.5327,3.5277,3.5201,3.5126,3.5024,3.486,3.4761,3.4666,3.4517,3.4341,3.4185,3.4074,3.3919,3.382,3.3807,3.3807,3.3733,3.3752,3.3788,3.3752,3.3562,3.3513,3.3181,3.2752,3.2443,3.2083,3.1701,3.1468,3.1102,3.1081,3.1252,3.1305,3.1456,3.1326,3.1288,3.1169,3.0725,3.0317,2.9963,2.9883,2.9852,3.0183,3.0379,3.0672,3.0827,3.0762,3.0792,3.0884,3.1009,3.1166,3.119,3.119,3.119,4.6302,4.6287,4.6288,4.6289,4.6289,4.6289,4.6289,4.6289,4.6289,4.6289,4.6289,4.6289,4.6289,4.6289,4.6289,4.6289,4.6289,4.6289,4.6289,4.6269,4.6113,4.5078,4.3945,4.3496,4.3223,4.2891,4.2305,4.205,4.2008,4.1459,4.1181,4.1109,4.1107,4.097,4.0736,4.0616,4.017,3.946,3.9265,3.8905,3.841,3.829,3.8089,3.7884,3.78,3.7632,3.7326,3.6733,3.6077,3.5538,3.5503,3.5503,3.5503,3.5503,3.5503,3.5503,3.5503,3.5503,3.55,3.547,3.5453,3.5409,3.5387,3.5342,3.5281,3.525,3.5176,3.5059,3.4964,3.4849,3.4671,3.4467,3.4245,3.3992,3.3862,3.3814,3.3807,3.3807,3.3807,3.3807,3.3807,3.3807,3.38,3.3768,3.3663,3.343,3.3284,3.3179,3.2719,3.2606,3.2364,3.2658,3.2817,3.2751,3.271,3.2547,3.2483,3.2536,3.2219,3.1783,3.1464,3.1251,3.1202,3.128,3.1136,3.1305,3.1276,3.1215,3.1312,3.1274,3.1242,3.123,3.12,3.119,3.119,4.6271,4.6301,4.6305,4.6288,4.6289,4.6289,4.6289,4.6289,4.6289,4.6289,4.6289,4.6289,4.6289,4.6289,4.6289,4.6289,4.6289,4.6289,4.6289,4.6289,4.6269,4.5508,4.4531,4.4258,4.4062,4.3652,4.3203,4.2988,4.2792,4.2069,4.1696,4.1573,4.1269,4.112,4.1069,4.1052,4.0846,4.0365,4.0207,3.9886,3.943,3.9362,3.907,3.8867,3.8701,3.8572,3.8104,3.7532,3.6869,3.6138,3.5715,3.5503,3.5503,3.5503,3.5503,3.5503,3.5503,3.5503,3.5503,3.5503,3.547,3.5453,3.5449,3.5409,3.5357,3.535,3.5289,3.5201,3.5098,3.4973,3.4811,3.4564,3.4268,3.403,3.3895,3.3822,3.3814,3.3807,3.3807,3.3807,3.3807,3.3807,3.3807,3.3807,3.3807,3.3782,3.37,3.3673,3.3597,3.3647,3.3584,3.3574,3.3545,3.3313,3.3205,3.3067,3.296,3.3087,3.297,3.267,3.2404,3.2153,3.1984,3.1841,3.1831,3.1765,3.1635,3.1504,3.1408,3.1351,3.13,3.1259,3.123,3.1239,3.123,4.6229,4.6302,4.6301,4.6306,4.6288,4.6289,4.6289,4.6289,4.6289,4.6289,4.6289,4.6289,4.6289,4.6289,4.6289,4.6289,4.6289,4.6289,4.6289,4.6289,4.625,4.582,4.5254,4.5137,4.4805,4.4258,4.3945,4.3848,4.3613,4.2968,4.2577,4.2399,4.1808,4.1392,4.1423,4.1306,4.1193,4.1,4.0882,4.0784,4.0602,4.057,4.0241,3.9757,3.9621,3.9277,3.8705,3.8225,3.7796,3.7023,3.6192,3.5965,3.585,3.5773,3.5677,3.5638,3.56,3.5503,3.5503,3.5503,3.5503,3.5477,3.5477,3.547,3.542,3.5405,3.5376,3.5304,3.5201,3.5072,3.4917,3.4607,3.4328,3.4111,3.3972,3.3875,3.3827,3.3807,3.3807,3.3807,3.3807,3.3807,3.3807,3.3807,3.3807,3.3807,3.3793,3.3787,3.3773,3.3726,3.3691,3.3703,3.3668,3.3615,3.3562,3.3501,3.3437,3.3401,3.326,3.3016,3.2737,3.2514,3.2387,3.2275,3.2197,3.2046,3.1883,3.1728,3.159,3.1485,3.1454,3.1349,3.1278,3.1298,3.1308,4.6168,4.6212,4.6265,4.6298,4.6306,4.6288,4.6289,4.6289,4.6289,4.6289,4.6289,4.6289,4.6289,4.6289,4.6289,4.6289,4.6289,4.6289,4.6289,4.6289,4.6289,4.623,4.5996,4.5957,4.5859,4.5508,4.5,4.4746,4.4512,4.3926,4.3437,4.3359,4.3084,4.2789,4.2201,4.2114,4.1753,4.1254,4.1131,4.1121,4.1031,4.0964,4.0798,4.0511,4.0431,4.031,3.999,3.938,3.8934,3.8588,3.7973,3.743,3.7196,3.6754,3.6484,3.635,3.5888,3.558,3.5542,3.5657,3.5503,3.5577,3.5596,3.5497,3.5474,3.5467,3.5446,3.5376,3.5285,3.5119,3.4879,3.4588,3.434,3.4148,3.3992,3.3887,3.3809,3.3807,3.3807,3.3807,3.3807,3.3807,3.3807,3.3807,3.3807,3.3807,3.3807,3.3807,3.38,3.3787,3.378,3.376,3.3746,3.3705,3.3691,3.3657,3.3601,3.357,3.3455,3.3353,3.307,3.289,3.277,3.2639,3.2496,3.2335,3.2161,3.2046,3.193,3.1784,3.1625,3.154,3.149,3.1462,3.1404,4.609,4.6152,4.6224,4.6266,4.6299,4.6305,4.6288,4.6289,4.6289,4.6289,4.6289,4.6289,4.6289,4.6289,4.6289,4.6289,4.6289,4.6289,4.6289,4.6289,4.6289,4.6289,4.6289,4.6289,4.6289,4.623,4.5859,4.5625,4.5391,4.4805,4.4297,4.4258,4.3965,4.3417,4.3084,4.3023,4.2804,4.2368,4.1888,4.1694,4.1629,4.1184,4.0921,4.0866,4.0782,4.067,4.0505,4.0138,3.9904,3.9746,3.9396,3.8742,3.8084,3.7584,3.735,3.7219,3.6984,3.6677,3.6677,3.6657,3.6523,3.608,3.6058,3.5808,3.5615,3.5503,3.5493,3.5423,3.5327,3.5166,3.4865,3.4636,3.4403,3.4191,3.4011,3.3926,3.384,3.3807,3.3807,3.3807,3.3807,3.3807,3.3807,3.3807,3.3807,3.3807,3.3807,3.3807,3.3807,3.38,3.38,3.3793,3.38,3.3793,3.3787,3.3753,3.3698,3.365,3.3594,3.3541,3.3412,3.326,3.3155,3.2975,3.28,3.2638,3.2489,3.2387,3.2232,3.2037,3.1865,3.1773,3.1681,3.1615,3.1549,4.603,4.6105,4.6153,4.6225,4.6281,4.63,4.6305,4.6288,4.6289,4.6289,4.6289,4.6289,4.6289,4.6289,4.6289,4.6289,4.6289,4.6289,4.6289,4.6289,4.6289,4.6289,4.6289,4.6289,4.6289,4.6289,4.6211,4.6211,4.6016,4.5625,4.5195,4.5078,4.4551,4.418,4.4003,4.3885,4.3708,4.3373,4.288,4.2597,4.2442,4.1771,4.1261,4.0878,4.0785,4.0674,4.0604,4.0465,4.0435,4.0492,4.0492,3.9723,3.8819,3.8219,3.82,3.8184,3.795,3.7734,3.7677,3.7773,3.7526,3.6907,3.6888,3.6619,3.6157,3.5888,3.5808,3.5661,3.5518,3.5163,3.4917,3.4704,3.4465,3.4245,3.408,3.3947,3.3829,3.3807,3.3807,3.3807,3.3807,3.3807,3.3807,3.3807,3.3807,3.3807,3.3807,3.3807,3.3807,3.3807,3.3807,3.3807,3.3807,3.3807,3.38,3.38,3.3753,3.3732,3.3691,3.3664,3.364,3.3559,3.3404,3.3245,3.3078,3.293,3.2802,3.2688,3.2506,3.2275,3.2153,3.2108,3.1957,3.1775,3.171,4.5978,4.6117,4.6109,4.6165,4.6228,4.6283,4.6297,4.6306,4.6288,4.6289,4.6289,4.6289,4.6289,4.6289,4.6289,4.6289,4.6289,4.6289,4.6289,4.6289,4.6289,4.6289,4.6289,4.6289,4.6289,4.6289,4.6289,4.6289,4.6289,4.6152,4.5918,4.5976,4.582,4.543,4.4922,4.4765,4.4472,4.408,4.3668,4.3507,4.3295,4.2622,4.1722,4.1153,4.093,4.0736,4.0607,4.0542,4.0492,4.0492,4.0492,4.0323,3.9877,3.9358,3.9107,3.8973,3.855,3.8334,3.8296,3.8142,3.7988,3.7796,3.7777,3.7734,3.7369,3.6904,3.6573,3.6284,3.5791,3.5189,3.4912,3.4758,3.4495,3.4257,3.4086,3.3928,3.3854,3.3807,3.3807,3.3807,3.3807,3.3807,3.3807,3.3807,3.3807,3.3807,3.3807,3.3807,3.3807,3.3807,3.3807,3.3807,3.3807,3.3807,3.3807,3.3807,3.3793,3.3787,3.3766,3.3766,3.3746,3.3766,3.3652,3.348,3.336,3.3233,3.3093,3.2977,3.2802,3.2589,3.2506,3.2438,3.2266,3.2091,3.193,4.5906,4.6022,4.6064,4.6113,4.6165,4.6222,4.6267,4.6301,4.6306,4.6288,4.6289,4.6289,4.6289,4.6289,4.6289,4.6289,4.6289,4.6289,4.6289,4.6289,4.6289,4.6289,4.6289,4.6289,4.6289,4.6289,4.6289,4.6289,4.6289,4.6289,4.6289,4.6289,4.6289,4.6074,4.5781,4.5664,4.541,4.498,4.4609,4.4352,4.4261,4.3488,4.2546,4.1803,4.1374,4.1113,4.0653,4.0538,4.0496,4.0492,4.0492,4.0492,4.0381,4.0189,3.99,3.9804,3.9473,3.9261,3.9281,3.9281,3.9165,3.8719,3.8684,3.8411,3.8065,3.7615,3.737,3.7099,3.6484,3.5787,3.5609,3.5027,3.4514,3.4251,3.4136,3.4014,3.3872,3.3857,3.3935,3.3972,3.3935,3.3935,3.3807,3.3807,3.3807,3.3807,3.3807,3.3807,3.3807,3.3807,3.3807,3.3807,3.3807,3.3807,3.3807,3.3807,3.3807,3.3807,3.3807,3.3807,3.3807,3.38,3.378,3.3678,3.3584,3.347,3.3386,3.3241,3.3081,3.2932,3.2852,3.2747,3.2574,3.2413,3.224,4.591,4.6148,4.6258,4.6414,4.659,4.6675,4.6792,4.6796,4.6868,4.6795,4.6562,4.6582,4.6484,4.6328,4.6289,4.6289,4.6289,4.6289,4.6289,4.6289,4.6289,4.6289,4.6289,4.6289,4.6289,4.6289,4.6289,4.6289,4.6289,4.6289,4.6289,4.6289,4.6289,4.6289,4.623,4.6152,4.6289,4.6074,4.5683,4.5234,4.483,4.4258,4.3417,4.2486,4.2157,4.159,4.1038,4.0634,4.0519,4.0492,4.0492,4.0492,4.0492,4.0492,4.0492,4.0492,4.0492,4.0492,4.0435,4.0377,4.0015,3.9573,3.955,3.9146,3.8738,3.85,3.8151,3.7835,3.7271,3.6649,3.6354,3.5662,3.5162,3.4908,3.4747,3.4513,3.4561,3.4598,3.4651,3.4559,3.4302,3.4119,3.4045,3.3807,3.3807,3.3807,3.3807,3.3807,3.3807,3.3807,3.3807,3.3807,3.3807,3.3807,3.3807,3.3807,3.3807,3.3807,3.3807,3.3807,3.3807,3.3807,3.378,3.376,3.3732,3.3622,3.3563,3.3495,3.3338,3.3218,3.316,3.3026,3.2852,3.268,3.2531,4.619,4.6952,4.6984,4.748,4.8183,4.8262,4.8401,4.8414,4.8358,4.8078,4.744,4.7402,4.7051,4.6523,4.6308,4.6289,4.6289,4.6289,4.6289,4.6289,4.6289,4.6289,4.6289,4.6289,4.6289,4.6289,4.6289,4.6289,4.6289,4.6289,4.6289,4.6289,4.6289,4.6289,4.6289,4.6289,4.6289,4.6269,4.6152,4.5762,4.5152,4.485,4.4248,4.3391,4.2642,4.1992,4.1591,4.1016,4.0631,4.0492,4.0492,4.0492,4.0492,4.0492,4.0492,4.0492,4.0492,4.0492,4.0492,4.0492,4.0473,4.0227,4.0242,4.0265,3.9858,3.9373,3.8843,3.7946,3.7672,3.7507,3.7279,3.6917,3.6659,3.6342,3.5959,3.5912,3.5894,3.5333,3.5385,3.5477,3.5312,3.4706,3.4357,3.4045,3.3807,3.3807,3.3825,3.3825,3.3807,3.3807,3.3807,3.3807,3.3807,3.3807,3.3807,3.3807,3.3807,3.3807,3.3807,3.3807,3.3807,3.3807,3.3807,3.3793,3.378,3.376,3.3689,3.3605,3.3541,3.347,3.3375,3.3256,3.3119,3.2953,3.2778,4.7324,4.773,4.782,4.8108,4.8513,4.8599,4.8705,4.8787,4.8801,4.8623,4.8377,4.834,4.7851,4.709,4.6562,4.6289,4.6289,4.6308,4.6289,4.6289,4.6289,4.6289,4.6289,4.6289,4.6289,4.6289,4.6289,4.6289,4.6289,4.6289,4.6289,4.6289,4.6289,4.6289,4.6289,4.6289,4.6289,4.6289,4.625,4.6094,4.5774,4.5543,4.511,4.4184,4.3631,4.2922,4.207,4.1567,4.0954,4.0685,4.0492,4.0492,4.0492,4.0492,4.0492,4.0492,4.0492,4.0492,4.0492,4.0492,4.0492,4.0492,4.0492,4.0454,4.04,4.0165,3.9842,3.9399,3.8808,3.844,3.8064,3.7565,3.7165,3.6907,3.692,3.6728,3.6604,3.6353,3.6119,3.6229,3.6285,3.5734,3.5209,3.489,3.4541,3.4144,3.4082,3.4009,3.3917,3.3807,3.3807,3.3807,3.3807,3.3807,3.3807,3.3807,3.3807,3.3807,3.3825,3.3825,3.3807,3.3807,3.4002,3.3954,3.3874,3.3835,3.3826,3.3698,3.364,3.3594,3.3566,3.3423,3.3293,3.3111,3.2866,4.8763,4.8824,4.8723,4.884,4.91,4.9157,4.9298,4.9419,4.9468,4.9358,4.9136,4.8965,4.8496,4.7851,4.7109,4.6738,4.6641,4.6406,4.6308,4.6289,4.6289,4.6289,4.6289,4.6289,4.6289,4.6289,4.6289,4.6289,4.6289,4.6289,4.6289,4.6289,4.6289,4.6289,4.6289,4.6289,4.6289,4.6289,4.6302,4.6225,4.6129,4.6086,4.5624,4.507,4.4537,4.3897,4.2757,4.2221,4.1724,4.1046,4.0916,4.0858,4.0569,4.0492,4.0492,4.0492,4.0492,4.0492,4.0492,4.0492,4.0492,4.0492,4.0492,4.0492,4.0492,4.0492,4.0469,4.0226,3.9783,3.9346,3.9012,3.8391,3.8099,3.781,3.7537,3.7246,3.7056,3.7073,3.7155,3.7349,3.7312,3.6971,3.6457,3.5991,3.544,3.4695,3.4394,3.4277,3.4174,3.4082,3.3917,3.3954,3.3924,3.3905,3.388,3.3862,3.3844,3.3954,3.3965,3.4057,3.4222,3.4399,3.4623,3.4454,3.4284,3.4589,3.499,3.4332,3.3719,3.3698,3.3664,3.3591,3.3455,3.331,3.2973,5.0519,5.0486,4.9729,4.9907,5.0647,5.0805,5.0863,5.083,5.0984,5.0605,4.997,4.9316,4.8965,4.8594,4.7988,4.7519,4.748,4.668,4.6601,4.6523,4.6328,4.6504,4.6523,4.6484,4.6367,4.6289,4.6289,4.6289,4.6289,4.6289,4.6289,4.6289,4.6289,4.6289,4.6289,4.6289,4.6289,4.6287,4.6299,4.6259,4.618,4.6115,4.5944,4.5623,4.4998,4.438,4.416,4.3418,4.2624,4.1773,4.172,4.1474,4.1089,4.0954,4.0954,4.0762,4.0723,4.0666,4.0554,4.0492,4.0492,4.0492,4.0492,4.0492,4.0492,4.0492,4.0484,4.0474,4.0143,4.0028,3.9874,3.9681,3.9116,3.8808,3.8462,3.8278,3.816,3.818,3.8279,3.8458,3.8267,3.7815,3.7613,3.7129,3.6321,3.5576,3.5181,3.5045,3.4784,3.4626,3.4266,3.4119,3.4071,3.4034,3.3979,3.4107,3.4486,3.4564,3.455,3.4715,3.4906,3.51,3.5284,3.5456,3.544,3.5789,3.5881,3.5137,3.447,3.3977,3.3863,3.4223,3.412,3.3916,3.3402,5.0688,5.0649,5.0361,5.0492,5.0913,5.0977,5.1078,5.1196,5.1266,5.1173,5.0834,5.0077,4.9687,4.9453,4.8828,4.8398,4.8359,4.8125,4.7871,4.7891,4.7891,4.7578,4.7363,4.7012,4.6855,4.6445,4.6328,4.6289,4.6289,4.6289,4.6289,4.6289,4.6289,4.6289,4.6289,4.6289,4.6289,4.6284,4.6273,4.6231,4.6196,4.608,4.5978,4.5777,4.5594,4.4882,4.4377,4.404,4.3374,4.2835,4.2643,4.2316,4.2012,4.1954,4.1724,4.1373,4.1296,4.1089,4.065,4.0573,4.0492,4.0492,4.0492,4.0492,4.0492,4.0492,4.0492,4.0467,4.0453,4.0339,4.0139,4.0,3.9751,3.9592,3.9369,3.9149,3.8986,3.8859,3.8765,3.8676,3.8638,3.845,3.8329,3.8219,3.732,3.6475,3.6116,3.5801,3.5584,3.5334,3.5037,3.4871,3.4853,3.4963,3.4963,3.511,3.5275,3.5217,3.5167,3.5467,3.572,3.58,3.6002,3.6266,3.6431,3.6468,3.6266,3.5752,3.533,3.5037,3.51,3.5348,3.5066,3.4555,3.4027,5.0688,5.0688,5.0688,5.074,5.0851,5.0945,5.103,5.1147,5.1228,5.1318,5.1362,5.0779,5.0546,5.0312,4.9687,4.9277,4.918,4.8965,4.8867,4.8769,4.8652,4.8516,4.8164,4.7851,4.7578,4.6875,4.666,4.6699,4.6289,4.6289,4.6289,4.6289,4.6289,4.6289,4.6289,4.6289,4.6289,4.6282,4.6229,4.62,4.618,4.6075,4.5947,4.5824,4.5676,4.5402,4.4951,4.4686,4.4263,4.3739,4.3431,4.3297,4.3162,4.3008,4.2758,4.2408,4.21,4.1835,4.1397,4.0727,4.055,4.0492,4.0492,4.0492,4.0492,4.0512,4.0496,4.0495,4.0491,4.0432,4.0238,4.0104,3.9965,3.9718,3.9458,3.9232,3.9087,3.8957,3.8866,3.8784,3.8754,3.8724,3.8646,3.8536,3.8157,3.7331,3.6795,3.6604,3.6553,3.6303,3.6035,3.5925,3.5917,3.6064,3.6211,3.6028,3.5862,3.591,3.5951,3.6369,3.6597,3.6696,3.6945,3.7349,3.7386,3.7092,3.7019,3.7019,3.6652,3.6237,3.6186,3.6029,3.5668,3.5144,3.4852,5.0688,5.0688,5.0688,5.0697,5.072,5.0846,5.0948,5.1037,5.1144,5.1289,5.1389,5.1264,5.1268,5.1094,5.043,5.0176,5.0019,4.9473,4.918,4.9277,4.9394,4.9082,4.8926,4.8769,4.8437,4.7754,4.7383,4.6973,4.6406,4.6328,4.6328,4.6289,4.6289,4.6289,4.6289,4.6289,4.6289,4.6282,4.6231,4.6199,4.618,4.6073,4.5944,4.5824,4.575,4.5533,4.5385,4.5306,4.4917,4.4455,4.4301,4.4051,4.3609,4.3489,4.3316,4.3124,4.3066,4.2989,4.2854,4.1416,4.0916,4.0916,4.1108,4.0916,4.0669,4.0589,4.055,4.0569,4.0491,4.0434,4.0302,4.0182,4.0027,3.9832,3.9587,3.9369,3.9219,3.9094,3.8996,3.8896,3.8837,3.8799,3.8769,3.8732,3.8686,3.8204,3.7565,3.7353,3.7375,3.7301,3.7063,3.7026,3.7,3.6982,3.7019,3.6652,3.6486,3.6534,3.6791,3.7221,3.7569,3.7753,3.8065,3.8414,3.8248,3.7881,3.8186,3.8534,3.7863,3.7165,3.6662,3.639,3.6066,3.587,3.5701,5.0688,5.0688,5.0688,5.0697,5.0712,5.0834,5.0917,5.1013,5.1136,5.1261,5.1368,5.1391,5.1401,5.1268,5.1172,5.0937,5.0879,5.0879,5.0566,5.0488,5.043,5.0176,4.9961,4.9668,4.9297,4.8516,4.7988,4.7617,4.7187,4.6719,4.6367,4.6289,4.6289,4.6289,4.6289,4.6289,4.6289,4.6301,4.6249,4.6201,4.618,4.6073,4.5944,4.5814,4.575,4.5668,4.5603,4.5594,4.5383,4.5109,4.5032,4.4878,4.4628,4.459,4.4397,4.4066,4.3874,4.3605,4.3258,4.2435,4.2301,4.2224,4.2051,4.1797,4.1508,4.1373,4.1089,4.0743,4.0746,4.0663,4.0413,4.0341,4.0191,4.0031,3.9798,3.9563,3.9401,3.9278,3.9158,3.9028,3.8939,3.8881,3.8837,3.8769,3.8727,3.8715,3.8138,3.8068,3.812,3.8212,3.812,3.812,3.8094,3.801,3.7845,3.7496,3.7441,3.7598,3.7837,3.8167,3.8487,3.8524,3.8542,3.856,3.8626,3.8699,3.8699,3.8663,3.8524,3.8042,3.7503,3.727,3.7241,3.7071,3.6859,5.0688,5.0688,5.0688,5.0688,5.0707,5.079,5.0905,5.1009,5.1136,5.1267,5.1348,5.1377,5.1395,5.1384,5.1386,5.1387,5.1387,5.1387,5.1367,5.1387,5.1367,5.0996,5.0723,5.0547,5.0098,4.9394,4.8808,4.834,4.7539,4.7031,4.6621,4.6387,4.6289,4.6289,4.6289,4.6289,4.6288,4.6282,4.6249,4.6201,4.616,4.6075,4.5944,4.5827,4.575,4.5687,4.562,4.5594,4.5594,4.5594,4.5594,4.5594,4.5594,4.5518,4.5302,4.4898,4.4705,4.4474,4.4147,4.4032,4.3955,4.3974,4.3528,4.2854,4.2369,4.2277,4.2008,4.1685,4.1358,4.1334,4.1293,4.1131,4.0916,4.078,4.0455,4.0217,3.9743,3.9627,3.9444,3.9298,3.9092,3.9007,3.8903,3.8807,3.8757,3.8727,3.8686,3.8715,3.8707,3.8707,3.8707,3.8663,3.8626,3.8443,3.8395,3.8395,3.8432,3.8644,3.8699,3.8699,3.8681,3.8634,3.8663,3.8699,3.8699,3.8699,3.8699,3.8644,3.8553,3.8483,3.8282,3.8208,3.8368,3.8004,3.7532,5.0688,5.0688,5.0688,5.0688,5.0697,5.0711,5.0814,5.1,5.1131,5.1217,5.1312,5.136,5.1387,5.1383,5.1385,5.1386,5.1387,5.1387,5.1387,5.1387,5.1387,5.1289,5.1289,5.1211,5.0781,5.041,4.9883,4.9043,4.7871,4.7422,4.7012,4.6465,4.6308,4.6289,4.6289,4.6289,4.6289,4.6282,4.6249,4.6219,4.618,4.6075,4.5944,4.5831,4.575,4.5687,4.5625,4.5594,4.5594,4.5594,4.5594,4.5594,4.5594,4.5594,4.5594,4.5575,4.5513,4.5398,4.5306,4.521,4.5248,4.4955,4.4124,4.347,4.3162,4.3104,4.2874,4.272,4.2508,4.268,4.2781,4.248,4.2192,4.1852,4.1461,4.0968,4.0316,4.0032,3.9844,3.9627,3.9386,3.9222,3.9036,3.8914,3.8837,3.8777,3.8754,3.8735,3.8719,3.8689,3.8689,3.8699,3.8681,3.8681,3.8699,3.8699,3.8699,3.8699,3.8699,3.8699,3.8699,3.8718,3.8699,3.8699,3.8699,3.8699,3.8699,3.8673,3.864,3.8564,3.848,3.8382,3.8297,3.8019,3.7623,5.0688,5.0688,5.0688,5.0688,5.0693,5.0697,5.0795,5.094,5.1024,5.1111,5.1237,5.1286,5.137,5.1396,5.1383,5.1386,5.1387,5.1387,5.1387,5.1387,5.1387,5.1387,5.1387,5.1367,5.1191,5.0937,5.0469,4.9941,4.9219,4.8437,4.7168,4.6426,4.6328,4.6308,4.6289,4.6289,4.6289,4.6282,4.625,4.6217,4.618,4.6075,4.5944,4.5827,4.5731,4.5668,4.562,4.5594,4.5594,4.5594,4.5594,4.5594,4.5594,4.5594,4.5594,4.5594,4.5575,4.5575,4.5594,4.5594,4.5594,4.5594,4.5013,4.4586,4.4201,4.3912,4.3739,4.3605,4.347,4.3534,4.3517,4.3307,4.3042,4.2704,4.2364,4.2006,4.1393,4.0995,4.0751,4.0268,4.0002,3.9475,3.9276,3.905,3.8957,3.8877,3.8803,3.8758,3.8724,3.8712,3.8689,3.8707,3.8699,3.8699,3.8699,3.8699,3.8699,3.8699,3.8781,3.8854,3.8872,3.8872,3.8755,3.8773,3.8927,3.8828,3.8699,3.8673,3.8658,3.8549,3.8445,3.8332,3.8182,3.7863,3.7567,5.0688,5.0688,5.0688,5.0688,5.0693,5.0697,5.0738,5.0818,5.0952,5.1082,5.1201,5.1238,5.1319,5.1379,5.1395,5.1383,5.1387,5.1387,5.1387,5.1387,5.1387,5.1387,5.1387,5.1387,5.1367,5.1172,5.0937,5.0488,4.9883,4.8574,4.7226,4.6914,4.6582,4.6328,4.6289,4.6289,4.6289,4.6282,4.6248,4.6217,4.616,4.6075,4.5944,4.5827,4.5734,4.5668,4.5631,4.5594,4.5594,4.5594,4.5594,4.5594,4.5594,4.5594,4.5594,4.5594,4.5594,4.5594,4.5594,4.5594,4.5594,4.5594,4.5594,4.5306,4.5051,4.4801,4.459,4.4397,4.4263,4.4162,4.4107,4.4013,4.3766,4.3496,4.3312,4.312,4.2645,4.217,4.164,4.1088,4.0524,3.9921,3.9543,3.9315,3.9066,3.8981,3.8881,3.8785,3.8743,3.8727,3.8696,3.8699,3.8699,3.8699,3.8718,3.881,3.8846,3.8982,3.9203,3.9239,3.9184,3.9423,3.969,3.9507,3.9239,3.9148,3.9056,3.8773,3.8669,3.8569,3.8417,3.8171,3.7923,3.7551,3.7293,5.0688,5.0688,5.0688,5.0688,5.0688,5.0693,5.0702,5.072,5.0901,5.104,5.1175,5.1186,5.128,5.1358,5.1385,5.1399,5.1385,5.1387,5.1387,5.1387,5.1387,5.1387,5.1387,5.1387,5.1387,5.1387,5.123,5.082,4.9941,4.8945,4.8164,4.7695,4.6914,4.6601,4.6621,4.6367,4.6308,4.6284,4.6252,4.6225,4.6165,4.608,4.5953,4.5834,4.5742,4.5676,4.5644,4.5618,4.5594,4.5594,4.5594,4.5594,4.5594,4.5594,4.5594,4.5594,4.5594,4.5594,4.5594,4.5594,4.5594,4.5594,4.5594,4.5537,4.5402,4.5321,4.5109,4.5071,4.4936,4.4917,4.4889,4.4837,4.4657,4.4443,4.4263,4.4058,4.3738,4.3182,4.2515,4.1974,4.1444,4.0874,4.0522,4.0364,4.0266,3.967,3.9448,3.9394,3.9245,3.9206,3.8932,3.8891,3.8736,3.881,3.9056,3.9129,3.9103,3.9258,3.9662,3.9882,3.9992,4.0333,4.0755,4.0388,3.9966,3.9662,3.946,3.9268,3.903,3.8741,3.8507,3.8054,3.7703,3.7396,3.705,5.0688,5.0688,5.0688,5.0688,5.0688,5.0688,5.0693,5.0725,5.081,5.0921,5.1066,5.1158,5.123,5.1316,5.1375,5.1395,5.1384,5.1387,5.1387,5.1387,5.1387,5.1387,5.1387,5.1387,5.1387,5.1387,5.1269,5.1035,5.0312,4.9687,4.9141,4.8555,4.7734,4.7285,4.7246,4.6894,4.6562,4.6481,4.6453,4.6332,4.6186,4.6119,4.6012,4.5899,4.5816,4.5735,4.5686,4.5627,4.5599,4.5594,4.5594,4.5594,4.5594,4.5594,4.5594,4.5594,4.5594,4.5594,4.5594,4.5594,4.5594,4.5594,4.5594,4.5594,4.5575,4.5594,4.5594,4.5594,4.5594,4.5594,4.559,4.5543,4.5491,4.532,4.5167,4.4933,4.4737,4.4102,4.3398,4.2878,4.2383,4.1982,4.1619,4.1406,4.1347,4.1229,4.1091,4.0945,4.0628,4.0435,3.9643,3.942,3.8909,3.892,3.9313,3.9643,3.9727,4.0094,4.0571,4.0718,4.0828,4.1158,4.1489,4.1122,4.0736,4.0469,4.0194,3.9937,3.9655,3.9301,3.8898,3.8586,3.7909,3.7481,3.7048,5.0688,5.0688,5.0688,5.0688,5.0688,5.0688,5.0688,5.0716,5.0743,5.0821,5.0978,5.1098,5.1191,5.1255,5.1331,5.1385,5.138,5.1385,5.1387,5.1387,5.1387,5.1387,5.1387,5.1387,5.1387,5.1387,5.1367,5.1133,5.0703,5.0254,4.9766,4.9375,4.8652,4.8144,4.8105,4.7637,4.7187,4.6912,4.6887,4.6695,4.6384,4.6167,4.6052,4.5923,4.5827,4.5773,4.571,4.5652,4.5635,4.5599,4.5594,4.5594,4.5594,4.5594,4.5594,4.5594,4.5594,4.5594,4.5594,4.5594,4.5594,4.5594,4.5594,4.5594,4.5594,4.5594,4.5594,4.5594,4.5594,4.5594,4.5594,4.5566,4.5566,4.5457,4.5414,4.5305,4.5206,4.49,4.4264,4.3685,4.3258,4.2898,4.2504,4.2039,4.1963,4.1735,4.1766,4.1716,4.1556,4.1596,4.0783,4.0244,3.9908,3.9782,4.0241,4.0461,4.0534,4.0956,4.1462,4.1801,4.2029,4.2121,4.2158,4.1827,4.1552,4.1332,4.1056,4.0744,4.0445,4.015,3.967,3.9208,3.8474,3.7799,3.7384,5.0688,5.0688,5.0688,5.0688,5.0688,5.0688,5.0688,5.0697,5.0697,5.0766,5.088,5.0995,5.1093,5.1198,5.1277,5.1333,5.1366,5.1381,5.1385,5.1386,5.1387,5.1387,5.1387,5.1387,5.1387,5.1387,5.1387,5.1387,5.125,5.0801,5.0449,5.0176,4.9668,4.9043,4.9043,4.8828,4.8398,4.7929,4.7671,4.7352,4.6853,4.6268,4.6102,4.5942,4.5838,4.5783,4.5723,4.5678,4.5657,4.5631,4.5594,4.5594,4.5594,4.5594,4.5594,4.5594,4.5594,4.5594,4.5594,4.5594,4.5594,4.5594,4.5594,4.5594,4.5594,4.5594,4.5594,4.5594,4.5594,4.5594,4.5594,4.5594,4.5594,4.5594,4.559,4.559,4.553,4.5493,4.4994,4.4424,4.4154,4.3804,4.3455,4.2963,4.2689,4.2423,4.2215,4.2043,4.2009,4.2221,4.1993,4.1691,4.1487,4.1442,4.1342,4.1268,4.1323,4.1846,4.2341,4.2845,4.3139,4.2937,4.2763,4.2588,4.2323,4.2158,4.1864,4.1534,4.1252,4.0996,4.0359,3.9812,3.9409,3.8725,3.8041,5.0688,5.0688,5.0688,5.0688,5.0688,5.0688,5.0688,5.0697,5.0697,5.0715,5.0764,5.0882,5.1033,5.1202,5.128,5.1323,5.137,5.1392,5.1402,5.1385,5.1386,5.1387,5.1387,5.1387,5.1387,5.1387,5.1387,5.1387,5.1387,5.1211,5.1133,5.1016,5.0351,4.9922,4.9824,4.9512,4.9023,4.8691,4.8612,4.8392,4.7889,4.7185,4.6247,4.6049,4.5933,4.5848,4.5784,4.5718,4.5665,4.5607,4.5594,4.5594,4.5594,4.5594,4.5594,4.5594,4.5594,4.5594,4.5594,4.5594,4.5594,4.5594,4.5594,4.5594,4.5594,4.5594,4.5594,4.5594,4.5594,4.5594,4.5594,4.5594,4.5594,4.5594,4.559,4.559,4.5562,4.5553,4.5352,4.5161,4.5063,4.4849,4.4701,4.4364,4.4182,4.392,4.3653,4.344,4.3075,4.3103,4.3058,4.2893,4.2735,4.2561,4.2231,4.2103,4.2194,4.2708,4.3047,4.3231,4.3359,4.3433,4.3267,4.3047,4.3102,4.3065,4.2727,4.2268,4.2117,4.1813,4.1047,4.0463,4.0121,3.9708,3.9061]}]]